<?xml version="1.0" encoding="UTF-8" standalone="no" ?>
<gpx xmlns="http://www.topografix.com/GPX/1/1" xmlns:xsi="http://www.w3.org/2001/XMLSchema-instance" xsi:schemaLocation="http://www.topografix.com/GPX/1/1 http://www.topografix.com/GPX/1/1/gpx.xsd" version="1.1" creator="VisuGPX - https://www.visugpx.com">
  <metadata>
    <name>Course à pied en soirée</name>
  </metadata>
  <trk>
    <name><![CDATA[Course à pied en soirée_1]]></name>
    <trkseg>
      <trkpt lat="43.64764" lon="1.37622">
        <ele>140</ele>
        <time>2024-03-27T17:12:58Z</time>
      </trkpt>
      <trkpt lat="43.64766" lon="1.37621">
        <ele>140</ele>
        <time>2024-03-27T17:12:59Z</time>
      </trkpt>
      <trkpt lat="43.64766" lon="1.37621">
        <ele>140</ele>
        <time>2024-03-27T17:13:00Z</time>
      </trkpt>
      <trkpt lat="43.64767" lon="1.37617">
        <ele>140</ele>
        <time>2024-03-27T17:13:01Z</time>
      </trkpt>
      <trkpt lat="43.64769" lon="1.37615">
        <ele>140</ele>
        <time>2024-03-27T17:13:02Z</time>
      </trkpt>
      <trkpt lat="43.6477" lon="1.37613">
        <ele>140</ele>
        <time>2024-03-27T17:13:03Z</time>
      </trkpt>
      <trkpt lat="43.64772" lon="1.37611">
        <ele>140</ele>
        <time>2024-03-27T17:13:04Z</time>
      </trkpt>
      <trkpt lat="43.64773" lon="1.37609">
        <ele>140</ele>
        <time>2024-03-27T17:13:05Z</time>
      </trkpt>
      <trkpt lat="43.64775" lon="1.37607">
        <ele>140</ele>
        <time>2024-03-27T17:13:06Z</time>
      </trkpt>
      <trkpt lat="43.64777" lon="1.37606">
        <ele>140</ele>
        <time>2024-03-27T17:13:07Z</time>
      </trkpt>
      <trkpt lat="43.64779" lon="1.37605">
        <ele>140</ele>
        <time>2024-03-27T17:13:08Z</time>
      </trkpt>
      <trkpt lat="43.64781" lon="1.37603">
        <ele>140</ele>
        <time>2024-03-27T17:13:09Z</time>
      </trkpt>
      <trkpt lat="43.64784" lon="1.37602">
        <ele>140</ele>
        <time>2024-03-27T17:13:10Z</time>
      </trkpt>
      <trkpt lat="43.64786" lon="1.37601">
        <ele>140</ele>
        <time>2024-03-27T17:13:11Z</time>
      </trkpt>
      <trkpt lat="43.64788" lon="1.376">
        <ele>140</ele>
        <time>2024-03-27T17:13:12Z</time>
      </trkpt>
      <trkpt lat="43.6479" lon="1.37599">
        <ele>140</ele>
        <time>2024-03-27T17:13:13Z</time>
      </trkpt>
      <trkpt lat="43.64792" lon="1.37598">
        <ele>140</ele>
        <time>2024-03-27T17:13:14Z</time>
      </trkpt>
      <trkpt lat="43.64795" lon="1.37599">
        <ele>140</ele>
        <time>2024-03-27T17:13:15Z</time>
      </trkpt>
      <trkpt lat="43.64798" lon="1.376">
        <ele>140</ele>
        <time>2024-03-27T17:13:16Z</time>
      </trkpt>
      <trkpt lat="43.64801" lon="1.37601">
        <ele>140</ele>
        <time>2024-03-27T17:13:17Z</time>
      </trkpt>
      <trkpt lat="43.64804" lon="1.37602">
        <ele>140</ele>
        <time>2024-03-27T17:13:18Z</time>
      </trkpt>
      <trkpt lat="43.64806" lon="1.37603">
        <ele>140</ele>
        <time>2024-03-27T17:13:19Z</time>
      </trkpt>
      <trkpt lat="43.64808" lon="1.37604">
        <ele>140</ele>
        <time>2024-03-27T17:13:20Z</time>
      </trkpt>
      <trkpt lat="43.6481" lon="1.37605">
        <ele>140</ele>
        <time>2024-03-27T17:13:21Z</time>
      </trkpt>
      <trkpt lat="43.64812" lon="1.37606">
        <ele>140</ele>
        <time>2024-03-27T17:13:22Z</time>
      </trkpt>
      <trkpt lat="43.64814" lon="1.37608">
        <ele>140</ele>
        <time>2024-03-27T17:13:23Z</time>
      </trkpt>
      <trkpt lat="43.64817" lon="1.3761">
        <ele>140</ele>
        <time>2024-03-27T17:13:24Z</time>
      </trkpt>
      <trkpt lat="43.64819" lon="1.37612">
        <ele>140</ele>
        <time>2024-03-27T17:13:25Z</time>
      </trkpt>
      <trkpt lat="43.64822" lon="1.37614">
        <ele>140</ele>
        <time>2024-03-27T17:13:26Z</time>
      </trkpt>
      <trkpt lat="43.64823" lon="1.37614">
        <ele>140</ele>
        <time>2024-03-27T17:13:27Z</time>
      </trkpt>
      <trkpt lat="43.64824" lon="1.37615">
        <ele>140</ele>
        <time>2024-03-27T17:13:28Z</time>
      </trkpt>
      <trkpt lat="43.64826" lon="1.37616">
        <ele>140</ele>
        <time>2024-03-27T17:13:29Z</time>
      </trkpt>
      <trkpt lat="43.64827" lon="1.37616">
        <ele>140</ele>
        <time>2024-03-27T17:13:30Z</time>
      </trkpt>
      <trkpt lat="43.64835" lon="1.37621">
        <ele>140</ele>
        <time>2024-03-27T17:13:31Z</time>
      </trkpt>
      <trkpt lat="43.64838" lon="1.37623">
        <ele>140</ele>
        <time>2024-03-27T17:13:32Z</time>
      </trkpt>
      <trkpt lat="43.64841" lon="1.37625">
        <ele>140</ele>
        <time>2024-03-27T17:13:33Z</time>
      </trkpt>
      <trkpt lat="43.64844" lon="1.37627">
        <ele>140</ele>
        <time>2024-03-27T17:13:34Z</time>
      </trkpt>
      <trkpt lat="43.64847" lon="1.37629">
        <ele>140</ele>
        <time>2024-03-27T17:13:35Z</time>
      </trkpt>
      <trkpt lat="43.64851" lon="1.37632">
        <ele>140</ele>
        <time>2024-03-27T17:13:36Z</time>
      </trkpt>
      <trkpt lat="43.64851" lon="1.37632">
        <ele>140</ele>
        <time>2024-03-27T17:13:37Z</time>
      </trkpt>
      <trkpt lat="43.64852" lon="1.37633">
        <ele>140</ele>
        <time>2024-03-27T17:13:38Z</time>
      </trkpt>
      <trkpt lat="43.64853" lon="1.37634">
        <ele>140</ele>
        <time>2024-03-27T17:13:39Z</time>
      </trkpt>
      <trkpt lat="43.64855" lon="1.37636">
        <ele>140</ele>
        <time>2024-03-27T17:13:40Z</time>
      </trkpt>
      <trkpt lat="43.64856" lon="1.37637">
        <ele>140</ele>
        <time>2024-03-27T17:13:41Z</time>
      </trkpt>
      <trkpt lat="43.64862" lon="1.37642">
        <ele>140</ele>
        <time>2024-03-27T17:13:42Z</time>
      </trkpt>
      <trkpt lat="43.64863" lon="1.37643">
        <ele>140</ele>
        <time>2024-03-27T17:13:43Z</time>
      </trkpt>
      <trkpt lat="43.64864" lon="1.37644">
        <ele>140</ele>
        <time>2024-03-27T17:13:44Z</time>
      </trkpt>
      <trkpt lat="43.64865" lon="1.37645">
        <ele>140</ele>
        <time>2024-03-27T17:13:45Z</time>
      </trkpt>
      <trkpt lat="43.64872" lon="1.37649">
        <ele>140</ele>
        <time>2024-03-27T17:13:46Z</time>
      </trkpt>
      <trkpt lat="43.64873" lon="1.3765">
        <ele>140</ele>
        <time>2024-03-27T17:13:47Z</time>
      </trkpt>
      <trkpt lat="43.64875" lon="1.3765">
        <ele>140</ele>
        <time>2024-03-27T17:13:48Z</time>
      </trkpt>
      <trkpt lat="43.64876" lon="1.37651">
        <ele>140</ele>
        <time>2024-03-27T17:13:49Z</time>
      </trkpt>
      <trkpt lat="43.64878" lon="1.37652">
        <ele>140</ele>
        <time>2024-03-27T17:13:50Z</time>
      </trkpt>
      <trkpt lat="43.6488" lon="1.37652">
        <ele>140</ele>
        <time>2024-03-27T17:13:51Z</time>
      </trkpt>
      <trkpt lat="43.64881" lon="1.37653">
        <ele>140</ele>
        <time>2024-03-27T17:13:52Z</time>
      </trkpt>
      <trkpt lat="43.64882" lon="1.37655">
        <ele>140</ele>
        <time>2024-03-27T17:13:53Z</time>
      </trkpt>
      <trkpt lat="43.64883" lon="1.37656">
        <ele>141</ele>
        <time>2024-03-27T17:13:54Z</time>
      </trkpt>
      <trkpt lat="43.64884" lon="1.37657">
        <ele>141</ele>
        <time>2024-03-27T17:13:55Z</time>
      </trkpt>
      <trkpt lat="43.64889" lon="1.37666">
        <ele>141</ele>
        <time>2024-03-27T17:13:56Z</time>
      </trkpt>
      <trkpt lat="43.6489" lon="1.3767">
        <ele>141</ele>
        <time>2024-03-27T17:13:57Z</time>
      </trkpt>
      <trkpt lat="43.64891" lon="1.37674">
        <ele>141</ele>
        <time>2024-03-27T17:13:58Z</time>
      </trkpt>
      <trkpt lat="43.64892" lon="1.37675">
        <ele>140</ele>
        <time>2024-03-27T17:13:59Z</time>
      </trkpt>
      <trkpt lat="43.64892" lon="1.37677">
        <ele>140</ele>
        <time>2024-03-27T17:14:00Z</time>
      </trkpt>
      <trkpt lat="43.64893" lon="1.37679">
        <ele>141</ele>
        <time>2024-03-27T17:14:01Z</time>
      </trkpt>
      <trkpt lat="43.64893" lon="1.37681">
        <ele>141</ele>
        <time>2024-03-27T17:14:02Z</time>
      </trkpt>
      <trkpt lat="43.64896" lon="1.37691">
        <ele>141</ele>
        <time>2024-03-27T17:14:03Z</time>
      </trkpt>
      <trkpt lat="43.64897" lon="1.37695">
        <ele>141</ele>
        <time>2024-03-27T17:14:04Z</time>
      </trkpt>
      <trkpt lat="43.64898" lon="1.37698">
        <ele>141</ele>
        <time>2024-03-27T17:14:05Z</time>
      </trkpt>
      <trkpt lat="43.64898" lon="1.37701">
        <ele>140</ele>
        <time>2024-03-27T17:14:06Z</time>
      </trkpt>
      <trkpt lat="43.64899" lon="1.37703">
        <ele>140</ele>
        <time>2024-03-27T17:14:07Z</time>
      </trkpt>
      <trkpt lat="43.64899" lon="1.37704">
        <ele>140</ele>
        <time>2024-03-27T17:14:08Z</time>
      </trkpt>
      <trkpt lat="43.64899" lon="1.37706">
        <ele>140</ele>
        <time>2024-03-27T17:14:09Z</time>
      </trkpt>
      <trkpt lat="43.64899" lon="1.37708">
        <ele>140</ele>
        <time>2024-03-27T17:14:10Z</time>
      </trkpt>
      <trkpt lat="43.64899" lon="1.37709">
        <ele>140</ele>
        <time>2024-03-27T17:14:11Z</time>
      </trkpt>
      <trkpt lat="43.64902" lon="1.3772">
        <ele>140</ele>
        <time>2024-03-27T17:14:12Z</time>
      </trkpt>
      <trkpt lat="43.64902" lon="1.37722">
        <ele>140</ele>
        <time>2024-03-27T17:14:13Z</time>
      </trkpt>
      <trkpt lat="43.64903" lon="1.37725">
        <ele>140</ele>
        <time>2024-03-27T17:14:14Z</time>
      </trkpt>
      <trkpt lat="43.64904" lon="1.37728">
        <ele>140</ele>
        <time>2024-03-27T17:14:15Z</time>
      </trkpt>
      <trkpt lat="43.64905" lon="1.37731">
        <ele>140</ele>
        <time>2024-03-27T17:14:16Z</time>
      </trkpt>
      <trkpt lat="43.64906" lon="1.37733">
        <ele>140</ele>
        <time>2024-03-27T17:14:17Z</time>
      </trkpt>
      <trkpt lat="43.64906" lon="1.37736">
        <ele>140</ele>
        <time>2024-03-27T17:14:18Z</time>
      </trkpt>
      <trkpt lat="43.64907" lon="1.37738">
        <ele>140</ele>
        <time>2024-03-27T17:14:19Z</time>
      </trkpt>
      <trkpt lat="43.64909" lon="1.37749">
        <ele>140</ele>
        <time>2024-03-27T17:14:20Z</time>
      </trkpt>
      <trkpt lat="43.64909" lon="1.37753">
        <ele>140</ele>
        <time>2024-03-27T17:14:21Z</time>
      </trkpt>
      <trkpt lat="43.6491" lon="1.37756">
        <ele>140</ele>
        <time>2024-03-27T17:14:22Z</time>
      </trkpt>
      <trkpt lat="43.6491" lon="1.3776">
        <ele>140</ele>
        <time>2024-03-27T17:14:23Z</time>
      </trkpt>
      <trkpt lat="43.64911" lon="1.37763">
        <ele>140</ele>
        <time>2024-03-27T17:14:24Z</time>
      </trkpt>
      <trkpt lat="43.64911" lon="1.37766">
        <ele>140</ele>
        <time>2024-03-27T17:14:25Z</time>
      </trkpt>
      <trkpt lat="43.64911" lon="1.37769">
        <ele>140</ele>
        <time>2024-03-27T17:14:26Z</time>
      </trkpt>
      <trkpt lat="43.64912" lon="1.37772">
        <ele>140</ele>
        <time>2024-03-27T17:14:27Z</time>
      </trkpt>
      <trkpt lat="43.64913" lon="1.37775">
        <ele>140</ele>
        <time>2024-03-27T17:14:28Z</time>
      </trkpt>
      <trkpt lat="43.64913" lon="1.37778">
        <ele>140</ele>
        <time>2024-03-27T17:14:29Z</time>
      </trkpt>
      <trkpt lat="43.64914" lon="1.37782">
        <ele>140</ele>
        <time>2024-03-27T17:14:30Z</time>
      </trkpt>
      <trkpt lat="43.64915" lon="1.37785">
        <ele>140</ele>
        <time>2024-03-27T17:14:31Z</time>
      </trkpt>
      <trkpt lat="43.64915" lon="1.37787">
        <ele>140</ele>
        <time>2024-03-27T17:14:32Z</time>
      </trkpt>
      <trkpt lat="43.64916" lon="1.37788">
        <ele>140</ele>
        <time>2024-03-27T17:14:33Z</time>
      </trkpt>
      <trkpt lat="43.64916" lon="1.3779">
        <ele>140</ele>
        <time>2024-03-27T17:14:34Z</time>
      </trkpt>
      <trkpt lat="43.64916" lon="1.37792">
        <ele>140</ele>
        <time>2024-03-27T17:14:35Z</time>
      </trkpt>
      <trkpt lat="43.64918" lon="1.37802">
        <ele>140</ele>
        <time>2024-03-27T17:14:36Z</time>
      </trkpt>
      <trkpt lat="43.64919" lon="1.37805">
        <ele>140</ele>
        <time>2024-03-27T17:14:37Z</time>
      </trkpt>
      <trkpt lat="43.6492" lon="1.37809">
        <ele>139</ele>
        <time>2024-03-27T17:14:38Z</time>
      </trkpt>
      <trkpt lat="43.6492" lon="1.37812">
        <ele>140</ele>
        <time>2024-03-27T17:14:39Z</time>
      </trkpt>
      <trkpt lat="43.64921" lon="1.37814">
        <ele>140</ele>
        <time>2024-03-27T17:14:40Z</time>
      </trkpt>
      <trkpt lat="43.64921" lon="1.37815">
        <ele>140</ele>
        <time>2024-03-27T17:14:41Z</time>
      </trkpt>
      <trkpt lat="43.64922" lon="1.37817">
        <ele>140</ele>
        <time>2024-03-27T17:14:42Z</time>
      </trkpt>
      <trkpt lat="43.64923" lon="1.37818">
        <ele>140</ele>
        <time>2024-03-27T17:14:43Z</time>
      </trkpt>
      <trkpt lat="43.64926" lon="1.37828">
        <ele>140</ele>
        <time>2024-03-27T17:14:44Z</time>
      </trkpt>
      <trkpt lat="43.64927" lon="1.37831">
        <ele>140</ele>
        <time>2024-03-27T17:14:45Z</time>
      </trkpt>
      <trkpt lat="43.64928" lon="1.37835">
        <ele>140</ele>
        <time>2024-03-27T17:14:46Z</time>
      </trkpt>
      <trkpt lat="43.64929" lon="1.37838">
        <ele>140</ele>
        <time>2024-03-27T17:14:47Z</time>
      </trkpt>
      <trkpt lat="43.64929" lon="1.3784">
        <ele>139</ele>
        <time>2024-03-27T17:14:48Z</time>
      </trkpt>
      <trkpt lat="43.64929" lon="1.37841">
        <ele>140</ele>
        <time>2024-03-27T17:14:49Z</time>
      </trkpt>
      <trkpt lat="43.6493" lon="1.37843">
        <ele>140</ele>
        <time>2024-03-27T17:14:50Z</time>
      </trkpt>
      <trkpt lat="43.6493" lon="1.37845">
        <ele>140</ele>
        <time>2024-03-27T17:14:51Z</time>
      </trkpt>
      <trkpt lat="43.64933" lon="1.37854">
        <ele>140</ele>
        <time>2024-03-27T17:14:52Z</time>
      </trkpt>
      <trkpt lat="43.64933" lon="1.37855">
        <ele>140</ele>
        <time>2024-03-27T17:14:53Z</time>
      </trkpt>
      <trkpt lat="43.64933" lon="1.37857">
        <ele>140</ele>
        <time>2024-03-27T17:14:54Z</time>
      </trkpt>
      <trkpt lat="43.64934" lon="1.37859">
        <ele>140</ele>
        <time>2024-03-27T17:14:55Z</time>
      </trkpt>
      <trkpt lat="43.64936" lon="1.37868">
        <ele>139</ele>
        <time>2024-03-27T17:14:56Z</time>
      </trkpt>
      <trkpt lat="43.64937" lon="1.37871">
        <ele>139</ele>
        <time>2024-03-27T17:14:57Z</time>
      </trkpt>
      <trkpt lat="43.64937" lon="1.37873">
        <ele>139</ele>
        <time>2024-03-27T17:14:58Z</time>
      </trkpt>
      <trkpt lat="43.64938" lon="1.37876">
        <ele>139</ele>
        <time>2024-03-27T17:14:59Z</time>
      </trkpt>
      <trkpt lat="43.64939" lon="1.37879">
        <ele>139</ele>
        <time>2024-03-27T17:15:00Z</time>
      </trkpt>
      <trkpt lat="43.64941" lon="1.37881">
        <ele>139</ele>
        <time>2024-03-27T17:15:01Z</time>
      </trkpt>
      <trkpt lat="43.64943" lon="1.37883">
        <ele>139</ele>
        <time>2024-03-27T17:15:02Z</time>
      </trkpt>
      <trkpt lat="43.64945" lon="1.37885">
        <ele>139</ele>
        <time>2024-03-27T17:15:03Z</time>
      </trkpt>
      <trkpt lat="43.64947" lon="1.37888">
        <ele>139</ele>
        <time>2024-03-27T17:15:04Z</time>
      </trkpt>
      <trkpt lat="43.64948" lon="1.3789">
        <ele>139</ele>
        <time>2024-03-27T17:15:05Z</time>
      </trkpt>
      <trkpt lat="43.64948" lon="1.37893">
        <ele>139</ele>
        <time>2024-03-27T17:15:06Z</time>
      </trkpt>
      <trkpt lat="43.64949" lon="1.37896">
        <ele>139</ele>
        <time>2024-03-27T17:15:07Z</time>
      </trkpt>
      <trkpt lat="43.6495" lon="1.37899">
        <ele>139</ele>
        <time>2024-03-27T17:15:08Z</time>
      </trkpt>
      <trkpt lat="43.64951" lon="1.37901">
        <ele>139</ele>
        <time>2024-03-27T17:15:09Z</time>
      </trkpt>
      <trkpt lat="43.64952" lon="1.37906">
        <ele>139</ele>
        <time>2024-03-27T17:15:10Z</time>
      </trkpt>
      <trkpt lat="43.64954" lon="1.37911">
        <ele>139</ele>
        <time>2024-03-27T17:15:11Z</time>
      </trkpt>
      <trkpt lat="43.64955" lon="1.37916">
        <ele>139</ele>
        <time>2024-03-27T17:15:12Z</time>
      </trkpt>
      <trkpt lat="43.64956" lon="1.37919">
        <ele>139</ele>
        <time>2024-03-27T17:15:13Z</time>
      </trkpt>
      <trkpt lat="43.64957" lon="1.37922">
        <ele>139</ele>
        <time>2024-03-27T17:15:14Z</time>
      </trkpt>
      <trkpt lat="43.64959" lon="1.37925">
        <ele>139</ele>
        <time>2024-03-27T17:15:15Z</time>
      </trkpt>
      <trkpt lat="43.6496" lon="1.37928">
        <ele>139</ele>
        <time>2024-03-27T17:15:16Z</time>
      </trkpt>
      <trkpt lat="43.64961" lon="1.37931">
        <ele>139</ele>
        <time>2024-03-27T17:15:17Z</time>
      </trkpt>
      <trkpt lat="43.64963" lon="1.37933">
        <ele>139</ele>
        <time>2024-03-27T17:15:18Z</time>
      </trkpt>
      <trkpt lat="43.64965" lon="1.37936">
        <ele>139</ele>
        <time>2024-03-27T17:15:19Z</time>
      </trkpt>
      <trkpt lat="43.64966" lon="1.37939">
        <ele>139</ele>
        <time>2024-03-27T17:15:20Z</time>
      </trkpt>
      <trkpt lat="43.64967" lon="1.3794">
        <ele>139</ele>
        <time>2024-03-27T17:15:21Z</time>
      </trkpt>
      <trkpt lat="43.64968" lon="1.37941">
        <ele>139</ele>
        <time>2024-03-27T17:15:22Z</time>
      </trkpt>
      <trkpt lat="43.64969" lon="1.37943">
        <ele>139</ele>
        <time>2024-03-27T17:15:23Z</time>
      </trkpt>
      <trkpt lat="43.6497" lon="1.37944">
        <ele>139</ele>
        <time>2024-03-27T17:15:24Z</time>
      </trkpt>
      <trkpt lat="43.64975" lon="1.37951">
        <ele>139</ele>
        <time>2024-03-27T17:15:25Z</time>
      </trkpt>
      <trkpt lat="43.64977" lon="1.37954">
        <ele>138</ele>
        <time>2024-03-27T17:15:26Z</time>
      </trkpt>
      <trkpt lat="43.64978" lon="1.37956">
        <ele>138</ele>
        <time>2024-03-27T17:15:27Z</time>
      </trkpt>
      <trkpt lat="43.6498" lon="1.37958">
        <ele>138</ele>
        <time>2024-03-27T17:15:28Z</time>
      </trkpt>
      <trkpt lat="43.64981" lon="1.37961">
        <ele>138</ele>
        <time>2024-03-27T17:15:29Z</time>
      </trkpt>
      <trkpt lat="43.64982" lon="1.37963">
        <ele>138</ele>
        <time>2024-03-27T17:15:30Z</time>
      </trkpt>
      <trkpt lat="43.64983" lon="1.37965">
        <ele>138</ele>
        <time>2024-03-27T17:15:31Z</time>
      </trkpt>
      <trkpt lat="43.64985" lon="1.37967">
        <ele>138</ele>
        <time>2024-03-27T17:15:32Z</time>
      </trkpt>
      <trkpt lat="43.64989" lon="1.37974">
        <ele>138</ele>
        <time>2024-03-27T17:15:33Z</time>
      </trkpt>
      <trkpt lat="43.64989" lon="1.37975">
        <ele>138</ele>
        <time>2024-03-27T17:15:34Z</time>
      </trkpt>
      <trkpt lat="43.6499" lon="1.37977">
        <ele>138</ele>
        <time>2024-03-27T17:15:35Z</time>
      </trkpt>
      <trkpt lat="43.64991" lon="1.37978">
        <ele>137</ele>
        <time>2024-03-27T17:15:36Z</time>
      </trkpt>
      <trkpt lat="43.64995" lon="1.37985">
        <ele>137</ele>
        <time>2024-03-27T17:15:37Z</time>
      </trkpt>
      <trkpt lat="43.64996" lon="1.37986">
        <ele>137</ele>
        <time>2024-03-27T17:15:38Z</time>
      </trkpt>
      <trkpt lat="43.64997" lon="1.37988">
        <ele>137</ele>
        <time>2024-03-27T17:15:39Z</time>
      </trkpt>
      <trkpt lat="43.64998" lon="1.37989">
        <ele>138</ele>
        <time>2024-03-27T17:15:40Z</time>
      </trkpt>
      <trkpt lat="43.64999" lon="1.37991">
        <ele>138</ele>
        <time>2024-03-27T17:15:41Z</time>
      </trkpt>
      <trkpt lat="43.65001" lon="1.37992">
        <ele>138</ele>
        <time>2024-03-27T17:15:42Z</time>
      </trkpt>
      <trkpt lat="43.65001" lon="1.37992">
        <ele>138</ele>
        <time>2024-03-27T17:15:43Z</time>
      </trkpt>
      <trkpt lat="43.65001" lon="1.37992">
        <ele>138</ele>
        <time>2024-03-27T17:15:44Z</time>
      </trkpt>
      <trkpt lat="43.65001" lon="1.37992">
        <ele>138</ele>
        <time>2024-03-27T17:15:45Z</time>
      </trkpt>
      <trkpt lat="43.65001" lon="1.37992">
        <ele>138</ele>
        <time>2024-03-27T17:15:46Z</time>
      </trkpt>
      <trkpt lat="43.65003" lon="1.37996">
        <ele>138</ele>
        <time>2024-03-27T17:15:47Z</time>
      </trkpt>
      <trkpt lat="43.65003" lon="1.37996">
        <ele>138</ele>
        <time>2024-03-27T17:15:48Z</time>
      </trkpt>
      <trkpt lat="43.65003" lon="1.37996">
        <ele>138</ele>
        <time>2024-03-27T17:15:49Z</time>
      </trkpt>
      <trkpt lat="43.65003" lon="1.37996">
        <ele>138</ele>
        <time>2024-03-27T17:15:50Z</time>
      </trkpt>
      <trkpt lat="43.65003" lon="1.37996">
        <ele>138</ele>
        <time>2024-03-27T17:15:51Z</time>
      </trkpt>
      <trkpt lat="43.65005" lon="1.37998">
        <ele>138</ele>
        <time>2024-03-27T17:15:52Z</time>
      </trkpt>
      <trkpt lat="43.65005" lon="1.37998">
        <ele>138</ele>
        <time>2024-03-27T17:15:53Z</time>
      </trkpt>
      <trkpt lat="43.65005" lon="1.37998">
        <ele>137</ele>
        <time>2024-03-27T17:15:54Z</time>
      </trkpt>
      <trkpt lat="43.65005" lon="1.37998">
        <ele>138</ele>
        <time>2024-03-27T17:15:55Z</time>
      </trkpt>
      <trkpt lat="43.65005" lon="1.37998">
        <ele>138</ele>
        <time>2024-03-27T17:15:56Z</time>
      </trkpt>
      <trkpt lat="43.65004" lon="1.38001">
        <ele>138</ele>
        <time>2024-03-27T17:15:57Z</time>
      </trkpt>
      <trkpt lat="43.65004" lon="1.38002">
        <ele>138</ele>
        <time>2024-03-27T17:15:58Z</time>
      </trkpt>
      <trkpt lat="43.65005" lon="1.38003">
        <ele>138</ele>
        <time>2024-03-27T17:15:59Z</time>
      </trkpt>
      <trkpt lat="43.65005" lon="1.38003">
        <ele>138</ele>
        <time>2024-03-27T17:16:00Z</time>
      </trkpt>
      <trkpt lat="43.65006" lon="1.38004">
        <ele>138</ele>
        <time>2024-03-27T17:16:01Z</time>
      </trkpt>
      <trkpt lat="43.65007" lon="1.38005">
        <ele>138</ele>
        <time>2024-03-27T17:16:02Z</time>
      </trkpt>
      <trkpt lat="43.65007" lon="1.38006">
        <ele>137</ele>
        <time>2024-03-27T17:16:03Z</time>
      </trkpt>
      <trkpt lat="43.65008" lon="1.38006">
        <ele>138</ele>
        <time>2024-03-27T17:16:04Z</time>
      </trkpt>
      <trkpt lat="43.65012" lon="1.38013">
        <ele>138</ele>
        <time>2024-03-27T17:16:05Z</time>
      </trkpt>
      <trkpt lat="43.65013" lon="1.38014">
        <ele>138</ele>
        <time>2024-03-27T17:16:06Z</time>
      </trkpt>
      <trkpt lat="43.65014" lon="1.38016">
        <ele>138</ele>
        <time>2024-03-27T17:16:07Z</time>
      </trkpt>
      <trkpt lat="43.65015" lon="1.38017">
        <ele>138</ele>
        <time>2024-03-27T17:16:08Z</time>
      </trkpt>
      <trkpt lat="43.6502" lon="1.38026">
        <ele>138</ele>
        <time>2024-03-27T17:16:09Z</time>
      </trkpt>
      <trkpt lat="43.65022" lon="1.38028">
        <ele>138</ele>
        <time>2024-03-27T17:16:10Z</time>
      </trkpt>
      <trkpt lat="43.65023" lon="1.38031">
        <ele>138</ele>
        <time>2024-03-27T17:16:11Z</time>
      </trkpt>
      <trkpt lat="43.65025" lon="1.38033">
        <ele>138</ele>
        <time>2024-03-27T17:16:12Z</time>
      </trkpt>
      <trkpt lat="43.65026" lon="1.38036">
        <ele>138</ele>
        <time>2024-03-27T17:16:13Z</time>
      </trkpt>
      <trkpt lat="43.65028" lon="1.38038">
        <ele>138</ele>
        <time>2024-03-27T17:16:14Z</time>
      </trkpt>
      <trkpt lat="43.65029" lon="1.38041">
        <ele>138</ele>
        <time>2024-03-27T17:16:15Z</time>
      </trkpt>
      <trkpt lat="43.65031" lon="1.38044">
        <ele>138</ele>
        <time>2024-03-27T17:16:16Z</time>
      </trkpt>
      <trkpt lat="43.65032" lon="1.38047">
        <ele>138</ele>
        <time>2024-03-27T17:16:17Z</time>
      </trkpt>
      <trkpt lat="43.65033" lon="1.38049">
        <ele>138</ele>
        <time>2024-03-27T17:16:18Z</time>
      </trkpt>
      <trkpt lat="43.65034" lon="1.38051">
        <ele>138</ele>
        <time>2024-03-27T17:16:19Z</time>
      </trkpt>
      <trkpt lat="43.65035" lon="1.38053">
        <ele>138</ele>
        <time>2024-03-27T17:16:20Z</time>
      </trkpt>
      <trkpt lat="43.6504" lon="1.38062">
        <ele>138</ele>
        <time>2024-03-27T17:16:21Z</time>
      </trkpt>
      <trkpt lat="43.65041" lon="1.38065">
        <ele>138</ele>
        <time>2024-03-27T17:16:22Z</time>
      </trkpt>
      <trkpt lat="43.65043" lon="1.38067">
        <ele>138</ele>
        <time>2024-03-27T17:16:23Z</time>
      </trkpt>
      <trkpt lat="43.65044" lon="1.3807">
        <ele>138</ele>
        <time>2024-03-27T17:16:24Z</time>
      </trkpt>
      <trkpt lat="43.65046" lon="1.38073">
        <ele>138</ele>
        <time>2024-03-27T17:16:25Z</time>
      </trkpt>
      <trkpt lat="43.65047" lon="1.38076">
        <ele>138</ele>
        <time>2024-03-27T17:16:26Z</time>
      </trkpt>
      <trkpt lat="43.65048" lon="1.38079">
        <ele>138</ele>
        <time>2024-03-27T17:16:27Z</time>
      </trkpt>
      <trkpt lat="43.65049" lon="1.38083">
        <ele>138</ele>
        <time>2024-03-27T17:16:28Z</time>
      </trkpt>
      <trkpt lat="43.6505" lon="1.38085">
        <ele>138</ele>
        <time>2024-03-27T17:16:29Z</time>
      </trkpt>
      <trkpt lat="43.65052" lon="1.38086">
        <ele>138</ele>
        <time>2024-03-27T17:16:30Z</time>
      </trkpt>
      <trkpt lat="43.65053" lon="1.38088">
        <ele>138</ele>
        <time>2024-03-27T17:16:31Z</time>
      </trkpt>
      <trkpt lat="43.65058" lon="1.38097">
        <ele>138</ele>
        <time>2024-03-27T17:16:32Z</time>
      </trkpt>
      <trkpt lat="43.65059" lon="1.381">
        <ele>138</ele>
        <time>2024-03-27T17:16:33Z</time>
      </trkpt>
      <trkpt lat="43.65061" lon="1.38103">
        <ele>138</ele>
        <time>2024-03-27T17:16:34Z</time>
      </trkpt>
      <trkpt lat="43.65062" lon="1.38107">
        <ele>138</ele>
        <time>2024-03-27T17:16:35Z</time>
      </trkpt>
      <trkpt lat="43.65063" lon="1.3811">
        <ele>138</ele>
        <time>2024-03-27T17:16:36Z</time>
      </trkpt>
      <trkpt lat="43.65064" lon="1.38113">
        <ele>139</ele>
        <time>2024-03-27T17:16:37Z</time>
      </trkpt>
      <trkpt lat="43.65065" lon="1.38116">
        <ele>139</ele>
        <time>2024-03-27T17:16:38Z</time>
      </trkpt>
      <trkpt lat="43.65066" lon="1.38119">
        <ele>140</ele>
        <time>2024-03-27T17:16:39Z</time>
      </trkpt>
      <trkpt lat="43.65067" lon="1.3812">
        <ele>140</ele>
        <time>2024-03-27T17:16:40Z</time>
      </trkpt>
      <trkpt lat="43.65067" lon="1.38121">
        <ele>140</ele>
        <time>2024-03-27T17:16:41Z</time>
      </trkpt>
      <trkpt lat="43.65068" lon="1.38123">
        <ele>140</ele>
        <time>2024-03-27T17:16:42Z</time>
      </trkpt>
      <trkpt lat="43.65068" lon="1.38124">
        <ele>140</ele>
        <time>2024-03-27T17:16:43Z</time>
      </trkpt>
      <trkpt lat="43.65068" lon="1.38126">
        <ele>140</ele>
        <time>2024-03-27T17:16:44Z</time>
      </trkpt>
      <trkpt lat="43.65072" lon="1.38132">
        <ele>140</ele>
        <time>2024-03-27T17:16:45Z</time>
      </trkpt>
      <trkpt lat="43.65074" lon="1.38131">
        <ele>140</ele>
        <time>2024-03-27T17:16:46Z</time>
      </trkpt>
      <trkpt lat="43.65075" lon="1.38131">
        <ele>140</ele>
        <time>2024-03-27T17:16:47Z</time>
      </trkpt>
      <trkpt lat="43.65077" lon="1.3813">
        <ele>140</ele>
        <time>2024-03-27T17:16:48Z</time>
      </trkpt>
      <trkpt lat="43.65078" lon="1.38129">
        <ele>140</ele>
        <time>2024-03-27T17:16:49Z</time>
      </trkpt>
      <trkpt lat="43.6508" lon="1.38129">
        <ele>140</ele>
        <time>2024-03-27T17:16:50Z</time>
      </trkpt>
      <trkpt lat="43.65081" lon="1.38128">
        <ele>140</ele>
        <time>2024-03-27T17:16:51Z</time>
      </trkpt>
      <trkpt lat="43.65083" lon="1.38127">
        <ele>140</ele>
        <time>2024-03-27T17:16:52Z</time>
      </trkpt>
      <trkpt lat="43.65084" lon="1.38126">
        <ele>140</ele>
        <time>2024-03-27T17:16:53Z</time>
      </trkpt>
      <trkpt lat="43.65085" lon="1.38125">
        <ele>140</ele>
        <time>2024-03-27T17:16:54Z</time>
      </trkpt>
      <trkpt lat="43.65086" lon="1.38124">
        <ele>140</ele>
        <time>2024-03-27T17:16:55Z</time>
      </trkpt>
      <trkpt lat="43.65092" lon="1.38117">
        <ele>140</ele>
        <time>2024-03-27T17:16:56Z</time>
      </trkpt>
      <trkpt lat="43.65094" lon="1.38115">
        <ele>140</ele>
        <time>2024-03-27T17:16:57Z</time>
      </trkpt>
      <trkpt lat="43.65096" lon="1.38114">
        <ele>140</ele>
        <time>2024-03-27T17:16:58Z</time>
      </trkpt>
      <trkpt lat="43.65098" lon="1.38112">
        <ele>140</ele>
        <time>2024-03-27T17:16:59Z</time>
      </trkpt>
      <trkpt lat="43.65101" lon="1.38109">
        <ele>140</ele>
        <time>2024-03-27T17:17:00Z</time>
      </trkpt>
      <trkpt lat="43.65103" lon="1.38109">
        <ele>140</ele>
        <time>2024-03-27T17:17:01Z</time>
      </trkpt>
      <trkpt lat="43.65105" lon="1.38107">
        <ele>140</ele>
        <time>2024-03-27T17:17:02Z</time>
      </trkpt>
      <trkpt lat="43.65107" lon="1.38105">
        <ele>140</ele>
        <time>2024-03-27T17:17:03Z</time>
      </trkpt>
      <trkpt lat="43.65109" lon="1.38103">
        <ele>140</ele>
        <time>2024-03-27T17:17:04Z</time>
      </trkpt>
      <trkpt lat="43.65114" lon="1.381">
        <ele>140</ele>
        <time>2024-03-27T17:17:05Z</time>
      </trkpt>
      <trkpt lat="43.65114" lon="1.381">
        <ele>140</ele>
        <time>2024-03-27T17:17:06Z</time>
      </trkpt>
      <trkpt lat="43.65117" lon="1.38096">
        <ele>140</ele>
        <time>2024-03-27T17:17:07Z</time>
      </trkpt>
      <trkpt lat="43.65119" lon="1.38094">
        <ele>140</ele>
        <time>2024-03-27T17:17:08Z</time>
      </trkpt>
      <trkpt lat="43.65119" lon="1.38094">
        <ele>140</ele>
        <time>2024-03-27T17:17:09Z</time>
      </trkpt>
      <trkpt lat="43.65122" lon="1.38093">
        <ele>140</ele>
        <time>2024-03-27T17:17:10Z</time>
      </trkpt>
      <trkpt lat="43.65125" lon="1.38092">
        <ele>140</ele>
        <time>2024-03-27T17:17:11Z</time>
      </trkpt>
      <trkpt lat="43.65127" lon="1.3809">
        <ele>140</ele>
        <time>2024-03-27T17:17:12Z</time>
      </trkpt>
      <trkpt lat="43.6513" lon="1.38089">
        <ele>140</ele>
        <time>2024-03-27T17:17:13Z</time>
      </trkpt>
      <trkpt lat="43.65132" lon="1.38087">
        <ele>140</ele>
        <time>2024-03-27T17:17:14Z</time>
      </trkpt>
      <trkpt lat="43.65134" lon="1.38085">
        <ele>140</ele>
        <time>2024-03-27T17:17:15Z</time>
      </trkpt>
      <trkpt lat="43.65137" lon="1.38084">
        <ele>140</ele>
        <time>2024-03-27T17:17:16Z</time>
      </trkpt>
      <trkpt lat="43.6514" lon="1.38082">
        <ele>140</ele>
        <time>2024-03-27T17:17:17Z</time>
      </trkpt>
      <trkpt lat="43.65145" lon="1.38082">
        <ele>140</ele>
        <time>2024-03-27T17:17:18Z</time>
      </trkpt>
      <trkpt lat="43.65146" lon="1.38081">
        <ele>140</ele>
        <time>2024-03-27T17:17:19Z</time>
      </trkpt>
      <trkpt lat="43.65149" lon="1.3808">
        <ele>140</ele>
        <time>2024-03-27T17:17:20Z</time>
      </trkpt>
      <trkpt lat="43.65153" lon="1.38078">
        <ele>140</ele>
        <time>2024-03-27T17:17:21Z</time>
      </trkpt>
      <trkpt lat="43.65154" lon="1.38077">
        <ele>140</ele>
        <time>2024-03-27T17:17:22Z</time>
      </trkpt>
      <trkpt lat="43.65157" lon="1.38075">
        <ele>140</ele>
        <time>2024-03-27T17:17:23Z</time>
      </trkpt>
      <trkpt lat="43.65162" lon="1.38072">
        <ele>140</ele>
        <time>2024-03-27T17:17:24Z</time>
      </trkpt>
      <trkpt lat="43.65162" lon="1.38072">
        <ele>140</ele>
        <time>2024-03-27T17:17:25Z</time>
      </trkpt>
      <trkpt lat="43.65164" lon="1.38071">
        <ele>140</ele>
        <time>2024-03-27T17:17:26Z</time>
      </trkpt>
      <trkpt lat="43.65166" lon="1.38069">
        <ele>140</ele>
        <time>2024-03-27T17:17:27Z</time>
      </trkpt>
      <trkpt lat="43.65169" lon="1.38067">
        <ele>140</ele>
        <time>2024-03-27T17:17:28Z</time>
      </trkpt>
      <trkpt lat="43.65172" lon="1.38066">
        <ele>140</ele>
        <time>2024-03-27T17:17:29Z</time>
      </trkpt>
      <trkpt lat="43.65174" lon="1.38064">
        <ele>140</ele>
        <time>2024-03-27T17:17:30Z</time>
      </trkpt>
      <trkpt lat="43.65176" lon="1.38063">
        <ele>140</ele>
        <time>2024-03-27T17:17:31Z</time>
      </trkpt>
      <trkpt lat="43.65179" lon="1.38061">
        <ele>140</ele>
        <time>2024-03-27T17:17:32Z</time>
      </trkpt>
      <trkpt lat="43.65181" lon="1.38059">
        <ele>140</ele>
        <time>2024-03-27T17:17:33Z</time>
      </trkpt>
      <trkpt lat="43.65184" lon="1.38058">
        <ele>140</ele>
        <time>2024-03-27T17:17:34Z</time>
      </trkpt>
      <trkpt lat="43.65186" lon="1.38056">
        <ele>140</ele>
        <time>2024-03-27T17:17:35Z</time>
      </trkpt>
      <trkpt lat="43.6519" lon="1.38053">
        <ele>140</ele>
        <time>2024-03-27T17:17:36Z</time>
      </trkpt>
      <trkpt lat="43.65191" lon="1.38052">
        <ele>140</ele>
        <time>2024-03-27T17:17:37Z</time>
      </trkpt>
      <trkpt lat="43.65194" lon="1.38051">
        <ele>140</ele>
        <time>2024-03-27T17:17:38Z</time>
      </trkpt>
      <trkpt lat="43.65196" lon="1.38049">
        <ele>140</ele>
        <time>2024-03-27T17:17:39Z</time>
      </trkpt>
      <trkpt lat="43.65199" lon="1.38048">
        <ele>141</ele>
        <time>2024-03-27T17:17:40Z</time>
      </trkpt>
      <trkpt lat="43.65201" lon="1.38046">
        <ele>141</ele>
        <time>2024-03-27T17:17:41Z</time>
      </trkpt>
      <trkpt lat="43.65203" lon="1.38045">
        <ele>141</ele>
        <time>2024-03-27T17:17:42Z</time>
      </trkpt>
      <trkpt lat="43.65208" lon="1.38042">
        <ele>141</ele>
        <time>2024-03-27T17:17:43Z</time>
      </trkpt>
      <trkpt lat="43.65208" lon="1.38042">
        <ele>141</ele>
        <time>2024-03-27T17:17:44Z</time>
      </trkpt>
      <trkpt lat="43.65211" lon="1.38039">
        <ele>141</ele>
        <time>2024-03-27T17:17:45Z</time>
      </trkpt>
      <trkpt lat="43.65212" lon="1.38038">
        <ele>141</ele>
        <time>2024-03-27T17:17:46Z</time>
      </trkpt>
      <trkpt lat="43.65215" lon="1.38037">
        <ele>141</ele>
        <time>2024-03-27T17:17:47Z</time>
      </trkpt>
      <trkpt lat="43.65217" lon="1.38036">
        <ele>141</ele>
        <time>2024-03-27T17:17:48Z</time>
      </trkpt>
      <trkpt lat="43.6522" lon="1.38037">
        <ele>141</ele>
        <time>2024-03-27T17:17:49Z</time>
      </trkpt>
      <trkpt lat="43.65222" lon="1.38039">
        <ele>141</ele>
        <time>2024-03-27T17:17:50Z</time>
      </trkpt>
      <trkpt lat="43.65224" lon="1.38043">
        <ele>141</ele>
        <time>2024-03-27T17:17:51Z</time>
      </trkpt>
      <trkpt lat="43.65225" lon="1.38047">
        <ele>141</ele>
        <time>2024-03-27T17:17:52Z</time>
      </trkpt>
      <trkpt lat="43.65226" lon="1.3805">
        <ele>141</ele>
        <time>2024-03-27T17:17:53Z</time>
      </trkpt>
      <trkpt lat="43.65227" lon="1.38054">
        <ele>141</ele>
        <time>2024-03-27T17:17:54Z</time>
      </trkpt>
      <trkpt lat="43.65228" lon="1.38057">
        <ele>141</ele>
        <time>2024-03-27T17:17:55Z</time>
      </trkpt>
      <trkpt lat="43.65229" lon="1.38061">
        <ele>141</ele>
        <time>2024-03-27T17:17:56Z</time>
      </trkpt>
      <trkpt lat="43.6523" lon="1.38065">
        <ele>141</ele>
        <time>2024-03-27T17:17:57Z</time>
      </trkpt>
      <trkpt lat="43.65231" lon="1.38069">
        <ele>141</ele>
        <time>2024-03-27T17:17:58Z</time>
      </trkpt>
      <trkpt lat="43.65232" lon="1.38072">
        <ele>141</ele>
        <time>2024-03-27T17:17:59Z</time>
      </trkpt>
      <trkpt lat="43.65233" lon="1.38077">
        <ele>141</ele>
        <time>2024-03-27T17:18:00Z</time>
      </trkpt>
      <trkpt lat="43.65234" lon="1.38079">
        <ele>141</ele>
        <time>2024-03-27T17:18:01Z</time>
      </trkpt>
      <trkpt lat="43.65236" lon="1.38085">
        <ele>141</ele>
        <time>2024-03-27T17:18:02Z</time>
      </trkpt>
      <trkpt lat="43.65236" lon="1.38085">
        <ele>141</ele>
        <time>2024-03-27T17:18:03Z</time>
      </trkpt>
      <trkpt lat="43.65237" lon="1.38088">
        <ele>141</ele>
        <time>2024-03-27T17:18:04Z</time>
      </trkpt>
      <trkpt lat="43.65239" lon="1.38092">
        <ele>141</ele>
        <time>2024-03-27T17:18:05Z</time>
      </trkpt>
      <trkpt lat="43.6524" lon="1.38097">
        <ele>141</ele>
        <time>2024-03-27T17:18:06Z</time>
      </trkpt>
      <trkpt lat="43.65241" lon="1.38099">
        <ele>141</ele>
        <time>2024-03-27T17:18:07Z</time>
      </trkpt>
      <trkpt lat="43.65242" lon="1.38102">
        <ele>140</ele>
        <time>2024-03-27T17:18:08Z</time>
      </trkpt>
      <trkpt lat="43.65242" lon="1.38105">
        <ele>140</ele>
        <time>2024-03-27T17:18:09Z</time>
      </trkpt>
      <trkpt lat="43.65243" lon="1.38108">
        <ele>140</ele>
        <time>2024-03-27T17:18:10Z</time>
      </trkpt>
      <trkpt lat="43.65244" lon="1.38111">
        <ele>140</ele>
        <time>2024-03-27T17:18:11Z</time>
      </trkpt>
      <trkpt lat="43.65244" lon="1.38115">
        <ele>140</ele>
        <time>2024-03-27T17:18:12Z</time>
      </trkpt>
      <trkpt lat="43.65245" lon="1.38118">
        <ele>140</ele>
        <time>2024-03-27T17:18:13Z</time>
      </trkpt>
      <trkpt lat="43.65246" lon="1.38122">
        <ele>140</ele>
        <time>2024-03-27T17:18:14Z</time>
      </trkpt>
      <trkpt lat="43.65246" lon="1.38125">
        <ele>140</ele>
        <time>2024-03-27T17:18:15Z</time>
      </trkpt>
      <trkpt lat="43.65245" lon="1.38129">
        <ele>140</ele>
        <time>2024-03-27T17:18:16Z</time>
      </trkpt>
      <trkpt lat="43.65242" lon="1.38133">
        <ele>140</ele>
        <time>2024-03-27T17:18:17Z</time>
      </trkpt>
      <trkpt lat="43.65241" lon="1.38134">
        <ele>140</ele>
        <time>2024-03-27T17:18:18Z</time>
      </trkpt>
      <trkpt lat="43.65239" lon="1.38136">
        <ele>140</ele>
        <time>2024-03-27T17:18:19Z</time>
      </trkpt>
      <trkpt lat="43.65236" lon="1.38138">
        <ele>140</ele>
        <time>2024-03-27T17:18:20Z</time>
      </trkpt>
      <trkpt lat="43.65231" lon="1.38142">
        <ele>140</ele>
        <time>2024-03-27T17:18:21Z</time>
      </trkpt>
      <trkpt lat="43.65231" lon="1.38142">
        <ele>140</ele>
        <time>2024-03-27T17:18:22Z</time>
      </trkpt>
      <trkpt lat="43.65229" lon="1.38143">
        <ele>140</ele>
        <time>2024-03-27T17:18:23Z</time>
      </trkpt>
      <trkpt lat="43.65226" lon="1.38145">
        <ele>140</ele>
        <time>2024-03-27T17:18:24Z</time>
      </trkpt>
      <trkpt lat="43.65224" lon="1.38146">
        <ele>140</ele>
        <time>2024-03-27T17:18:25Z</time>
      </trkpt>
      <trkpt lat="43.65222" lon="1.38148">
        <ele>139</ele>
        <time>2024-03-27T17:18:26Z</time>
      </trkpt>
      <trkpt lat="43.65219" lon="1.38149">
        <ele>140</ele>
        <time>2024-03-27T17:18:27Z</time>
      </trkpt>
      <trkpt lat="43.65216" lon="1.38151">
        <ele>140</ele>
        <time>2024-03-27T17:18:28Z</time>
      </trkpt>
      <trkpt lat="43.65214" lon="1.38153">
        <ele>139</ele>
        <time>2024-03-27T17:18:29Z</time>
      </trkpt>
      <trkpt lat="43.6521" lon="1.38155">
        <ele>139</ele>
        <time>2024-03-27T17:18:30Z</time>
      </trkpt>
      <trkpt lat="43.65209" lon="1.38156">
        <ele>139</ele>
        <time>2024-03-27T17:18:31Z</time>
      </trkpt>
      <trkpt lat="43.65206" lon="1.38158">
        <ele>139</ele>
        <time>2024-03-27T17:18:32Z</time>
      </trkpt>
      <trkpt lat="43.65204" lon="1.38161">
        <ele>139</ele>
        <time>2024-03-27T17:18:33Z</time>
      </trkpt>
      <trkpt lat="43.65202" lon="1.38163">
        <ele>139</ele>
        <time>2024-03-27T17:18:34Z</time>
      </trkpt>
      <trkpt lat="43.65199" lon="1.38165">
        <ele>139</ele>
        <time>2024-03-27T17:18:35Z</time>
      </trkpt>
      <trkpt lat="43.65197" lon="1.38168">
        <ele>139</ele>
        <time>2024-03-27T17:18:36Z</time>
      </trkpt>
      <trkpt lat="43.65194" lon="1.38171">
        <ele>139</ele>
        <time>2024-03-27T17:18:37Z</time>
      </trkpt>
      <trkpt lat="43.65193" lon="1.38173">
        <ele>139</ele>
        <time>2024-03-27T17:18:38Z</time>
      </trkpt>
      <trkpt lat="43.65191" lon="1.38175">
        <ele>140</ele>
        <time>2024-03-27T17:18:39Z</time>
      </trkpt>
      <trkpt lat="43.65186" lon="1.3818">
        <ele>140</ele>
        <time>2024-03-27T17:18:40Z</time>
      </trkpt>
      <trkpt lat="43.65186" lon="1.3818">
        <ele>140</ele>
        <time>2024-03-27T17:18:41Z</time>
      </trkpt>
      <trkpt lat="43.65184" lon="1.38182">
        <ele>140</ele>
        <time>2024-03-27T17:18:42Z</time>
      </trkpt>
      <trkpt lat="43.65182" lon="1.38184">
        <ele>140</ele>
        <time>2024-03-27T17:18:43Z</time>
      </trkpt>
      <trkpt lat="43.6518" lon="1.38187">
        <ele>140</ele>
        <time>2024-03-27T17:18:44Z</time>
      </trkpt>
      <trkpt lat="43.65177" lon="1.38189">
        <ele>140</ele>
        <time>2024-03-27T17:18:45Z</time>
      </trkpt>
      <trkpt lat="43.65172" lon="1.38193">
        <ele>139</ele>
        <time>2024-03-27T17:18:46Z</time>
      </trkpt>
      <trkpt lat="43.65172" lon="1.38193">
        <ele>139</ele>
        <time>2024-03-27T17:18:47Z</time>
      </trkpt>
      <trkpt lat="43.6517" lon="1.38196">
        <ele>138</ele>
        <time>2024-03-27T17:18:48Z</time>
      </trkpt>
      <trkpt lat="43.65168" lon="1.382">
        <ele>138</ele>
        <time>2024-03-27T17:18:49Z</time>
      </trkpt>
      <trkpt lat="43.65167" lon="1.38202">
        <ele>139</ele>
        <time>2024-03-27T17:18:50Z</time>
      </trkpt>
      <trkpt lat="43.65166" lon="1.38205">
        <ele>139</ele>
        <time>2024-03-27T17:18:51Z</time>
      </trkpt>
      <trkpt lat="43.65166" lon="1.38209">
        <ele>139</ele>
        <time>2024-03-27T17:18:52Z</time>
      </trkpt>
      <trkpt lat="43.65166" lon="1.38215">
        <ele>139</ele>
        <time>2024-03-27T17:18:53Z</time>
      </trkpt>
      <trkpt lat="43.65166" lon="1.38216">
        <ele>139</ele>
        <time>2024-03-27T17:18:54Z</time>
      </trkpt>
      <trkpt lat="43.65166" lon="1.3822">
        <ele>139</ele>
        <time>2024-03-27T17:18:55Z</time>
      </trkpt>
      <trkpt lat="43.65167" lon="1.38224">
        <ele>139</ele>
        <time>2024-03-27T17:18:56Z</time>
      </trkpt>
      <trkpt lat="43.65167" lon="1.38228">
        <ele>139</ele>
        <time>2024-03-27T17:18:57Z</time>
      </trkpt>
      <trkpt lat="43.65167" lon="1.38231">
        <ele>139</ele>
        <time>2024-03-27T17:18:58Z</time>
      </trkpt>
      <trkpt lat="43.65168" lon="1.38239">
        <ele>139</ele>
        <time>2024-03-27T17:18:59Z</time>
      </trkpt>
      <trkpt lat="43.65168" lon="1.38239">
        <ele>139</ele>
        <time>2024-03-27T17:19:00Z</time>
      </trkpt>
      <trkpt lat="43.65169" lon="1.38246">
        <ele>139</ele>
        <time>2024-03-27T17:19:01Z</time>
      </trkpt>
      <trkpt lat="43.65169" lon="1.38246">
        <ele>139</ele>
        <time>2024-03-27T17:19:02Z</time>
      </trkpt>
      <trkpt lat="43.6517" lon="1.3825">
        <ele>139</ele>
        <time>2024-03-27T17:19:03Z</time>
      </trkpt>
      <trkpt lat="43.65171" lon="1.38253">
        <ele>139</ele>
        <time>2024-03-27T17:19:04Z</time>
      </trkpt>
      <trkpt lat="43.65172" lon="1.38257">
        <ele>139</ele>
        <time>2024-03-27T17:19:05Z</time>
      </trkpt>
      <trkpt lat="43.65173" lon="1.38261">
        <ele>139</ele>
        <time>2024-03-27T17:19:06Z</time>
      </trkpt>
      <trkpt lat="43.65173" lon="1.38264">
        <ele>139</ele>
        <time>2024-03-27T17:19:07Z</time>
      </trkpt>
      <trkpt lat="43.65174" lon="1.38268">
        <ele>139</ele>
        <time>2024-03-27T17:19:08Z</time>
      </trkpt>
      <trkpt lat="43.65175" lon="1.38272">
        <ele>139</ele>
        <time>2024-03-27T17:19:09Z</time>
      </trkpt>
      <trkpt lat="43.65176" lon="1.38275">
        <ele>139</ele>
        <time>2024-03-27T17:19:10Z</time>
      </trkpt>
      <trkpt lat="43.65177" lon="1.38279">
        <ele>138</ele>
        <time>2024-03-27T17:19:11Z</time>
      </trkpt>
      <trkpt lat="43.65177" lon="1.38283">
        <ele>138</ele>
        <time>2024-03-27T17:19:12Z</time>
      </trkpt>
      <trkpt lat="43.65178" lon="1.38286">
        <ele>138</ele>
        <time>2024-03-27T17:19:13Z</time>
      </trkpt>
      <trkpt lat="43.65179" lon="1.3829">
        <ele>138</ele>
        <time>2024-03-27T17:19:14Z</time>
      </trkpt>
      <trkpt lat="43.6518" lon="1.38294">
        <ele>138</ele>
        <time>2024-03-27T17:19:15Z</time>
      </trkpt>
      <trkpt lat="43.65181" lon="1.38298">
        <ele>138</ele>
        <time>2024-03-27T17:19:16Z</time>
      </trkpt>
      <trkpt lat="43.65182" lon="1.38301">
        <ele>138</ele>
        <time>2024-03-27T17:19:17Z</time>
      </trkpt>
      <trkpt lat="43.65184" lon="1.38308">
        <ele>138</ele>
        <time>2024-03-27T17:19:18Z</time>
      </trkpt>
      <trkpt lat="43.65184" lon="1.38308">
        <ele>138</ele>
        <time>2024-03-27T17:19:19Z</time>
      </trkpt>
      <trkpt lat="43.65184" lon="1.38312">
        <ele>138</ele>
        <time>2024-03-27T17:19:20Z</time>
      </trkpt>
      <trkpt lat="43.65185" lon="1.38316">
        <ele>138</ele>
        <time>2024-03-27T17:19:21Z</time>
      </trkpt>
      <trkpt lat="43.65185" lon="1.38319">
        <ele>138</ele>
        <time>2024-03-27T17:19:22Z</time>
      </trkpt>
      <trkpt lat="43.65186" lon="1.38323">
        <ele>138</ele>
        <time>2024-03-27T17:19:23Z</time>
      </trkpt>
      <trkpt lat="43.65186" lon="1.38328">
        <ele>138</ele>
        <time>2024-03-27T17:19:24Z</time>
      </trkpt>
      <trkpt lat="43.65187" lon="1.3833">
        <ele>138</ele>
        <time>2024-03-27T17:19:25Z</time>
      </trkpt>
      <trkpt lat="43.65187" lon="1.38334">
        <ele>138</ele>
        <time>2024-03-27T17:19:26Z</time>
      </trkpt>
      <trkpt lat="43.65188" lon="1.38338">
        <ele>138</ele>
        <time>2024-03-27T17:19:27Z</time>
      </trkpt>
      <trkpt lat="43.65188" lon="1.38342">
        <ele>138</ele>
        <time>2024-03-27T17:19:28Z</time>
      </trkpt>
      <trkpt lat="43.65189" lon="1.38345">
        <ele>138</ele>
        <time>2024-03-27T17:19:29Z</time>
      </trkpt>
      <trkpt lat="43.6519" lon="1.38349">
        <ele>138</ele>
        <time>2024-03-27T17:19:30Z</time>
      </trkpt>
      <trkpt lat="43.6519" lon="1.38353">
        <ele>138</ele>
        <time>2024-03-27T17:19:31Z</time>
      </trkpt>
      <trkpt lat="43.65191" lon="1.38357">
        <ele>139</ele>
        <time>2024-03-27T17:19:32Z</time>
      </trkpt>
      <trkpt lat="43.65192" lon="1.38362">
        <ele>139</ele>
        <time>2024-03-27T17:19:33Z</time>
      </trkpt>
      <trkpt lat="43.65192" lon="1.38364">
        <ele>139</ele>
        <time>2024-03-27T17:19:34Z</time>
      </trkpt>
      <trkpt lat="43.65192" lon="1.38368">
        <ele>139</ele>
        <time>2024-03-27T17:19:35Z</time>
      </trkpt>
      <trkpt lat="43.65193" lon="1.38373">
        <ele>139</ele>
        <time>2024-03-27T17:19:36Z</time>
      </trkpt>
      <trkpt lat="43.65193" lon="1.38375">
        <ele>139</ele>
        <time>2024-03-27T17:19:37Z</time>
      </trkpt>
      <trkpt lat="43.65194" lon="1.38379">
        <ele>139</ele>
        <time>2024-03-27T17:19:38Z</time>
      </trkpt>
      <trkpt lat="43.65195" lon="1.38385">
        <ele>139</ele>
        <time>2024-03-27T17:19:39Z</time>
      </trkpt>
      <trkpt lat="43.65195" lon="1.38387">
        <ele>139</ele>
        <time>2024-03-27T17:19:40Z</time>
      </trkpt>
      <trkpt lat="43.65196" lon="1.38391">
        <ele>139</ele>
        <time>2024-03-27T17:19:41Z</time>
      </trkpt>
      <trkpt lat="43.65197" lon="1.38394">
        <ele>138</ele>
        <time>2024-03-27T17:19:42Z</time>
      </trkpt>
      <trkpt lat="43.65199" lon="1.38398">
        <ele>138</ele>
        <time>2024-03-27T17:19:43Z</time>
      </trkpt>
      <trkpt lat="43.65201" lon="1.38401">
        <ele>138</ele>
        <time>2024-03-27T17:19:44Z</time>
      </trkpt>
      <trkpt lat="43.65203" lon="1.38403">
        <ele>138</ele>
        <time>2024-03-27T17:19:45Z</time>
      </trkpt>
      <trkpt lat="43.65206" lon="1.38408">
        <ele>138</ele>
        <time>2024-03-27T17:19:46Z</time>
      </trkpt>
      <trkpt lat="43.65206" lon="1.38409">
        <ele>138</ele>
        <time>2024-03-27T17:19:47Z</time>
      </trkpt>
      <trkpt lat="43.65208" lon="1.38412">
        <ele>138</ele>
        <time>2024-03-27T17:19:48Z</time>
      </trkpt>
      <trkpt lat="43.6521" lon="1.38415">
        <ele>137</ele>
        <time>2024-03-27T17:19:49Z</time>
      </trkpt>
      <trkpt lat="43.65211" lon="1.38417">
        <ele>137</ele>
        <time>2024-03-27T17:19:50Z</time>
      </trkpt>
      <trkpt lat="43.65213" lon="1.38421">
        <ele>137</ele>
        <time>2024-03-27T17:19:51Z</time>
      </trkpt>
      <trkpt lat="43.65214" lon="1.38423">
        <ele>137</ele>
        <time>2024-03-27T17:19:52Z</time>
      </trkpt>
      <trkpt lat="43.65215" lon="1.38426">
        <ele>137</ele>
        <time>2024-03-27T17:19:53Z</time>
      </trkpt>
      <trkpt lat="43.65216" lon="1.38429">
        <ele>137</ele>
        <time>2024-03-27T17:19:54Z</time>
      </trkpt>
      <trkpt lat="43.65217" lon="1.38431">
        <ele>136</ele>
        <time>2024-03-27T17:19:55Z</time>
      </trkpt>
      <trkpt lat="43.65218" lon="1.38434">
        <ele>136</ele>
        <time>2024-03-27T17:19:56Z</time>
      </trkpt>
      <trkpt lat="43.65219" lon="1.38437">
        <ele>136</ele>
        <time>2024-03-27T17:19:57Z</time>
      </trkpt>
      <trkpt lat="43.6522" lon="1.3844">
        <ele>136</ele>
        <time>2024-03-27T17:19:58Z</time>
      </trkpt>
      <trkpt lat="43.65221" lon="1.38444">
        <ele>136</ele>
        <time>2024-03-27T17:19:59Z</time>
      </trkpt>
      <trkpt lat="43.65222" lon="1.38447">
        <ele>136</ele>
        <time>2024-03-27T17:20:00Z</time>
      </trkpt>
      <trkpt lat="43.65223" lon="1.3845">
        <ele>135</ele>
        <time>2024-03-27T17:20:01Z</time>
      </trkpt>
      <trkpt lat="43.65224" lon="1.38453">
        <ele>136</ele>
        <time>2024-03-27T17:20:02Z</time>
      </trkpt>
      <trkpt lat="43.65226" lon="1.38456">
        <ele>136</ele>
        <time>2024-03-27T17:20:03Z</time>
      </trkpt>
      <trkpt lat="43.65227" lon="1.38459">
        <ele>136</ele>
        <time>2024-03-27T17:20:04Z</time>
      </trkpt>
      <trkpt lat="43.65228" lon="1.38463">
        <ele>136</ele>
        <time>2024-03-27T17:20:05Z</time>
      </trkpt>
      <trkpt lat="43.65229" lon="1.38465">
        <ele>136</ele>
        <time>2024-03-27T17:20:06Z</time>
      </trkpt>
      <trkpt lat="43.6523" lon="1.38468">
        <ele>136</ele>
        <time>2024-03-27T17:20:07Z</time>
      </trkpt>
      <trkpt lat="43.65231" lon="1.38471">
        <ele>136</ele>
        <time>2024-03-27T17:20:08Z</time>
      </trkpt>
      <trkpt lat="43.65233" lon="1.38475">
        <ele>135</ele>
        <time>2024-03-27T17:20:09Z</time>
      </trkpt>
      <trkpt lat="43.65233" lon="1.38478">
        <ele>135</ele>
        <time>2024-03-27T17:20:10Z</time>
      </trkpt>
      <trkpt lat="43.65234" lon="1.38482">
        <ele>135</ele>
        <time>2024-03-27T17:20:11Z</time>
      </trkpt>
      <trkpt lat="43.65236" lon="1.38487">
        <ele>136</ele>
        <time>2024-03-27T17:20:12Z</time>
      </trkpt>
      <trkpt lat="43.65236" lon="1.38488">
        <ele>136</ele>
        <time>2024-03-27T17:20:13Z</time>
      </trkpt>
      <trkpt lat="43.65237" lon="1.38491">
        <ele>136</ele>
        <time>2024-03-27T17:20:14Z</time>
      </trkpt>
      <trkpt lat="43.65239" lon="1.38498">
        <ele>136</ele>
        <time>2024-03-27T17:20:15Z</time>
      </trkpt>
      <trkpt lat="43.65239" lon="1.38498">
        <ele>135</ele>
        <time>2024-03-27T17:20:16Z</time>
      </trkpt>
      <trkpt lat="43.65241" lon="1.38503">
        <ele>135</ele>
        <time>2024-03-27T17:20:17Z</time>
      </trkpt>
      <trkpt lat="43.65241" lon="1.38505">
        <ele>135</ele>
        <time>2024-03-27T17:20:18Z</time>
      </trkpt>
      <trkpt lat="43.65243" lon="1.38511">
        <ele>135</ele>
        <time>2024-03-27T17:20:19Z</time>
      </trkpt>
      <trkpt lat="43.65243" lon="1.38513">
        <ele>135</ele>
        <time>2024-03-27T17:20:20Z</time>
      </trkpt>
      <trkpt lat="43.65246" lon="1.38519">
        <ele>135</ele>
        <time>2024-03-27T17:20:21Z</time>
      </trkpt>
      <trkpt lat="43.65246" lon="1.38519">
        <ele>135</ele>
        <time>2024-03-27T17:20:22Z</time>
      </trkpt>
      <trkpt lat="43.65247" lon="1.38522">
        <ele>135</ele>
        <time>2024-03-27T17:20:23Z</time>
      </trkpt>
      <trkpt lat="43.65247" lon="1.38525">
        <ele>135</ele>
        <time>2024-03-27T17:20:24Z</time>
      </trkpt>
      <trkpt lat="43.65248" lon="1.38528">
        <ele>135</ele>
        <time>2024-03-27T17:20:25Z</time>
      </trkpt>
      <trkpt lat="43.65249" lon="1.38531">
        <ele>135</ele>
        <time>2024-03-27T17:20:26Z</time>
      </trkpt>
      <trkpt lat="43.65251" lon="1.38535">
        <ele>135</ele>
        <time>2024-03-27T17:20:27Z</time>
      </trkpt>
      <trkpt lat="43.65253" lon="1.3854">
        <ele>135</ele>
        <time>2024-03-27T17:20:28Z</time>
      </trkpt>
      <trkpt lat="43.65254" lon="1.38542">
        <ele>135</ele>
        <time>2024-03-27T17:20:29Z</time>
      </trkpt>
      <trkpt lat="43.65255" lon="1.38546">
        <ele>135</ele>
        <time>2024-03-27T17:20:30Z</time>
      </trkpt>
      <trkpt lat="43.65256" lon="1.38549">
        <ele>135</ele>
        <time>2024-03-27T17:20:31Z</time>
      </trkpt>
      <trkpt lat="43.65258" lon="1.38553">
        <ele>135</ele>
        <time>2024-03-27T17:20:32Z</time>
      </trkpt>
      <trkpt lat="43.65259" lon="1.38557">
        <ele>135</ele>
        <time>2024-03-27T17:20:33Z</time>
      </trkpt>
      <trkpt lat="43.6526" lon="1.38565">
        <ele>135</ele>
        <time>2024-03-27T17:20:34Z</time>
      </trkpt>
      <trkpt lat="43.6526" lon="1.38565">
        <ele>135</ele>
        <time>2024-03-27T17:20:35Z</time>
      </trkpt>
      <trkpt lat="43.65261" lon="1.38568">
        <ele>135</ele>
        <time>2024-03-27T17:20:36Z</time>
      </trkpt>
      <trkpt lat="43.65261" lon="1.38571">
        <ele>135</ele>
        <time>2024-03-27T17:20:37Z</time>
      </trkpt>
      <trkpt lat="43.65262" lon="1.38574">
        <ele>135</ele>
        <time>2024-03-27T17:20:38Z</time>
      </trkpt>
      <trkpt lat="43.65262" lon="1.38574">
        <ele>135</ele>
        <time>2024-03-27T17:20:39Z</time>
      </trkpt>
      <trkpt lat="43.65263" lon="1.38579">
        <ele>135</ele>
        <time>2024-03-27T17:20:40Z</time>
      </trkpt>
      <trkpt lat="43.65265" lon="1.38583">
        <ele>135</ele>
        <time>2024-03-27T17:20:41Z</time>
      </trkpt>
      <trkpt lat="43.65267" lon="1.38589">
        <ele>135</ele>
        <time>2024-03-27T17:20:42Z</time>
      </trkpt>
      <trkpt lat="43.65267" lon="1.38591">
        <ele>135</ele>
        <time>2024-03-27T17:20:43Z</time>
      </trkpt>
      <trkpt lat="43.65269" lon="1.38595">
        <ele>135</ele>
        <time>2024-03-27T17:20:44Z</time>
      </trkpt>
      <trkpt lat="43.65271" lon="1.38599">
        <ele>135</ele>
        <time>2024-03-27T17:20:45Z</time>
      </trkpt>
      <trkpt lat="43.65272" lon="1.386">
        <ele>135</ele>
        <time>2024-03-27T17:20:46Z</time>
      </trkpt>
      <trkpt lat="43.65273" lon="1.38603">
        <ele>135</ele>
        <time>2024-03-27T17:20:47Z</time>
      </trkpt>
      <trkpt lat="43.65275" lon="1.38606">
        <ele>135</ele>
        <time>2024-03-27T17:20:48Z</time>
      </trkpt>
      <trkpt lat="43.65277" lon="1.38609">
        <ele>135</ele>
        <time>2024-03-27T17:20:49Z</time>
      </trkpt>
      <trkpt lat="43.65277" lon="1.38611">
        <ele>135</ele>
        <time>2024-03-27T17:20:50Z</time>
      </trkpt>
      <trkpt lat="43.65279" lon="1.38614">
        <ele>135</ele>
        <time>2024-03-27T17:20:51Z</time>
      </trkpt>
      <trkpt lat="43.65282" lon="1.38618">
        <ele>136</ele>
        <time>2024-03-27T17:20:52Z</time>
      </trkpt>
      <trkpt lat="43.65283" lon="1.38619">
        <ele>136</ele>
        <time>2024-03-27T17:20:53Z</time>
      </trkpt>
      <trkpt lat="43.65285" lon="1.38622">
        <ele>136</ele>
        <time>2024-03-27T17:20:54Z</time>
      </trkpt>
      <trkpt lat="43.65287" lon="1.38625">
        <ele>136</ele>
        <time>2024-03-27T17:20:55Z</time>
      </trkpt>
      <trkpt lat="43.65289" lon="1.38628">
        <ele>136</ele>
        <time>2024-03-27T17:20:56Z</time>
      </trkpt>
      <trkpt lat="43.65291" lon="1.38633">
        <ele>136</ele>
        <time>2024-03-27T17:20:57Z</time>
      </trkpt>
      <trkpt lat="43.65292" lon="1.38635">
        <ele>136</ele>
        <time>2024-03-27T17:20:58Z</time>
      </trkpt>
      <trkpt lat="43.65294" lon="1.38638">
        <ele>136</ele>
        <time>2024-03-27T17:20:59Z</time>
      </trkpt>
      <trkpt lat="43.65295" lon="1.38641">
        <ele>136</ele>
        <time>2024-03-27T17:21:00Z</time>
      </trkpt>
      <trkpt lat="43.65296" lon="1.38644">
        <ele>136</ele>
        <time>2024-03-27T17:21:01Z</time>
      </trkpt>
      <trkpt lat="43.65297" lon="1.38648">
        <ele>136</ele>
        <time>2024-03-27T17:21:02Z</time>
      </trkpt>
      <trkpt lat="43.65298" lon="1.38651">
        <ele>136</ele>
        <time>2024-03-27T17:21:03Z</time>
      </trkpt>
      <trkpt lat="43.65299" lon="1.38655">
        <ele>136</ele>
        <time>2024-03-27T17:21:04Z</time>
      </trkpt>
      <trkpt lat="43.65301" lon="1.38659">
        <ele>136</ele>
        <time>2024-03-27T17:21:05Z</time>
      </trkpt>
      <trkpt lat="43.65302" lon="1.38663">
        <ele>135</ele>
        <time>2024-03-27T17:21:06Z</time>
      </trkpt>
      <trkpt lat="43.65304" lon="1.38668">
        <ele>135</ele>
        <time>2024-03-27T17:21:07Z</time>
      </trkpt>
      <trkpt lat="43.65304" lon="1.3867">
        <ele>135</ele>
        <time>2024-03-27T17:21:08Z</time>
      </trkpt>
      <trkpt lat="43.65306" lon="1.38673">
        <ele>135</ele>
        <time>2024-03-27T17:21:09Z</time>
      </trkpt>
      <trkpt lat="43.65307" lon="1.38676">
        <ele>135</ele>
        <time>2024-03-27T17:21:10Z</time>
      </trkpt>
      <trkpt lat="43.65308" lon="1.38679">
        <ele>135</ele>
        <time>2024-03-27T17:21:11Z</time>
      </trkpt>
      <trkpt lat="43.65309" lon="1.38682">
        <ele>135</ele>
        <time>2024-03-27T17:21:12Z</time>
      </trkpt>
      <trkpt lat="43.65309" lon="1.38686">
        <ele>135</ele>
        <time>2024-03-27T17:21:13Z</time>
      </trkpt>
      <trkpt lat="43.6531" lon="1.38688">
        <ele>135</ele>
        <time>2024-03-27T17:21:14Z</time>
      </trkpt>
      <trkpt lat="43.65311" lon="1.38692">
        <ele>135</ele>
        <time>2024-03-27T17:21:15Z</time>
      </trkpt>
      <trkpt lat="43.65311" lon="1.38694">
        <ele>135</ele>
        <time>2024-03-27T17:21:16Z</time>
      </trkpt>
      <trkpt lat="43.65312" lon="1.38697">
        <ele>135</ele>
        <time>2024-03-27T17:21:17Z</time>
      </trkpt>
      <trkpt lat="43.65313" lon="1.38699">
        <ele>135</ele>
        <time>2024-03-27T17:21:18Z</time>
      </trkpt>
      <trkpt lat="43.65313" lon="1.38702">
        <ele>135</ele>
        <time>2024-03-27T17:21:19Z</time>
      </trkpt>
      <trkpt lat="43.65313" lon="1.38706">
        <ele>135</ele>
        <time>2024-03-27T17:21:20Z</time>
      </trkpt>
      <trkpt lat="43.65314" lon="1.38709">
        <ele>135</ele>
        <time>2024-03-27T17:21:21Z</time>
      </trkpt>
      <trkpt lat="43.65316" lon="1.38712">
        <ele>135</ele>
        <time>2024-03-27T17:21:22Z</time>
      </trkpt>
      <trkpt lat="43.65317" lon="1.38716">
        <ele>135</ele>
        <time>2024-03-27T17:21:23Z</time>
      </trkpt>
      <trkpt lat="43.65318" lon="1.38719">
        <ele>135</ele>
        <time>2024-03-27T17:21:24Z</time>
      </trkpt>
      <trkpt lat="43.6532" lon="1.38725">
        <ele>135</ele>
        <time>2024-03-27T17:21:25Z</time>
      </trkpt>
      <trkpt lat="43.65321" lon="1.38727">
        <ele>136</ele>
        <time>2024-03-27T17:21:26Z</time>
      </trkpt>
      <trkpt lat="43.65322" lon="1.3873">
        <ele>136</ele>
        <time>2024-03-27T17:21:27Z</time>
      </trkpt>
      <trkpt lat="43.65323" lon="1.38734">
        <ele>136</ele>
        <time>2024-03-27T17:21:28Z</time>
      </trkpt>
      <trkpt lat="43.65324" lon="1.38739">
        <ele>136</ele>
        <time>2024-03-27T17:21:29Z</time>
      </trkpt>
      <trkpt lat="43.65325" lon="1.38741">
        <ele>136</ele>
        <time>2024-03-27T17:21:30Z</time>
      </trkpt>
      <trkpt lat="43.65327" lon="1.38748">
        <ele>136</ele>
        <time>2024-03-27T17:21:31Z</time>
      </trkpt>
      <trkpt lat="43.65327" lon="1.38748">
        <ele>135</ele>
        <time>2024-03-27T17:21:32Z</time>
      </trkpt>
      <trkpt lat="43.65327" lon="1.38752">
        <ele>135</ele>
        <time>2024-03-27T17:21:33Z</time>
      </trkpt>
      <trkpt lat="43.65328" lon="1.38755">
        <ele>135</ele>
        <time>2024-03-27T17:21:34Z</time>
      </trkpt>
      <trkpt lat="43.65328" lon="1.38759">
        <ele>136</ele>
        <time>2024-03-27T17:21:35Z</time>
      </trkpt>
      <trkpt lat="43.65329" lon="1.38763">
        <ele>136</ele>
        <time>2024-03-27T17:21:36Z</time>
      </trkpt>
      <trkpt lat="43.6533" lon="1.38767">
        <ele>137</ele>
        <time>2024-03-27T17:21:37Z</time>
      </trkpt>
      <trkpt lat="43.65331" lon="1.38771">
        <ele>137</ele>
        <time>2024-03-27T17:21:38Z</time>
      </trkpt>
      <trkpt lat="43.65331" lon="1.38774">
        <ele>137</ele>
        <time>2024-03-27T17:21:39Z</time>
      </trkpt>
      <trkpt lat="43.65332" lon="1.38777">
        <ele>137</ele>
        <time>2024-03-27T17:21:40Z</time>
      </trkpt>
      <trkpt lat="43.65333" lon="1.3878">
        <ele>137</ele>
        <time>2024-03-27T17:21:41Z</time>
      </trkpt>
      <trkpt lat="43.65334" lon="1.38785">
        <ele>137</ele>
        <time>2024-03-27T17:21:42Z</time>
      </trkpt>
      <trkpt lat="43.65335" lon="1.38787">
        <ele>137</ele>
        <time>2024-03-27T17:21:43Z</time>
      </trkpt>
      <trkpt lat="43.65336" lon="1.3879">
        <ele>137</ele>
        <time>2024-03-27T17:21:44Z</time>
      </trkpt>
      <trkpt lat="43.65337" lon="1.38793">
        <ele>137</ele>
        <time>2024-03-27T17:21:45Z</time>
      </trkpt>
      <trkpt lat="43.65338" lon="1.38796">
        <ele>137</ele>
        <time>2024-03-27T17:21:46Z</time>
      </trkpt>
      <trkpt lat="43.65339" lon="1.38799">
        <ele>137</ele>
        <time>2024-03-27T17:21:47Z</time>
      </trkpt>
      <trkpt lat="43.6534" lon="1.38803">
        <ele>137</ele>
        <time>2024-03-27T17:21:48Z</time>
      </trkpt>
      <trkpt lat="43.65342" lon="1.38805">
        <ele>137</ele>
        <time>2024-03-27T17:21:49Z</time>
      </trkpt>
      <trkpt lat="43.65345" lon="1.38811">
        <ele>137</ele>
        <time>2024-03-27T17:21:50Z</time>
      </trkpt>
      <trkpt lat="43.65345" lon="1.38811">
        <ele>137</ele>
        <time>2024-03-27T17:21:51Z</time>
      </trkpt>
      <trkpt lat="43.65347" lon="1.38814">
        <ele>137</ele>
        <time>2024-03-27T17:21:52Z</time>
      </trkpt>
      <trkpt lat="43.65349" lon="1.38817">
        <ele>137</ele>
        <time>2024-03-27T17:21:53Z</time>
      </trkpt>
      <trkpt lat="43.65352" lon="1.38822">
        <ele>137</ele>
        <time>2024-03-27T17:21:54Z</time>
      </trkpt>
      <trkpt lat="43.65352" lon="1.38824">
        <ele>137</ele>
        <time>2024-03-27T17:21:55Z</time>
      </trkpt>
      <trkpt lat="43.65354" lon="1.38827">
        <ele>137</ele>
        <time>2024-03-27T17:21:56Z</time>
      </trkpt>
      <trkpt lat="43.65356" lon="1.38829">
        <ele>137</ele>
        <time>2024-03-27T17:21:57Z</time>
      </trkpt>
      <trkpt lat="43.65358" lon="1.38832">
        <ele>137</ele>
        <time>2024-03-27T17:21:58Z</time>
      </trkpt>
      <trkpt lat="43.6536" lon="1.38834">
        <ele>137</ele>
        <time>2024-03-27T17:21:59Z</time>
      </trkpt>
      <trkpt lat="43.65362" lon="1.38837">
        <ele>137</ele>
        <time>2024-03-27T17:22:00Z</time>
      </trkpt>
      <trkpt lat="43.65364" lon="1.38839">
        <ele>136</ele>
        <time>2024-03-27T17:22:01Z</time>
      </trkpt>
      <trkpt lat="43.65366" lon="1.38841">
        <ele>136</ele>
        <time>2024-03-27T17:22:02Z</time>
      </trkpt>
      <trkpt lat="43.65368" lon="1.38843">
        <ele>136</ele>
        <time>2024-03-27T17:22:03Z</time>
      </trkpt>
      <trkpt lat="43.6537" lon="1.38844">
        <ele>136</ele>
        <time>2024-03-27T17:22:04Z</time>
      </trkpt>
      <trkpt lat="43.65374" lon="1.38846">
        <ele>136</ele>
        <time>2024-03-27T17:22:05Z</time>
      </trkpt>
      <trkpt lat="43.65375" lon="1.38847">
        <ele>136</ele>
        <time>2024-03-27T17:22:06Z</time>
      </trkpt>
      <trkpt lat="43.65377" lon="1.38848">
        <ele>136</ele>
        <time>2024-03-27T17:22:07Z</time>
      </trkpt>
      <trkpt lat="43.65379" lon="1.38848">
        <ele>136</ele>
        <time>2024-03-27T17:22:08Z</time>
      </trkpt>
      <trkpt lat="43.65381" lon="1.38848">
        <ele>135</ele>
        <time>2024-03-27T17:22:09Z</time>
      </trkpt>
      <trkpt lat="43.65381" lon="1.38848">
        <ele>135</ele>
        <time>2024-03-27T17:22:10Z</time>
      </trkpt>
      <trkpt lat="43.65384" lon="1.38848">
        <ele>135</ele>
        <time>2024-03-27T17:22:11Z</time>
      </trkpt>
      <trkpt lat="43.65386" lon="1.38848">
        <ele>135</ele>
        <time>2024-03-27T17:22:12Z</time>
      </trkpt>
      <trkpt lat="43.65389" lon="1.38848">
        <ele>135</ele>
        <time>2024-03-27T17:22:13Z</time>
      </trkpt>
      <trkpt lat="43.65391" lon="1.38848">
        <ele>135</ele>
        <time>2024-03-27T17:22:14Z</time>
      </trkpt>
      <trkpt lat="43.65394" lon="1.38848">
        <ele>135</ele>
        <time>2024-03-27T17:22:15Z</time>
      </trkpt>
      <trkpt lat="43.65396" lon="1.38848">
        <ele>135</ele>
        <time>2024-03-27T17:22:16Z</time>
      </trkpt>
      <trkpt lat="43.65399" lon="1.38849">
        <ele>135</ele>
        <time>2024-03-27T17:22:17Z</time>
      </trkpt>
      <trkpt lat="43.65402" lon="1.3885">
        <ele>135</ele>
        <time>2024-03-27T17:22:18Z</time>
      </trkpt>
      <trkpt lat="43.65405" lon="1.38852">
        <ele>135</ele>
        <time>2024-03-27T17:22:19Z</time>
      </trkpt>
      <trkpt lat="43.65407" lon="1.38856">
        <ele>135</ele>
        <time>2024-03-27T17:22:20Z</time>
      </trkpt>
      <trkpt lat="43.65408" lon="1.38858">
        <ele>135</ele>
        <time>2024-03-27T17:22:21Z</time>
      </trkpt>
      <trkpt lat="43.65409" lon="1.38862">
        <ele>135</ele>
        <time>2024-03-27T17:22:22Z</time>
      </trkpt>
      <trkpt lat="43.6541" lon="1.38866">
        <ele>135</ele>
        <time>2024-03-27T17:22:23Z</time>
      </trkpt>
      <trkpt lat="43.65411" lon="1.38871">
        <ele>135</ele>
        <time>2024-03-27T17:22:24Z</time>
      </trkpt>
      <trkpt lat="43.65413" lon="1.38875">
        <ele>134</ele>
        <time>2024-03-27T17:22:25Z</time>
      </trkpt>
      <trkpt lat="43.65414" lon="1.38878">
        <ele>134</ele>
        <time>2024-03-27T17:22:26Z</time>
      </trkpt>
      <trkpt lat="43.65417" lon="1.38884">
        <ele>134</ele>
        <time>2024-03-27T17:22:27Z</time>
      </trkpt>
      <trkpt lat="43.65418" lon="1.38886">
        <ele>134</ele>
        <time>2024-03-27T17:22:28Z</time>
      </trkpt>
      <trkpt lat="43.65419" lon="1.3889">
        <ele>134</ele>
        <time>2024-03-27T17:22:29Z</time>
      </trkpt>
      <trkpt lat="43.65422" lon="1.38895">
        <ele>134</ele>
        <time>2024-03-27T17:22:30Z</time>
      </trkpt>
      <trkpt lat="43.65423" lon="1.38896">
        <ele>134</ele>
        <time>2024-03-27T17:22:31Z</time>
      </trkpt>
      <trkpt lat="43.65425" lon="1.38899">
        <ele>133</ele>
        <time>2024-03-27T17:22:32Z</time>
      </trkpt>
      <trkpt lat="43.65427" lon="1.38902">
        <ele>132</ele>
        <time>2024-03-27T17:22:33Z</time>
      </trkpt>
      <trkpt lat="43.65429" lon="1.38905">
        <ele>132</ele>
        <time>2024-03-27T17:22:34Z</time>
      </trkpt>
      <trkpt lat="43.65431" lon="1.38908">
        <ele>132</ele>
        <time>2024-03-27T17:22:35Z</time>
      </trkpt>
      <trkpt lat="43.65432" lon="1.38911">
        <ele>132</ele>
        <time>2024-03-27T17:22:36Z</time>
      </trkpt>
      <trkpt lat="43.65434" lon="1.38914">
        <ele>132</ele>
        <time>2024-03-27T17:22:37Z</time>
      </trkpt>
      <trkpt lat="43.65435" lon="1.38917">
        <ele>131</ele>
        <time>2024-03-27T17:22:38Z</time>
      </trkpt>
      <trkpt lat="43.65437" lon="1.3892">
        <ele>130</ele>
        <time>2024-03-27T17:22:39Z</time>
      </trkpt>
      <trkpt lat="43.65439" lon="1.38923">
        <ele>130</ele>
        <time>2024-03-27T17:22:40Z</time>
      </trkpt>
      <trkpt lat="43.6544" lon="1.38926">
        <ele>129</ele>
        <time>2024-03-27T17:22:41Z</time>
      </trkpt>
      <trkpt lat="43.65442" lon="1.3893">
        <ele>129</ele>
        <time>2024-03-27T17:22:42Z</time>
      </trkpt>
      <trkpt lat="43.65444" lon="1.38934">
        <ele>129</ele>
        <time>2024-03-27T17:22:43Z</time>
      </trkpt>
      <trkpt lat="43.65447" lon="1.38939">
        <ele>128</ele>
        <time>2024-03-27T17:22:44Z</time>
      </trkpt>
      <trkpt lat="43.65448" lon="1.38941">
        <ele>127</ele>
        <time>2024-03-27T17:22:45Z</time>
      </trkpt>
      <trkpt lat="43.6545" lon="1.38945">
        <ele>127</ele>
        <time>2024-03-27T17:22:46Z</time>
      </trkpt>
      <trkpt lat="43.65452" lon="1.38949">
        <ele>126</ele>
        <time>2024-03-27T17:22:47Z</time>
      </trkpt>
      <trkpt lat="43.65454" lon="1.38955">
        <ele>125</ele>
        <time>2024-03-27T17:22:48Z</time>
      </trkpt>
      <trkpt lat="43.65455" lon="1.38957">
        <ele>125</ele>
        <time>2024-03-27T17:22:49Z</time>
      </trkpt>
      <trkpt lat="43.65457" lon="1.3896">
        <ele>125</ele>
        <time>2024-03-27T17:22:50Z</time>
      </trkpt>
      <trkpt lat="43.65459" lon="1.38964">
        <ele>124</ele>
        <time>2024-03-27T17:22:51Z</time>
      </trkpt>
      <trkpt lat="43.65461" lon="1.38968">
        <ele>124</ele>
        <time>2024-03-27T17:22:52Z</time>
      </trkpt>
      <trkpt lat="43.65462" lon="1.38972">
        <ele>124</ele>
        <time>2024-03-27T17:22:53Z</time>
      </trkpt>
      <trkpt lat="43.65463" lon="1.38976">
        <ele>124</ele>
        <time>2024-03-27T17:22:54Z</time>
      </trkpt>
      <trkpt lat="43.65465" lon="1.38979">
        <ele>123</ele>
        <time>2024-03-27T17:22:55Z</time>
      </trkpt>
      <trkpt lat="43.65467" lon="1.38983">
        <ele>124</ele>
        <time>2024-03-27T17:22:56Z</time>
      </trkpt>
      <trkpt lat="43.65469" lon="1.38986">
        <ele>124</ele>
        <time>2024-03-27T17:22:57Z</time>
      </trkpt>
      <trkpt lat="43.6547" lon="1.38989">
        <ele>124</ele>
        <time>2024-03-27T17:22:58Z</time>
      </trkpt>
      <trkpt lat="43.65472" lon="1.38992">
        <ele>124</ele>
        <time>2024-03-27T17:22:59Z</time>
      </trkpt>
      <trkpt lat="43.65473" lon="1.38994">
        <ele>124</ele>
        <time>2024-03-27T17:23:00Z</time>
      </trkpt>
      <trkpt lat="43.65475" lon="1.38997">
        <ele>123</ele>
        <time>2024-03-27T17:23:01Z</time>
      </trkpt>
      <trkpt lat="43.65477" lon="1.38999">
        <ele>124</ele>
        <time>2024-03-27T17:23:02Z</time>
      </trkpt>
      <trkpt lat="43.65479" lon="1.39001">
        <ele>124</ele>
        <time>2024-03-27T17:23:03Z</time>
      </trkpt>
      <trkpt lat="43.65482" lon="1.39002">
        <ele>123</ele>
        <time>2024-03-27T17:23:04Z</time>
      </trkpt>
      <trkpt lat="43.65486" lon="1.39007">
        <ele>123</ele>
        <time>2024-03-27T17:23:05Z</time>
      </trkpt>
      <trkpt lat="43.65489" lon="1.39009">
        <ele>123</ele>
        <time>2024-03-27T17:23:06Z</time>
      </trkpt>
      <trkpt lat="43.65489" lon="1.39009">
        <ele>123</ele>
        <time>2024-03-27T17:23:07Z</time>
      </trkpt>
      <trkpt lat="43.65491" lon="1.39011">
        <ele>123</ele>
        <time>2024-03-27T17:23:08Z</time>
      </trkpt>
      <trkpt lat="43.65493" lon="1.39013">
        <ele>123</ele>
        <time>2024-03-27T17:23:09Z</time>
      </trkpt>
      <trkpt lat="43.65497" lon="1.39014">
        <ele>123</ele>
        <time>2024-03-27T17:23:10Z</time>
      </trkpt>
      <trkpt lat="43.65498" lon="1.39015">
        <ele>123</ele>
        <time>2024-03-27T17:23:11Z</time>
      </trkpt>
      <trkpt lat="43.655" lon="1.39016">
        <ele>123</ele>
        <time>2024-03-27T17:23:12Z</time>
      </trkpt>
      <trkpt lat="43.65502" lon="1.39017">
        <ele>123</ele>
        <time>2024-03-27T17:23:13Z</time>
      </trkpt>
      <trkpt lat="43.65505" lon="1.39018">
        <ele>123</ele>
        <time>2024-03-27T17:23:14Z</time>
      </trkpt>
      <trkpt lat="43.65508" lon="1.39019">
        <ele>123</ele>
        <time>2024-03-27T17:23:15Z</time>
      </trkpt>
      <trkpt lat="43.6551" lon="1.39019">
        <ele>123</ele>
        <time>2024-03-27T17:23:16Z</time>
      </trkpt>
      <trkpt lat="43.65512" lon="1.3902">
        <ele>123</ele>
        <time>2024-03-27T17:23:17Z</time>
      </trkpt>
      <trkpt lat="43.65512" lon="1.3902">
        <ele>123</ele>
        <time>2024-03-27T17:23:18Z</time>
      </trkpt>
      <trkpt lat="43.65516" lon="1.39023">
        <ele>123</ele>
        <time>2024-03-27T17:23:19Z</time>
      </trkpt>
      <trkpt lat="43.6552" lon="1.39026">
        <ele>123</ele>
        <time>2024-03-27T17:23:20Z</time>
      </trkpt>
      <trkpt lat="43.65521" lon="1.39027">
        <ele>123</ele>
        <time>2024-03-27T17:23:21Z</time>
      </trkpt>
      <trkpt lat="43.65524" lon="1.39028">
        <ele>123</ele>
        <time>2024-03-27T17:23:22Z</time>
      </trkpt>
      <trkpt lat="43.65527" lon="1.3903">
        <ele>123</ele>
        <time>2024-03-27T17:23:23Z</time>
      </trkpt>
      <trkpt lat="43.6553" lon="1.39031">
        <ele>123</ele>
        <time>2024-03-27T17:23:24Z</time>
      </trkpt>
      <trkpt lat="43.65536" lon="1.39034">
        <ele>123</ele>
        <time>2024-03-27T17:23:25Z</time>
      </trkpt>
      <trkpt lat="43.65536" lon="1.39034">
        <ele>123</ele>
        <time>2024-03-27T17:23:26Z</time>
      </trkpt>
      <trkpt lat="43.65539" lon="1.39036">
        <ele>123</ele>
        <time>2024-03-27T17:23:27Z</time>
      </trkpt>
      <trkpt lat="43.65542" lon="1.39037">
        <ele>123</ele>
        <time>2024-03-27T17:23:28Z</time>
      </trkpt>
      <trkpt lat="43.65544" lon="1.39039">
        <ele>122</ele>
        <time>2024-03-27T17:23:29Z</time>
      </trkpt>
      <trkpt lat="43.65547" lon="1.3904">
        <ele>122</ele>
        <time>2024-03-27T17:23:30Z</time>
      </trkpt>
      <trkpt lat="43.65549" lon="1.39041">
        <ele>122</ele>
        <time>2024-03-27T17:23:31Z</time>
      </trkpt>
      <trkpt lat="43.65552" lon="1.39044">
        <ele>122</ele>
        <time>2024-03-27T17:23:32Z</time>
      </trkpt>
      <trkpt lat="43.65554" lon="1.39045">
        <ele>122</ele>
        <time>2024-03-27T17:23:33Z</time>
      </trkpt>
      <trkpt lat="43.65557" lon="1.39047">
        <ele>122</ele>
        <time>2024-03-27T17:23:34Z</time>
      </trkpt>
      <trkpt lat="43.65559" lon="1.39049">
        <ele>122</ele>
        <time>2024-03-27T17:23:35Z</time>
      </trkpt>
      <trkpt lat="43.65565" lon="1.39052">
        <ele>122</ele>
        <time>2024-03-27T17:23:36Z</time>
      </trkpt>
      <trkpt lat="43.65565" lon="1.39052">
        <ele>122</ele>
        <time>2024-03-27T17:23:37Z</time>
      </trkpt>
      <trkpt lat="43.65567" lon="1.39054">
        <ele>122</ele>
        <time>2024-03-27T17:23:38Z</time>
      </trkpt>
      <trkpt lat="43.65569" lon="1.39056">
        <ele>122</ele>
        <time>2024-03-27T17:23:39Z</time>
      </trkpt>
      <trkpt lat="43.65572" lon="1.39058">
        <ele>122</ele>
        <time>2024-03-27T17:23:40Z</time>
      </trkpt>
      <trkpt lat="43.65574" lon="1.3906">
        <ele>122</ele>
        <time>2024-03-27T17:23:41Z</time>
      </trkpt>
      <trkpt lat="43.65576" lon="1.39062">
        <ele>122</ele>
        <time>2024-03-27T17:23:42Z</time>
      </trkpt>
      <trkpt lat="43.65578" lon="1.39064">
        <ele>122</ele>
        <time>2024-03-27T17:23:43Z</time>
      </trkpt>
      <trkpt lat="43.65584" lon="1.39068">
        <ele>122</ele>
        <time>2024-03-27T17:23:44Z</time>
      </trkpt>
      <trkpt lat="43.65584" lon="1.39068">
        <ele>122</ele>
        <time>2024-03-27T17:23:45Z</time>
      </trkpt>
      <trkpt lat="43.65587" lon="1.3907">
        <ele>122</ele>
        <time>2024-03-27T17:23:46Z</time>
      </trkpt>
      <trkpt lat="43.65587" lon="1.3907">
        <ele>122</ele>
        <time>2024-03-27T17:23:47Z</time>
      </trkpt>
      <trkpt lat="43.6559" lon="1.39072">
        <ele>122</ele>
        <time>2024-03-27T17:23:48Z</time>
      </trkpt>
      <trkpt lat="43.65592" lon="1.39073">
        <ele>122</ele>
        <time>2024-03-27T17:23:49Z</time>
      </trkpt>
      <trkpt lat="43.65594" lon="1.39075">
        <ele>122</ele>
        <time>2024-03-27T17:23:50Z</time>
      </trkpt>
      <trkpt lat="43.65596" lon="1.39076">
        <ele>122</ele>
        <time>2024-03-27T17:23:51Z</time>
      </trkpt>
      <trkpt lat="43.65599" lon="1.39078">
        <ele>122</ele>
        <time>2024-03-27T17:23:52Z</time>
      </trkpt>
      <trkpt lat="43.65602" lon="1.39079">
        <ele>122</ele>
        <time>2024-03-27T17:23:53Z</time>
      </trkpt>
      <trkpt lat="43.65604" lon="1.3908">
        <ele>122</ele>
        <time>2024-03-27T17:23:54Z</time>
      </trkpt>
      <trkpt lat="43.65606" lon="1.39081">
        <ele>122</ele>
        <time>2024-03-27T17:23:55Z</time>
      </trkpt>
      <trkpt lat="43.65608" lon="1.39082">
        <ele>122</ele>
        <time>2024-03-27T17:23:56Z</time>
      </trkpt>
      <trkpt lat="43.65611" lon="1.39084">
        <ele>122</ele>
        <time>2024-03-27T17:23:57Z</time>
      </trkpt>
      <trkpt lat="43.65614" lon="1.39085">
        <ele>122</ele>
        <time>2024-03-27T17:23:58Z</time>
      </trkpt>
      <trkpt lat="43.65617" lon="1.39088">
        <ele>122</ele>
        <time>2024-03-27T17:23:59Z</time>
      </trkpt>
      <trkpt lat="43.65619" lon="1.39088">
        <ele>122</ele>
        <time>2024-03-27T17:24:00Z</time>
      </trkpt>
      <trkpt lat="43.65621" lon="1.3909">
        <ele>122</ele>
        <time>2024-03-27T17:24:01Z</time>
      </trkpt>
      <trkpt lat="43.65624" lon="1.39091">
        <ele>122</ele>
        <time>2024-03-27T17:24:02Z</time>
      </trkpt>
      <trkpt lat="43.65627" lon="1.39094">
        <ele>122</ele>
        <time>2024-03-27T17:24:03Z</time>
      </trkpt>
      <trkpt lat="43.65627" lon="1.39094">
        <ele>122</ele>
        <time>2024-03-27T17:24:04Z</time>
      </trkpt>
      <trkpt lat="43.65631" lon="1.39096">
        <ele>122</ele>
        <time>2024-03-27T17:24:05Z</time>
      </trkpt>
      <trkpt lat="43.65632" lon="1.39097">
        <ele>122</ele>
        <time>2024-03-27T17:24:06Z</time>
      </trkpt>
      <trkpt lat="43.65634" lon="1.39098">
        <ele>122</ele>
        <time>2024-03-27T17:24:07Z</time>
      </trkpt>
      <trkpt lat="43.65636" lon="1.391">
        <ele>122</ele>
        <time>2024-03-27T17:24:08Z</time>
      </trkpt>
      <trkpt lat="43.65638" lon="1.39101">
        <ele>122</ele>
        <time>2024-03-27T17:24:09Z</time>
      </trkpt>
      <trkpt lat="43.6564" lon="1.39103">
        <ele>122</ele>
        <time>2024-03-27T17:24:10Z</time>
      </trkpt>
      <trkpt lat="43.65641" lon="1.39104">
        <ele>122</ele>
        <time>2024-03-27T17:24:11Z</time>
      </trkpt>
      <trkpt lat="43.65645" lon="1.39107">
        <ele>122</ele>
        <time>2024-03-27T17:24:12Z</time>
      </trkpt>
      <trkpt lat="43.65646" lon="1.39108">
        <ele>122</ele>
        <time>2024-03-27T17:24:13Z</time>
      </trkpt>
      <trkpt lat="43.65649" lon="1.39109">
        <ele>122</ele>
        <time>2024-03-27T17:24:14Z</time>
      </trkpt>
      <trkpt lat="43.65651" lon="1.39111">
        <ele>121</ele>
        <time>2024-03-27T17:24:15Z</time>
      </trkpt>
      <trkpt lat="43.65654" lon="1.39113">
        <ele>121</ele>
        <time>2024-03-27T17:24:16Z</time>
      </trkpt>
      <trkpt lat="43.65658" lon="1.39117">
        <ele>121</ele>
        <time>2024-03-27T17:24:17Z</time>
      </trkpt>
      <trkpt lat="43.65659" lon="1.39118">
        <ele>121</ele>
        <time>2024-03-27T17:24:18Z</time>
      </trkpt>
      <trkpt lat="43.65662" lon="1.39121">
        <ele>121</ele>
        <time>2024-03-27T17:24:19Z</time>
      </trkpt>
      <trkpt lat="43.65665" lon="1.39122">
        <ele>121</ele>
        <time>2024-03-27T17:24:20Z</time>
      </trkpt>
      <trkpt lat="43.65667" lon="1.39123">
        <ele>121</ele>
        <time>2024-03-27T17:24:21Z</time>
      </trkpt>
      <trkpt lat="43.65672" lon="1.39125">
        <ele>121</ele>
        <time>2024-03-27T17:24:22Z</time>
      </trkpt>
      <trkpt lat="43.65672" lon="1.39125">
        <ele>121</ele>
        <time>2024-03-27T17:24:23Z</time>
      </trkpt>
      <trkpt lat="43.65675" lon="1.39126">
        <ele>121</ele>
        <time>2024-03-27T17:24:24Z</time>
      </trkpt>
      <trkpt lat="43.65677" lon="1.39128">
        <ele>121</ele>
        <time>2024-03-27T17:24:25Z</time>
      </trkpt>
      <trkpt lat="43.65681" lon="1.39129">
        <ele>121</ele>
        <time>2024-03-27T17:24:26Z</time>
      </trkpt>
      <trkpt lat="43.65683" lon="1.3913">
        <ele>121</ele>
        <time>2024-03-27T17:24:27Z</time>
      </trkpt>
      <trkpt lat="43.65685" lon="1.39131">
        <ele>121</ele>
        <time>2024-03-27T17:24:28Z</time>
      </trkpt>
      <trkpt lat="43.65687" lon="1.39133">
        <ele>121</ele>
        <time>2024-03-27T17:24:29Z</time>
      </trkpt>
      <trkpt lat="43.65689" lon="1.39134">
        <ele>121</ele>
        <time>2024-03-27T17:24:30Z</time>
      </trkpt>
      <trkpt lat="43.65691" lon="1.39135">
        <ele>121</ele>
        <time>2024-03-27T17:24:31Z</time>
      </trkpt>
      <trkpt lat="43.65693" lon="1.39136">
        <ele>121</ele>
        <time>2024-03-27T17:24:32Z</time>
      </trkpt>
      <trkpt lat="43.65696" lon="1.39138">
        <ele>121</ele>
        <time>2024-03-27T17:24:33Z</time>
      </trkpt>
      <trkpt lat="43.657" lon="1.39141">
        <ele>121</ele>
        <time>2024-03-27T17:24:34Z</time>
      </trkpt>
      <trkpt lat="43.657" lon="1.39141">
        <ele>121</ele>
        <time>2024-03-27T17:24:35Z</time>
      </trkpt>
      <trkpt lat="43.65702" lon="1.39143">
        <ele>121</ele>
        <time>2024-03-27T17:24:36Z</time>
      </trkpt>
      <trkpt lat="43.65704" lon="1.39145">
        <ele>121</ele>
        <time>2024-03-27T17:24:37Z</time>
      </trkpt>
      <trkpt lat="43.65706" lon="1.39146">
        <ele>121</ele>
        <time>2024-03-27T17:24:38Z</time>
      </trkpt>
      <trkpt lat="43.65708" lon="1.39147">
        <ele>121</ele>
        <time>2024-03-27T17:24:39Z</time>
      </trkpt>
      <trkpt lat="43.65711" lon="1.39149">
        <ele>121</ele>
        <time>2024-03-27T17:24:40Z</time>
      </trkpt>
      <trkpt lat="43.65715" lon="1.39152">
        <ele>121</ele>
        <time>2024-03-27T17:24:41Z</time>
      </trkpt>
      <trkpt lat="43.65715" lon="1.39152">
        <ele>121</ele>
        <time>2024-03-27T17:24:42Z</time>
      </trkpt>
      <trkpt lat="43.65717" lon="1.39155">
        <ele>121</ele>
        <time>2024-03-27T17:24:43Z</time>
      </trkpt>
      <trkpt lat="43.65719" lon="1.39156">
        <ele>121</ele>
        <time>2024-03-27T17:24:44Z</time>
      </trkpt>
      <trkpt lat="43.65723" lon="1.39159">
        <ele>121</ele>
        <time>2024-03-27T17:24:45Z</time>
      </trkpt>
      <trkpt lat="43.65724" lon="1.3916">
        <ele>121</ele>
        <time>2024-03-27T17:24:46Z</time>
      </trkpt>
      <trkpt lat="43.65726" lon="1.39162">
        <ele>121</ele>
        <time>2024-03-27T17:24:47Z</time>
      </trkpt>
      <trkpt lat="43.65728" lon="1.39164">
        <ele>121</ele>
        <time>2024-03-27T17:24:48Z</time>
      </trkpt>
      <trkpt lat="43.6573" lon="1.39166">
        <ele>121</ele>
        <time>2024-03-27T17:24:49Z</time>
      </trkpt>
      <trkpt lat="43.65732" lon="1.39168">
        <ele>121</ele>
        <time>2024-03-27T17:24:50Z</time>
      </trkpt>
      <trkpt lat="43.65734" lon="1.39169">
        <ele>121</ele>
        <time>2024-03-27T17:24:51Z</time>
      </trkpt>
      <trkpt lat="43.65736" lon="1.39171">
        <ele>121</ele>
        <time>2024-03-27T17:24:52Z</time>
      </trkpt>
      <trkpt lat="43.65738" lon="1.39172">
        <ele>121</ele>
        <time>2024-03-27T17:24:53Z</time>
      </trkpt>
      <trkpt lat="43.65741" lon="1.39174">
        <ele>122</ele>
        <time>2024-03-27T17:24:54Z</time>
      </trkpt>
      <trkpt lat="43.65743" lon="1.39175">
        <ele>122</ele>
        <time>2024-03-27T17:24:55Z</time>
      </trkpt>
      <trkpt lat="43.65745" lon="1.39176">
        <ele>122</ele>
        <time>2024-03-27T17:24:56Z</time>
      </trkpt>
      <trkpt lat="43.65747" lon="1.39178">
        <ele>122</ele>
        <time>2024-03-27T17:24:57Z</time>
      </trkpt>
      <trkpt lat="43.6575" lon="1.3918">
        <ele>122</ele>
        <time>2024-03-27T17:24:58Z</time>
      </trkpt>
      <trkpt lat="43.65753" lon="1.39182">
        <ele>122</ele>
        <time>2024-03-27T17:24:59Z</time>
      </trkpt>
      <trkpt lat="43.65758" lon="1.39186">
        <ele>122</ele>
        <time>2024-03-27T17:25:00Z</time>
      </trkpt>
      <trkpt lat="43.65758" lon="1.39186">
        <ele>122</ele>
        <time>2024-03-27T17:25:01Z</time>
      </trkpt>
      <trkpt lat="43.65761" lon="1.39188">
        <ele>122</ele>
        <time>2024-03-27T17:25:02Z</time>
      </trkpt>
      <trkpt lat="43.65764" lon="1.3919">
        <ele>122</ele>
        <time>2024-03-27T17:25:03Z</time>
      </trkpt>
      <trkpt lat="43.65768" lon="1.39194">
        <ele>122</ele>
        <time>2024-03-27T17:25:04Z</time>
      </trkpt>
      <trkpt lat="43.6577" lon="1.39195">
        <ele>122</ele>
        <time>2024-03-27T17:25:05Z</time>
      </trkpt>
      <trkpt lat="43.65772" lon="1.39198">
        <ele>122</ele>
        <time>2024-03-27T17:25:06Z</time>
      </trkpt>
      <trkpt lat="43.65775" lon="1.39201">
        <ele>122</ele>
        <time>2024-03-27T17:25:07Z</time>
      </trkpt>
      <trkpt lat="43.65777" lon="1.39204">
        <ele>123</ele>
        <time>2024-03-27T17:25:08Z</time>
      </trkpt>
      <trkpt lat="43.65779" lon="1.39207">
        <ele>123</ele>
        <time>2024-03-27T17:25:09Z</time>
      </trkpt>
      <trkpt lat="43.65782" lon="1.39209">
        <ele>123</ele>
        <time>2024-03-27T17:25:10Z</time>
      </trkpt>
      <trkpt lat="43.65785" lon="1.39211">
        <ele>123</ele>
        <time>2024-03-27T17:25:11Z</time>
      </trkpt>
      <trkpt lat="43.65786" lon="1.39212">
        <ele>123</ele>
        <time>2024-03-27T17:25:12Z</time>
      </trkpt>
      <trkpt lat="43.65789" lon="1.39213">
        <ele>122</ele>
        <time>2024-03-27T17:25:13Z</time>
      </trkpt>
      <trkpt lat="43.65792" lon="1.39214">
        <ele>122</ele>
        <time>2024-03-27T17:25:14Z</time>
      </trkpt>
      <trkpt lat="43.65794" lon="1.39214">
        <ele>122</ele>
        <time>2024-03-27T17:25:15Z</time>
      </trkpt>
      <trkpt lat="43.65796" lon="1.39216">
        <ele>121</ele>
        <time>2024-03-27T17:25:16Z</time>
      </trkpt>
      <trkpt lat="43.65798" lon="1.39217">
        <ele>121</ele>
        <time>2024-03-27T17:25:17Z</time>
      </trkpt>
      <trkpt lat="43.658" lon="1.39218">
        <ele>120</ele>
        <time>2024-03-27T17:25:18Z</time>
      </trkpt>
      <trkpt lat="43.65805" lon="1.3922">
        <ele>120</ele>
        <time>2024-03-27T17:25:19Z</time>
      </trkpt>
      <trkpt lat="43.65805" lon="1.3922">
        <ele>120</ele>
        <time>2024-03-27T17:25:20Z</time>
      </trkpt>
      <trkpt lat="43.65809" lon="1.39221">
        <ele>120</ele>
        <time>2024-03-27T17:25:21Z</time>
      </trkpt>
      <trkpt lat="43.65812" lon="1.39222">
        <ele>120</ele>
        <time>2024-03-27T17:25:22Z</time>
      </trkpt>
      <trkpt lat="43.65815" lon="1.39223">
        <ele>121</ele>
        <time>2024-03-27T17:25:23Z</time>
      </trkpt>
      <trkpt lat="43.65816" lon="1.39224">
        <ele>121</ele>
        <time>2024-03-27T17:25:24Z</time>
      </trkpt>
      <trkpt lat="43.65819" lon="1.39225">
        <ele>121</ele>
        <time>2024-03-27T17:25:25Z</time>
      </trkpt>
      <trkpt lat="43.65821" lon="1.39225">
        <ele>121</ele>
        <time>2024-03-27T17:25:26Z</time>
      </trkpt>
      <trkpt lat="43.65823" lon="1.39226">
        <ele>121</ele>
        <time>2024-03-27T17:25:27Z</time>
      </trkpt>
      <trkpt lat="43.65825" lon="1.39226">
        <ele>121</ele>
        <time>2024-03-27T17:25:28Z</time>
      </trkpt>
      <trkpt lat="43.65828" lon="1.39227">
        <ele>121</ele>
        <time>2024-03-27T17:25:29Z</time>
      </trkpt>
      <trkpt lat="43.65831" lon="1.3923">
        <ele>121</ele>
        <time>2024-03-27T17:25:30Z</time>
      </trkpt>
      <trkpt lat="43.65832" lon="1.3923">
        <ele>121</ele>
        <time>2024-03-27T17:25:31Z</time>
      </trkpt>
      <trkpt lat="43.65835" lon="1.39231">
        <ele>121</ele>
        <time>2024-03-27T17:25:32Z</time>
      </trkpt>
      <trkpt lat="43.65838" lon="1.39233">
        <ele>121</ele>
        <time>2024-03-27T17:25:33Z</time>
      </trkpt>
      <trkpt lat="43.65841" lon="1.39235">
        <ele>120</ele>
        <time>2024-03-27T17:25:34Z</time>
      </trkpt>
      <trkpt lat="43.65843" lon="1.39237">
        <ele>120</ele>
        <time>2024-03-27T17:25:35Z</time>
      </trkpt>
      <trkpt lat="43.65845" lon="1.39239">
        <ele>120</ele>
        <time>2024-03-27T17:25:36Z</time>
      </trkpt>
      <trkpt lat="43.65847" lon="1.39241">
        <ele>120</ele>
        <time>2024-03-27T17:25:37Z</time>
      </trkpt>
      <trkpt lat="43.65852" lon="1.39244">
        <ele>120</ele>
        <time>2024-03-27T17:25:38Z</time>
      </trkpt>
      <trkpt lat="43.65852" lon="1.39244">
        <ele>120</ele>
        <time>2024-03-27T17:25:39Z</time>
      </trkpt>
      <trkpt lat="43.65855" lon="1.39246">
        <ele>120</ele>
        <time>2024-03-27T17:25:40Z</time>
      </trkpt>
      <trkpt lat="43.65857" lon="1.39248">
        <ele>120</ele>
        <time>2024-03-27T17:25:41Z</time>
      </trkpt>
      <trkpt lat="43.65859" lon="1.39249">
        <ele>120</ele>
        <time>2024-03-27T17:25:42Z</time>
      </trkpt>
      <trkpt lat="43.65862" lon="1.3925">
        <ele>120</ele>
        <time>2024-03-27T17:25:43Z</time>
      </trkpt>
      <trkpt lat="43.65865" lon="1.3925">
        <ele>120</ele>
        <time>2024-03-27T17:25:44Z</time>
      </trkpt>
      <trkpt lat="43.65867" lon="1.3925">
        <ele>120</ele>
        <time>2024-03-27T17:25:45Z</time>
      </trkpt>
      <trkpt lat="43.6587" lon="1.3925">
        <ele>120</ele>
        <time>2024-03-27T17:25:46Z</time>
      </trkpt>
      <trkpt lat="43.65875" lon="1.39249">
        <ele>120</ele>
        <time>2024-03-27T17:25:47Z</time>
      </trkpt>
      <trkpt lat="43.65876" lon="1.39249">
        <ele>120</ele>
        <time>2024-03-27T17:25:48Z</time>
      </trkpt>
      <trkpt lat="43.65879" lon="1.3925">
        <ele>120</ele>
        <time>2024-03-27T17:25:49Z</time>
      </trkpt>
      <trkpt lat="43.65881" lon="1.39251">
        <ele>120</ele>
        <time>2024-03-27T17:25:50Z</time>
      </trkpt>
      <trkpt lat="43.65884" lon="1.39252">
        <ele>120</ele>
        <time>2024-03-27T17:25:51Z</time>
      </trkpt>
      <trkpt lat="43.65888" lon="1.39254">
        <ele>120</ele>
        <time>2024-03-27T17:25:52Z</time>
      </trkpt>
      <trkpt lat="43.65889" lon="1.39254">
        <ele>120</ele>
        <time>2024-03-27T17:25:53Z</time>
      </trkpt>
      <trkpt lat="43.65892" lon="1.39255">
        <ele>120</ele>
        <time>2024-03-27T17:25:54Z</time>
      </trkpt>
      <trkpt lat="43.65894" lon="1.39255">
        <ele>120</ele>
        <time>2024-03-27T17:25:55Z</time>
      </trkpt>
      <trkpt lat="43.65897" lon="1.39256">
        <ele>120</ele>
        <time>2024-03-27T17:25:56Z</time>
      </trkpt>
      <trkpt lat="43.65902" lon="1.39256">
        <ele>120</ele>
        <time>2024-03-27T17:25:57Z</time>
      </trkpt>
      <trkpt lat="43.65902" lon="1.39256">
        <ele>120</ele>
        <time>2024-03-27T17:25:58Z</time>
      </trkpt>
      <trkpt lat="43.65904" lon="1.39256">
        <ele>120</ele>
        <time>2024-03-27T17:25:59Z</time>
      </trkpt>
      <trkpt lat="43.65906" lon="1.39256">
        <ele>120</ele>
        <time>2024-03-27T17:26:00Z</time>
      </trkpt>
      <trkpt lat="43.6591" lon="1.39256">
        <ele>120</ele>
        <time>2024-03-27T17:26:01Z</time>
      </trkpt>
      <trkpt lat="43.65911" lon="1.39256">
        <ele>120</ele>
        <time>2024-03-27T17:26:02Z</time>
      </trkpt>
      <trkpt lat="43.65913" lon="1.39256">
        <ele>120</ele>
        <time>2024-03-27T17:26:03Z</time>
      </trkpt>
      <trkpt lat="43.65917" lon="1.39256">
        <ele>120</ele>
        <time>2024-03-27T17:26:04Z</time>
      </trkpt>
      <trkpt lat="43.65918" lon="1.39256">
        <ele>120</ele>
        <time>2024-03-27T17:26:05Z</time>
      </trkpt>
      <trkpt lat="43.65921" lon="1.39255">
        <ele>120</ele>
        <time>2024-03-27T17:26:06Z</time>
      </trkpt>
      <trkpt lat="43.65923" lon="1.39255">
        <ele>120</ele>
        <time>2024-03-27T17:26:07Z</time>
      </trkpt>
      <trkpt lat="43.65925" lon="1.39255">
        <ele>120</ele>
        <time>2024-03-27T17:26:08Z</time>
      </trkpt>
      <trkpt lat="43.65929" lon="1.39255">
        <ele>120</ele>
        <time>2024-03-27T17:26:09Z</time>
      </trkpt>
      <trkpt lat="43.65931" lon="1.39254">
        <ele>120</ele>
        <time>2024-03-27T17:26:10Z</time>
      </trkpt>
      <trkpt lat="43.65933" lon="1.39254">
        <ele>120</ele>
        <time>2024-03-27T17:26:11Z</time>
      </trkpt>
      <trkpt lat="43.65935" lon="1.39254">
        <ele>120</ele>
        <time>2024-03-27T17:26:12Z</time>
      </trkpt>
      <trkpt lat="43.65939" lon="1.39254">
        <ele>120</ele>
        <time>2024-03-27T17:26:13Z</time>
      </trkpt>
      <trkpt lat="43.6594" lon="1.39254">
        <ele>120</ele>
        <time>2024-03-27T17:26:14Z</time>
      </trkpt>
      <trkpt lat="43.65944" lon="1.39254">
        <ele>120</ele>
        <time>2024-03-27T17:26:15Z</time>
      </trkpt>
      <trkpt lat="43.65949" lon="1.39252">
        <ele>120</ele>
        <time>2024-03-27T17:26:16Z</time>
      </trkpt>
      <trkpt lat="43.65949" lon="1.39252">
        <ele>120</ele>
        <time>2024-03-27T17:26:17Z</time>
      </trkpt>
      <trkpt lat="43.65952" lon="1.39252">
        <ele>120</ele>
        <time>2024-03-27T17:26:18Z</time>
      </trkpt>
      <trkpt lat="43.65955" lon="1.39251">
        <ele>120</ele>
        <time>2024-03-27T17:26:19Z</time>
      </trkpt>
      <trkpt lat="43.65959" lon="1.3925">
        <ele>120</ele>
        <time>2024-03-27T17:26:20Z</time>
      </trkpt>
      <trkpt lat="43.6596" lon="1.3925">
        <ele>120</ele>
        <time>2024-03-27T17:26:21Z</time>
      </trkpt>
      <trkpt lat="43.65962" lon="1.39249">
        <ele>120</ele>
        <time>2024-03-27T17:26:22Z</time>
      </trkpt>
      <trkpt lat="43.65964" lon="1.39247">
        <ele>120</ele>
        <time>2024-03-27T17:26:23Z</time>
      </trkpt>
      <trkpt lat="43.65967" lon="1.39247">
        <ele>120</ele>
        <time>2024-03-27T17:26:24Z</time>
      </trkpt>
      <trkpt lat="43.65969" lon="1.39247">
        <ele>120</ele>
        <time>2024-03-27T17:26:25Z</time>
      </trkpt>
      <trkpt lat="43.65971" lon="1.39247">
        <ele>120</ele>
        <time>2024-03-27T17:26:26Z</time>
      </trkpt>
      <trkpt lat="43.65974" lon="1.39247">
        <ele>120</ele>
        <time>2024-03-27T17:26:27Z</time>
      </trkpt>
      <trkpt lat="43.65976" lon="1.39247">
        <ele>120</ele>
        <time>2024-03-27T17:26:28Z</time>
      </trkpt>
      <trkpt lat="43.65978" lon="1.39246">
        <ele>120</ele>
        <time>2024-03-27T17:26:29Z</time>
      </trkpt>
      <trkpt lat="43.65981" lon="1.39246">
        <ele>120</ele>
        <time>2024-03-27T17:26:30Z</time>
      </trkpt>
      <trkpt lat="43.65984" lon="1.39245">
        <ele>120</ele>
        <time>2024-03-27T17:26:31Z</time>
      </trkpt>
      <trkpt lat="43.65986" lon="1.39243">
        <ele>120</ele>
        <time>2024-03-27T17:26:32Z</time>
      </trkpt>
      <trkpt lat="43.65991" lon="1.3924">
        <ele>120</ele>
        <time>2024-03-27T17:26:33Z</time>
      </trkpt>
      <trkpt lat="43.65992" lon="1.39239">
        <ele>120</ele>
        <time>2024-03-27T17:26:34Z</time>
      </trkpt>
      <trkpt lat="43.65997" lon="1.39234">
        <ele>120</ele>
        <time>2024-03-27T17:26:35Z</time>
      </trkpt>
      <trkpt lat="43.65997" lon="1.39234">
        <ele>120</ele>
        <time>2024-03-27T17:26:36Z</time>
      </trkpt>
      <trkpt lat="43.65999" lon="1.39233">
        <ele>120</ele>
        <time>2024-03-27T17:26:37Z</time>
      </trkpt>
      <trkpt lat="43.66002" lon="1.39231">
        <ele>120</ele>
        <time>2024-03-27T17:26:38Z</time>
      </trkpt>
      <trkpt lat="43.66003" lon="1.39228">
        <ele>120</ele>
        <time>2024-03-27T17:26:39Z</time>
      </trkpt>
      <trkpt lat="43.66007" lon="1.39225">
        <ele>119</ele>
        <time>2024-03-27T17:26:40Z</time>
      </trkpt>
      <trkpt lat="43.66008" lon="1.39224">
        <ele>120</ele>
        <time>2024-03-27T17:26:41Z</time>
      </trkpt>
      <trkpt lat="43.66011" lon="1.39222">
        <ele>120</ele>
        <time>2024-03-27T17:26:42Z</time>
      </trkpt>
      <trkpt lat="43.66013" lon="1.39221">
        <ele>120</ele>
        <time>2024-03-27T17:26:43Z</time>
      </trkpt>
      <trkpt lat="43.66018" lon="1.39219">
        <ele>120</ele>
        <time>2024-03-27T17:26:44Z</time>
      </trkpt>
      <trkpt lat="43.66019" lon="1.39218">
        <ele>120</ele>
        <time>2024-03-27T17:26:45Z</time>
      </trkpt>
      <trkpt lat="43.66021" lon="1.39217">
        <ele>120</ele>
        <time>2024-03-27T17:26:46Z</time>
      </trkpt>
      <trkpt lat="43.66023" lon="1.39216">
        <ele>120</ele>
        <time>2024-03-27T17:26:47Z</time>
      </trkpt>
      <trkpt lat="43.66028" lon="1.39215">
        <ele>120</ele>
        <time>2024-03-27T17:26:48Z</time>
      </trkpt>
      <trkpt lat="43.6603" lon="1.39215">
        <ele>119</ele>
        <time>2024-03-27T17:26:49Z</time>
      </trkpt>
      <trkpt lat="43.6603" lon="1.39215">
        <ele>120</ele>
        <time>2024-03-27T17:26:50Z</time>
      </trkpt>
      <trkpt lat="43.66033" lon="1.39215">
        <ele>120</ele>
        <time>2024-03-27T17:26:51Z</time>
      </trkpt>
      <trkpt lat="43.66035" lon="1.39214">
        <ele>120</ele>
        <time>2024-03-27T17:26:52Z</time>
      </trkpt>
      <trkpt lat="43.66037" lon="1.39213">
        <ele>120</ele>
        <time>2024-03-27T17:26:53Z</time>
      </trkpt>
      <trkpt lat="43.66039" lon="1.39213">
        <ele>120</ele>
        <time>2024-03-27T17:26:54Z</time>
      </trkpt>
      <trkpt lat="43.66041" lon="1.39212">
        <ele>120</ele>
        <time>2024-03-27T17:26:55Z</time>
      </trkpt>
      <trkpt lat="43.66043" lon="1.39212">
        <ele>120</ele>
        <time>2024-03-27T17:26:56Z</time>
      </trkpt>
      <trkpt lat="43.66045" lon="1.39212">
        <ele>120</ele>
        <time>2024-03-27T17:26:57Z</time>
      </trkpt>
      <trkpt lat="43.66055" lon="1.3921">
        <ele>119</ele>
        <time>2024-03-27T17:26:58Z</time>
      </trkpt>
      <trkpt lat="43.66057" lon="1.3921">
        <ele>119</ele>
        <time>2024-03-27T17:26:59Z</time>
      </trkpt>
      <trkpt lat="43.66061" lon="1.3921">
        <ele>119</ele>
        <time>2024-03-27T17:27:00Z</time>
      </trkpt>
      <trkpt lat="43.66063" lon="1.3921">
        <ele>119</ele>
        <time>2024-03-27T17:27:01Z</time>
      </trkpt>
      <trkpt lat="43.66066" lon="1.3921">
        <ele>119</ele>
        <time>2024-03-27T17:27:02Z</time>
      </trkpt>
      <trkpt lat="43.66069" lon="1.3921">
        <ele>119</ele>
        <time>2024-03-27T17:27:03Z</time>
      </trkpt>
      <trkpt lat="43.66071" lon="1.39209">
        <ele>119</ele>
        <time>2024-03-27T17:27:04Z</time>
      </trkpt>
      <trkpt lat="43.66073" lon="1.39208">
        <ele>119</ele>
        <time>2024-03-27T17:27:05Z</time>
      </trkpt>
      <trkpt lat="43.66075" lon="1.39206">
        <ele>119</ele>
        <time>2024-03-27T17:27:06Z</time>
      </trkpt>
      <trkpt lat="43.66078" lon="1.39204">
        <ele>119</ele>
        <time>2024-03-27T17:27:07Z</time>
      </trkpt>
      <trkpt lat="43.6608" lon="1.39202">
        <ele>119</ele>
        <time>2024-03-27T17:27:08Z</time>
      </trkpt>
      <trkpt lat="43.66083" lon="1.392">
        <ele>119</ele>
        <time>2024-03-27T17:27:09Z</time>
      </trkpt>
      <trkpt lat="43.66084" lon="1.39199">
        <ele>120</ele>
        <time>2024-03-27T17:27:10Z</time>
      </trkpt>
      <trkpt lat="43.66086" lon="1.39197">
        <ele>120</ele>
        <time>2024-03-27T17:27:11Z</time>
      </trkpt>
      <trkpt lat="43.66089" lon="1.39197">
        <ele>120</ele>
        <time>2024-03-27T17:27:12Z</time>
      </trkpt>
      <trkpt lat="43.66095" lon="1.39195">
        <ele>120</ele>
        <time>2024-03-27T17:27:13Z</time>
      </trkpt>
      <trkpt lat="43.66095" lon="1.39195">
        <ele>120</ele>
        <time>2024-03-27T17:27:14Z</time>
      </trkpt>
      <trkpt lat="43.66097" lon="1.39193">
        <ele>120</ele>
        <time>2024-03-27T17:27:15Z</time>
      </trkpt>
      <trkpt lat="43.661" lon="1.39192">
        <ele>120</ele>
        <time>2024-03-27T17:27:16Z</time>
      </trkpt>
      <trkpt lat="43.66104" lon="1.39192">
        <ele>120</ele>
        <time>2024-03-27T17:27:17Z</time>
      </trkpt>
      <trkpt lat="43.66105" lon="1.39192">
        <ele>120</ele>
        <time>2024-03-27T17:27:18Z</time>
      </trkpt>
      <trkpt lat="43.66108" lon="1.39192">
        <ele>120</ele>
        <time>2024-03-27T17:27:19Z</time>
      </trkpt>
      <trkpt lat="43.6611" lon="1.39191">
        <ele>120</ele>
        <time>2024-03-27T17:27:20Z</time>
      </trkpt>
      <trkpt lat="43.66113" lon="1.3919">
        <ele>120</ele>
        <time>2024-03-27T17:27:21Z</time>
      </trkpt>
      <trkpt lat="43.66116" lon="1.3919">
        <ele>120</ele>
        <time>2024-03-27T17:27:22Z</time>
      </trkpt>
      <trkpt lat="43.66118" lon="1.39189">
        <ele>120</ele>
        <time>2024-03-27T17:27:23Z</time>
      </trkpt>
      <trkpt lat="43.66121" lon="1.39188">
        <ele>120</ele>
        <time>2024-03-27T17:27:24Z</time>
      </trkpt>
      <trkpt lat="43.66124" lon="1.39186">
        <ele>120</ele>
        <time>2024-03-27T17:27:25Z</time>
      </trkpt>
      <trkpt lat="43.66127" lon="1.39187">
        <ele>120</ele>
        <time>2024-03-27T17:27:26Z</time>
      </trkpt>
      <trkpt lat="43.66131" lon="1.39187">
        <ele>120</ele>
        <time>2024-03-27T17:27:27Z</time>
      </trkpt>
      <trkpt lat="43.66133" lon="1.39187">
        <ele>120</ele>
        <time>2024-03-27T17:27:28Z</time>
      </trkpt>
      <trkpt lat="43.66135" lon="1.39187">
        <ele>119</ele>
        <time>2024-03-27T17:27:29Z</time>
      </trkpt>
      <trkpt lat="43.66137" lon="1.39185">
        <ele>119</ele>
        <time>2024-03-27T17:27:30Z</time>
      </trkpt>
      <trkpt lat="43.66138" lon="1.39184">
        <ele>119</ele>
        <time>2024-03-27T17:27:31Z</time>
      </trkpt>
      <trkpt lat="43.66143" lon="1.39181">
        <ele>119</ele>
        <time>2024-03-27T17:27:32Z</time>
      </trkpt>
      <trkpt lat="43.66143" lon="1.39181">
        <ele>119</ele>
        <time>2024-03-27T17:27:33Z</time>
      </trkpt>
      <trkpt lat="43.66145" lon="1.39179">
        <ele>119</ele>
        <time>2024-03-27T17:27:34Z</time>
      </trkpt>
      <trkpt lat="43.66145" lon="1.39179">
        <ele>119</ele>
        <time>2024-03-27T17:27:35Z</time>
      </trkpt>
      <trkpt lat="43.66149" lon="1.39177">
        <ele>119</ele>
        <time>2024-03-27T17:27:36Z</time>
      </trkpt>
      <trkpt lat="43.66151" lon="1.39176">
        <ele>120</ele>
        <time>2024-03-27T17:27:37Z</time>
      </trkpt>
      <trkpt lat="43.66154" lon="1.39174">
        <ele>120</ele>
        <time>2024-03-27T17:27:38Z</time>
      </trkpt>
      <trkpt lat="43.66156" lon="1.39172">
        <ele>120</ele>
        <time>2024-03-27T17:27:39Z</time>
      </trkpt>
      <trkpt lat="43.66158" lon="1.3917">
        <ele>120</ele>
        <time>2024-03-27T17:27:40Z</time>
      </trkpt>
      <trkpt lat="43.66161" lon="1.39169">
        <ele>120</ele>
        <time>2024-03-27T17:27:41Z</time>
      </trkpt>
      <trkpt lat="43.66163" lon="1.39167">
        <ele>120</ele>
        <time>2024-03-27T17:27:42Z</time>
      </trkpt>
      <trkpt lat="43.66166" lon="1.39166">
        <ele>120</ele>
        <time>2024-03-27T17:27:43Z</time>
      </trkpt>
      <trkpt lat="43.66169" lon="1.39164">
        <ele>120</ele>
        <time>2024-03-27T17:27:44Z</time>
      </trkpt>
      <trkpt lat="43.66172" lon="1.39162">
        <ele>119</ele>
        <time>2024-03-27T17:27:45Z</time>
      </trkpt>
      <trkpt lat="43.66175" lon="1.39159">
        <ele>119</ele>
        <time>2024-03-27T17:27:46Z</time>
      </trkpt>
      <trkpt lat="43.66178" lon="1.39157">
        <ele>119</ele>
        <time>2024-03-27T17:27:47Z</time>
      </trkpt>
      <trkpt lat="43.66181" lon="1.39154">
        <ele>119</ele>
        <time>2024-03-27T17:27:48Z</time>
      </trkpt>
      <trkpt lat="43.66184" lon="1.39152">
        <ele>119</ele>
        <time>2024-03-27T17:27:49Z</time>
      </trkpt>
      <trkpt lat="43.66186" lon="1.3915">
        <ele>119</ele>
        <time>2024-03-27T17:27:50Z</time>
      </trkpt>
      <trkpt lat="43.66191" lon="1.39145">
        <ele>119</ele>
        <time>2024-03-27T17:27:51Z</time>
      </trkpt>
      <trkpt lat="43.66191" lon="1.39145">
        <ele>119</ele>
        <time>2024-03-27T17:27:52Z</time>
      </trkpt>
      <trkpt lat="43.66193" lon="1.39143">
        <ele>119</ele>
        <time>2024-03-27T17:27:53Z</time>
      </trkpt>
      <trkpt lat="43.66196" lon="1.3914">
        <ele>119</ele>
        <time>2024-03-27T17:27:54Z</time>
      </trkpt>
      <trkpt lat="43.66199" lon="1.39138">
        <ele>119</ele>
        <time>2024-03-27T17:27:55Z</time>
      </trkpt>
      <trkpt lat="43.66201" lon="1.39136">
        <ele>119</ele>
        <time>2024-03-27T17:27:56Z</time>
      </trkpt>
      <trkpt lat="43.66204" lon="1.39135">
        <ele>119</ele>
        <time>2024-03-27T17:27:57Z</time>
      </trkpt>
      <trkpt lat="43.66208" lon="1.39135">
        <ele>119</ele>
        <time>2024-03-27T17:27:58Z</time>
      </trkpt>
      <trkpt lat="43.66211" lon="1.39135">
        <ele>119</ele>
        <time>2024-03-27T17:27:59Z</time>
      </trkpt>
      <trkpt lat="43.66213" lon="1.39137">
        <ele>120</ele>
        <time>2024-03-27T17:28:00Z</time>
      </trkpt>
      <trkpt lat="43.66216" lon="1.39141">
        <ele>120</ele>
        <time>2024-03-27T17:28:01Z</time>
      </trkpt>
      <trkpt lat="43.66219" lon="1.39143">
        <ele>120</ele>
        <time>2024-03-27T17:28:02Z</time>
      </trkpt>
      <trkpt lat="43.66222" lon="1.39145">
        <ele>120</ele>
        <time>2024-03-27T17:28:03Z</time>
      </trkpt>
      <trkpt lat="43.66225" lon="1.39149">
        <ele>119</ele>
        <time>2024-03-27T17:28:04Z</time>
      </trkpt>
      <trkpt lat="43.66227" lon="1.3915">
        <ele>119</ele>
        <time>2024-03-27T17:28:05Z</time>
      </trkpt>
      <trkpt lat="43.66229" lon="1.39152">
        <ele>119</ele>
        <time>2024-03-27T17:28:06Z</time>
      </trkpt>
      <trkpt lat="43.6623" lon="1.39155">
        <ele>119</ele>
        <time>2024-03-27T17:28:07Z</time>
      </trkpt>
      <trkpt lat="43.66232" lon="1.39158">
        <ele>119</ele>
        <time>2024-03-27T17:28:08Z</time>
      </trkpt>
      <trkpt lat="43.66234" lon="1.39161">
        <ele>119</ele>
        <time>2024-03-27T17:28:09Z</time>
      </trkpt>
      <trkpt lat="43.66238" lon="1.39165">
        <ele>119</ele>
        <time>2024-03-27T17:28:10Z</time>
      </trkpt>
      <trkpt lat="43.66238" lon="1.39165">
        <ele>119</ele>
        <time>2024-03-27T17:28:11Z</time>
      </trkpt>
      <trkpt lat="43.6624" lon="1.39167">
        <ele>119</ele>
        <time>2024-03-27T17:28:12Z</time>
      </trkpt>
      <trkpt lat="43.66242" lon="1.39167">
        <ele>119</ele>
        <time>2024-03-27T17:28:13Z</time>
      </trkpt>
      <trkpt lat="43.66244" lon="1.39167">
        <ele>119</ele>
        <time>2024-03-27T17:28:14Z</time>
      </trkpt>
      <trkpt lat="43.66246" lon="1.39166">
        <ele>120</ele>
        <time>2024-03-27T17:28:15Z</time>
      </trkpt>
      <trkpt lat="43.66248" lon="1.39164">
        <ele>120</ele>
        <time>2024-03-27T17:28:16Z</time>
      </trkpt>
      <trkpt lat="43.66252" lon="1.39161">
        <ele>119</ele>
        <time>2024-03-27T17:28:17Z</time>
      </trkpt>
      <trkpt lat="43.66253" lon="1.3916">
        <ele>119</ele>
        <time>2024-03-27T17:28:18Z</time>
      </trkpt>
      <trkpt lat="43.66255" lon="1.39159">
        <ele>119</ele>
        <time>2024-03-27T17:28:19Z</time>
      </trkpt>
      <trkpt lat="43.66257" lon="1.3916">
        <ele>119</ele>
        <time>2024-03-27T17:28:20Z</time>
      </trkpt>
      <trkpt lat="43.66259" lon="1.3916">
        <ele>119</ele>
        <time>2024-03-27T17:28:21Z</time>
      </trkpt>
      <trkpt lat="43.66263" lon="1.39163">
        <ele>119</ele>
        <time>2024-03-27T17:28:22Z</time>
      </trkpt>
      <trkpt lat="43.66264" lon="1.39164">
        <ele>119</ele>
        <time>2024-03-27T17:28:23Z</time>
      </trkpt>
      <trkpt lat="43.66266" lon="1.39166">
        <ele>119</ele>
        <time>2024-03-27T17:28:24Z</time>
      </trkpt>
      <trkpt lat="43.66268" lon="1.39168">
        <ele>119</ele>
        <time>2024-03-27T17:28:25Z</time>
      </trkpt>
      <trkpt lat="43.66269" lon="1.39171">
        <ele>119</ele>
        <time>2024-03-27T17:28:26Z</time>
      </trkpt>
      <trkpt lat="43.66271" lon="1.39173">
        <ele>119</ele>
        <time>2024-03-27T17:28:27Z</time>
      </trkpt>
      <trkpt lat="43.66273" lon="1.39177">
        <ele>119</ele>
        <time>2024-03-27T17:28:28Z</time>
      </trkpt>
      <trkpt lat="43.66274" lon="1.3918">
        <ele>119</ele>
        <time>2024-03-27T17:28:29Z</time>
      </trkpt>
      <trkpt lat="43.66275" lon="1.39184">
        <ele>119</ele>
        <time>2024-03-27T17:28:30Z</time>
      </trkpt>
      <trkpt lat="43.66276" lon="1.39187">
        <ele>119</ele>
        <time>2024-03-27T17:28:31Z</time>
      </trkpt>
      <trkpt lat="43.66276" lon="1.3919">
        <ele>119</ele>
        <time>2024-03-27T17:28:32Z</time>
      </trkpt>
      <trkpt lat="43.66277" lon="1.39193">
        <ele>118</ele>
        <time>2024-03-27T17:28:33Z</time>
      </trkpt>
      <trkpt lat="43.66279" lon="1.39198">
        <ele>118</ele>
        <time>2024-03-27T17:28:34Z</time>
      </trkpt>
      <trkpt lat="43.6628" lon="1.39202">
        <ele>118</ele>
        <time>2024-03-27T17:28:35Z</time>
      </trkpt>
      <trkpt lat="43.6628" lon="1.39206">
        <ele>118</ele>
        <time>2024-03-27T17:28:36Z</time>
      </trkpt>
      <trkpt lat="43.66281" lon="1.39209">
        <ele>118</ele>
        <time>2024-03-27T17:28:37Z</time>
      </trkpt>
      <trkpt lat="43.66282" lon="1.39212">
        <ele>118</ele>
        <time>2024-03-27T17:28:38Z</time>
      </trkpt>
      <trkpt lat="43.66282" lon="1.39215">
        <ele>118</ele>
        <time>2024-03-27T17:28:39Z</time>
      </trkpt>
      <trkpt lat="43.66282" lon="1.39218">
        <ele>118</ele>
        <time>2024-03-27T17:28:40Z</time>
      </trkpt>
      <trkpt lat="43.66282" lon="1.39221">
        <ele>118</ele>
        <time>2024-03-27T17:28:41Z</time>
      </trkpt>
      <trkpt lat="43.66283" lon="1.39227">
        <ele>118</ele>
        <time>2024-03-27T17:28:42Z</time>
      </trkpt>
      <trkpt lat="43.66283" lon="1.39227">
        <ele>118</ele>
        <time>2024-03-27T17:28:43Z</time>
      </trkpt>
      <trkpt lat="43.66285" lon="1.39232">
        <ele>118</ele>
        <time>2024-03-27T17:28:44Z</time>
      </trkpt>
      <trkpt lat="43.66287" lon="1.39236">
        <ele>118</ele>
        <time>2024-03-27T17:28:45Z</time>
      </trkpt>
      <trkpt lat="43.66289" lon="1.3924">
        <ele>118</ele>
        <time>2024-03-27T17:28:46Z</time>
      </trkpt>
      <trkpt lat="43.66292" lon="1.39248">
        <ele>119</ele>
        <time>2024-03-27T17:28:47Z</time>
      </trkpt>
      <trkpt lat="43.66294" lon="1.39251">
        <ele>119</ele>
        <time>2024-03-27T17:28:48Z</time>
      </trkpt>
      <trkpt lat="43.66294" lon="1.39251">
        <ele>119</ele>
        <time>2024-03-27T17:28:49Z</time>
      </trkpt>
      <trkpt lat="43.66297" lon="1.39257">
        <ele>119</ele>
        <time>2024-03-27T17:28:50Z</time>
      </trkpt>
      <trkpt lat="43.66297" lon="1.39259">
        <ele>119</ele>
        <time>2024-03-27T17:28:51Z</time>
      </trkpt>
      <trkpt lat="43.66299" lon="1.39262">
        <ele>119</ele>
        <time>2024-03-27T17:28:52Z</time>
      </trkpt>
      <trkpt lat="43.66301" lon="1.39265">
        <ele>119</ele>
        <time>2024-03-27T17:28:53Z</time>
      </trkpt>
      <trkpt lat="43.66304" lon="1.39267">
        <ele>119</ele>
        <time>2024-03-27T17:28:54Z</time>
      </trkpt>
      <trkpt lat="43.66306" lon="1.3927">
        <ele>119</ele>
        <time>2024-03-27T17:28:55Z</time>
      </trkpt>
      <trkpt lat="43.66307" lon="1.39273">
        <ele>119</ele>
        <time>2024-03-27T17:28:56Z</time>
      </trkpt>
      <trkpt lat="43.66309" lon="1.39275">
        <ele>119</ele>
        <time>2024-03-27T17:28:57Z</time>
      </trkpt>
      <trkpt lat="43.6631" lon="1.39277">
        <ele>119</ele>
        <time>2024-03-27T17:28:58Z</time>
      </trkpt>
      <trkpt lat="43.6631" lon="1.39277">
        <ele>119</ele>
        <time>2024-03-27T17:28:59Z</time>
      </trkpt>
      <trkpt lat="43.66314" lon="1.39282">
        <ele>120</ele>
        <time>2024-03-27T17:29:00Z</time>
      </trkpt>
      <trkpt lat="43.66316" lon="1.39284">
        <ele>120</ele>
        <time>2024-03-27T17:29:01Z</time>
      </trkpt>
      <trkpt lat="43.6632" lon="1.39285">
        <ele>120</ele>
        <time>2024-03-27T17:29:02Z</time>
      </trkpt>
      <trkpt lat="43.66321" lon="1.39286">
        <ele>120</ele>
        <time>2024-03-27T17:29:03Z</time>
      </trkpt>
      <trkpt lat="43.66323" lon="1.39287">
        <ele>119</ele>
        <time>2024-03-27T17:29:04Z</time>
      </trkpt>
      <trkpt lat="43.66325" lon="1.39288">
        <ele>119</ele>
        <time>2024-03-27T17:29:05Z</time>
      </trkpt>
      <trkpt lat="43.66327" lon="1.39288">
        <ele>119</ele>
        <time>2024-03-27T17:29:06Z</time>
      </trkpt>
      <trkpt lat="43.66331" lon="1.39287">
        <ele>118</ele>
        <time>2024-03-27T17:29:07Z</time>
      </trkpt>
      <trkpt lat="43.66331" lon="1.39287">
        <ele>118</ele>
        <time>2024-03-27T17:29:08Z</time>
      </trkpt>
      <trkpt lat="43.66333" lon="1.39286">
        <ele>118</ele>
        <time>2024-03-27T17:29:09Z</time>
      </trkpt>
      <trkpt lat="43.66335" lon="1.39285">
        <ele>119</ele>
        <time>2024-03-27T17:29:10Z</time>
      </trkpt>
      <trkpt lat="43.66338" lon="1.39283">
        <ele>119</ele>
        <time>2024-03-27T17:29:11Z</time>
      </trkpt>
      <trkpt lat="43.66339" lon="1.39282">
        <ele>119</ele>
        <time>2024-03-27T17:29:12Z</time>
      </trkpt>
      <trkpt lat="43.66341" lon="1.39281">
        <ele>119</ele>
        <time>2024-03-27T17:29:13Z</time>
      </trkpt>
      <trkpt lat="43.66344" lon="1.39279">
        <ele>118</ele>
        <time>2024-03-27T17:29:14Z</time>
      </trkpt>
      <trkpt lat="43.66346" lon="1.39278">
        <ele>118</ele>
        <time>2024-03-27T17:29:15Z</time>
      </trkpt>
      <trkpt lat="43.66349" lon="1.39276">
        <ele>118</ele>
        <time>2024-03-27T17:29:16Z</time>
      </trkpt>
      <trkpt lat="43.66351" lon="1.39275">
        <ele>118</ele>
        <time>2024-03-27T17:29:17Z</time>
      </trkpt>
      <trkpt lat="43.66353" lon="1.39275">
        <ele>118</ele>
        <time>2024-03-27T17:29:18Z</time>
      </trkpt>
      <trkpt lat="43.66356" lon="1.39275">
        <ele>118</ele>
        <time>2024-03-27T17:29:19Z</time>
      </trkpt>
      <trkpt lat="43.66359" lon="1.39276">
        <ele>118</ele>
        <time>2024-03-27T17:29:20Z</time>
      </trkpt>
      <trkpt lat="43.66362" lon="1.39277">
        <ele>118</ele>
        <time>2024-03-27T17:29:21Z</time>
      </trkpt>
      <trkpt lat="43.66364" lon="1.39278">
        <ele>118</ele>
        <time>2024-03-27T17:29:22Z</time>
      </trkpt>
      <trkpt lat="43.66368" lon="1.3928">
        <ele>118</ele>
        <time>2024-03-27T17:29:23Z</time>
      </trkpt>
      <trkpt lat="43.66369" lon="1.39281">
        <ele>118</ele>
        <time>2024-03-27T17:29:24Z</time>
      </trkpt>
      <trkpt lat="43.66371" lon="1.39283">
        <ele>118</ele>
        <time>2024-03-27T17:29:25Z</time>
      </trkpt>
      <trkpt lat="43.66376" lon="1.39287">
        <ele>118</ele>
        <time>2024-03-27T17:29:26Z</time>
      </trkpt>
      <trkpt lat="43.66376" lon="1.39287">
        <ele>118</ele>
        <time>2024-03-27T17:29:27Z</time>
      </trkpt>
      <trkpt lat="43.66378" lon="1.39289">
        <ele>118</ele>
        <time>2024-03-27T17:29:28Z</time>
      </trkpt>
      <trkpt lat="43.6638" lon="1.3929">
        <ele>118</ele>
        <time>2024-03-27T17:29:29Z</time>
      </trkpt>
      <trkpt lat="43.66384" lon="1.39294">
        <ele>118</ele>
        <time>2024-03-27T17:29:30Z</time>
      </trkpt>
      <trkpt lat="43.66385" lon="1.39295">
        <ele>118</ele>
        <time>2024-03-27T17:29:31Z</time>
      </trkpt>
      <trkpt lat="43.66388" lon="1.39297">
        <ele>118</ele>
        <time>2024-03-27T17:29:32Z</time>
      </trkpt>
      <trkpt lat="43.6639" lon="1.39299">
        <ele>118</ele>
        <time>2024-03-27T17:29:33Z</time>
      </trkpt>
      <trkpt lat="43.66393" lon="1.39301">
        <ele>118</ele>
        <time>2024-03-27T17:29:34Z</time>
      </trkpt>
      <trkpt lat="43.66396" lon="1.39304">
        <ele>118</ele>
        <time>2024-03-27T17:29:35Z</time>
      </trkpt>
      <trkpt lat="43.66398" lon="1.39305">
        <ele>118</ele>
        <time>2024-03-27T17:29:36Z</time>
      </trkpt>
      <trkpt lat="43.664" lon="1.39307">
        <ele>118</ele>
        <time>2024-03-27T17:29:37Z</time>
      </trkpt>
      <trkpt lat="43.66403" lon="1.3931">
        <ele>118</ele>
        <time>2024-03-27T17:29:38Z</time>
      </trkpt>
      <trkpt lat="43.66404" lon="1.3931">
        <ele>118</ele>
        <time>2024-03-27T17:29:39Z</time>
      </trkpt>
      <trkpt lat="43.66406" lon="1.39312">
        <ele>118</ele>
        <time>2024-03-27T17:29:40Z</time>
      </trkpt>
      <trkpt lat="43.66408" lon="1.39313">
        <ele>118</ele>
        <time>2024-03-27T17:29:41Z</time>
      </trkpt>
      <trkpt lat="43.66411" lon="1.39314">
        <ele>118</ele>
        <time>2024-03-27T17:29:42Z</time>
      </trkpt>
      <trkpt lat="43.66413" lon="1.39315">
        <ele>118</ele>
        <time>2024-03-27T17:29:43Z</time>
      </trkpt>
      <trkpt lat="43.66415" lon="1.39315">
        <ele>118</ele>
        <time>2024-03-27T17:29:44Z</time>
      </trkpt>
      <trkpt lat="43.6642" lon="1.39317">
        <ele>118</ele>
        <time>2024-03-27T17:29:45Z</time>
      </trkpt>
      <trkpt lat="43.6642" lon="1.39317">
        <ele>118</ele>
        <time>2024-03-27T17:29:46Z</time>
      </trkpt>
      <trkpt lat="43.66423" lon="1.39318">
        <ele>118</ele>
        <time>2024-03-27T17:29:47Z</time>
      </trkpt>
      <trkpt lat="43.66426" lon="1.39319">
        <ele>118</ele>
        <time>2024-03-27T17:29:48Z</time>
      </trkpt>
      <trkpt lat="43.6643" lon="1.3932">
        <ele>118</ele>
        <time>2024-03-27T17:29:49Z</time>
      </trkpt>
      <trkpt lat="43.66431" lon="1.3932">
        <ele>119</ele>
        <time>2024-03-27T17:29:50Z</time>
      </trkpt>
      <trkpt lat="43.66434" lon="1.39321">
        <ele>119</ele>
        <time>2024-03-27T17:29:51Z</time>
      </trkpt>
      <trkpt lat="43.66437" lon="1.39321">
        <ele>119</ele>
        <time>2024-03-27T17:29:52Z</time>
      </trkpt>
      <trkpt lat="43.6644" lon="1.39321">
        <ele>119</ele>
        <time>2024-03-27T17:29:53Z</time>
      </trkpt>
      <trkpt lat="43.66443" lon="1.39321">
        <ele>119</ele>
        <time>2024-03-27T17:29:54Z</time>
      </trkpt>
      <trkpt lat="43.66445" lon="1.39321">
        <ele>119</ele>
        <time>2024-03-27T17:29:55Z</time>
      </trkpt>
      <trkpt lat="43.66448" lon="1.39322">
        <ele>119</ele>
        <time>2024-03-27T17:29:56Z</time>
      </trkpt>
      <trkpt lat="43.6645" lon="1.39322">
        <ele>119</ele>
        <time>2024-03-27T17:29:57Z</time>
      </trkpt>
      <trkpt lat="43.66452" lon="1.39321">
        <ele>119</ele>
        <time>2024-03-27T17:29:58Z</time>
      </trkpt>
      <trkpt lat="43.66455" lon="1.39321">
        <ele>119</ele>
        <time>2024-03-27T17:29:59Z</time>
      </trkpt>
      <trkpt lat="43.66457" lon="1.39321">
        <ele>119</ele>
        <time>2024-03-27T17:30:00Z</time>
      </trkpt>
      <trkpt lat="43.6646" lon="1.39321">
        <ele>119</ele>
        <time>2024-03-27T17:30:01Z</time>
      </trkpt>
      <trkpt lat="43.66462" lon="1.3932">
        <ele>119</ele>
        <time>2024-03-27T17:30:02Z</time>
      </trkpt>
      <trkpt lat="43.66465" lon="1.39319">
        <ele>119</ele>
        <time>2024-03-27T17:30:03Z</time>
      </trkpt>
      <trkpt lat="43.66468" lon="1.39319">
        <ele>119</ele>
        <time>2024-03-27T17:30:04Z</time>
      </trkpt>
      <trkpt lat="43.66472" lon="1.39317">
        <ele>119</ele>
        <time>2024-03-27T17:30:05Z</time>
      </trkpt>
      <trkpt lat="43.66473" lon="1.39317">
        <ele>119</ele>
        <time>2024-03-27T17:30:06Z</time>
      </trkpt>
      <trkpt lat="43.66475" lon="1.39316">
        <ele>120</ele>
        <time>2024-03-27T17:30:07Z</time>
      </trkpt>
      <trkpt lat="43.66478" lon="1.39315">
        <ele>120</ele>
        <time>2024-03-27T17:30:08Z</time>
      </trkpt>
      <trkpt lat="43.66481" lon="1.39313">
        <ele>120</ele>
        <time>2024-03-27T17:30:09Z</time>
      </trkpt>
      <trkpt lat="43.66484" lon="1.39311">
        <ele>119</ele>
        <time>2024-03-27T17:30:10Z</time>
      </trkpt>
      <trkpt lat="43.66486" lon="1.3931">
        <ele>119</ele>
        <time>2024-03-27T17:30:11Z</time>
      </trkpt>
      <trkpt lat="43.66489" lon="1.39308">
        <ele>118</ele>
        <time>2024-03-27T17:30:12Z</time>
      </trkpt>
      <trkpt lat="43.66491" lon="1.39307">
        <ele>118</ele>
        <time>2024-03-27T17:30:13Z</time>
      </trkpt>
      <trkpt lat="43.66493" lon="1.39304">
        <ele>118</ele>
        <time>2024-03-27T17:30:14Z</time>
      </trkpt>
      <trkpt lat="43.66495" lon="1.39301">
        <ele>118</ele>
        <time>2024-03-27T17:30:15Z</time>
      </trkpt>
      <trkpt lat="43.66496" lon="1.39299">
        <ele>118</ele>
        <time>2024-03-27T17:30:16Z</time>
      </trkpt>
      <trkpt lat="43.66498" lon="1.39296">
        <ele>118</ele>
        <time>2024-03-27T17:30:17Z</time>
      </trkpt>
      <trkpt lat="43.66499" lon="1.39294">
        <ele>118</ele>
        <time>2024-03-27T17:30:18Z</time>
      </trkpt>
      <trkpt lat="43.665" lon="1.3929">
        <ele>117</ele>
        <time>2024-03-27T17:30:19Z</time>
      </trkpt>
      <trkpt lat="43.665" lon="1.39288">
        <ele>117</ele>
        <time>2024-03-27T17:30:20Z</time>
      </trkpt>
      <trkpt lat="43.66501" lon="1.39286">
        <ele>117</ele>
        <time>2024-03-27T17:30:21Z</time>
      </trkpt>
      <trkpt lat="43.66503" lon="1.39283">
        <ele>117</ele>
        <time>2024-03-27T17:30:22Z</time>
      </trkpt>
      <trkpt lat="43.66506" lon="1.39277">
        <ele>117</ele>
        <time>2024-03-27T17:30:23Z</time>
      </trkpt>
      <trkpt lat="43.66506" lon="1.39277">
        <ele>117</ele>
        <time>2024-03-27T17:30:24Z</time>
      </trkpt>
      <trkpt lat="43.66507" lon="1.39274">
        <ele>117</ele>
        <time>2024-03-27T17:30:25Z</time>
      </trkpt>
      <trkpt lat="43.6651" lon="1.39272">
        <ele>117</ele>
        <time>2024-03-27T17:30:26Z</time>
      </trkpt>
      <trkpt lat="43.66513" lon="1.3927">
        <ele>117</ele>
        <time>2024-03-27T17:30:27Z</time>
      </trkpt>
      <trkpt lat="43.66517" lon="1.39269">
        <ele>117</ele>
        <time>2024-03-27T17:30:28Z</time>
      </trkpt>
      <trkpt lat="43.6652" lon="1.39268">
        <ele>117</ele>
        <time>2024-03-27T17:30:29Z</time>
      </trkpt>
      <trkpt lat="43.66524" lon="1.39269">
        <ele>117</ele>
        <time>2024-03-27T17:30:30Z</time>
      </trkpt>
      <trkpt lat="43.66528" lon="1.39269">
        <ele>117</ele>
        <time>2024-03-27T17:30:31Z</time>
      </trkpt>
      <trkpt lat="43.6653" lon="1.39269">
        <ele>117</ele>
        <time>2024-03-27T17:30:32Z</time>
      </trkpt>
      <trkpt lat="43.66535" lon="1.3927">
        <ele>117</ele>
        <time>2024-03-27T17:30:33Z</time>
      </trkpt>
      <trkpt lat="43.66536" lon="1.3927">
        <ele>117</ele>
        <time>2024-03-27T17:30:34Z</time>
      </trkpt>
      <trkpt lat="43.66539" lon="1.39271">
        <ele>117</ele>
        <time>2024-03-27T17:30:35Z</time>
      </trkpt>
      <trkpt lat="43.66542" lon="1.39271">
        <ele>117</ele>
        <time>2024-03-27T17:30:36Z</time>
      </trkpt>
      <trkpt lat="43.66544" lon="1.3927">
        <ele>117</ele>
        <time>2024-03-27T17:30:37Z</time>
      </trkpt>
      <trkpt lat="43.66546" lon="1.39268">
        <ele>117</ele>
        <time>2024-03-27T17:30:38Z</time>
      </trkpt>
      <trkpt lat="43.66548" lon="1.39266">
        <ele>117</ele>
        <time>2024-03-27T17:30:39Z</time>
      </trkpt>
      <trkpt lat="43.66551" lon="1.39265">
        <ele>117</ele>
        <time>2024-03-27T17:30:40Z</time>
      </trkpt>
      <trkpt lat="43.66553" lon="1.39264">
        <ele>117</ele>
        <time>2024-03-27T17:30:41Z</time>
      </trkpt>
      <trkpt lat="43.66558" lon="1.39264">
        <ele>117</ele>
        <time>2024-03-27T17:30:42Z</time>
      </trkpt>
      <trkpt lat="43.66558" lon="1.39264">
        <ele>117</ele>
        <time>2024-03-27T17:30:43Z</time>
      </trkpt>
      <trkpt lat="43.66561" lon="1.39264">
        <ele>117</ele>
        <time>2024-03-27T17:30:44Z</time>
      </trkpt>
      <trkpt lat="43.66564" lon="1.39265">
        <ele>117</ele>
        <time>2024-03-27T17:30:45Z</time>
      </trkpt>
      <trkpt lat="43.66566" lon="1.39265">
        <ele>117</ele>
        <time>2024-03-27T17:30:46Z</time>
      </trkpt>
      <trkpt lat="43.66569" lon="1.39265">
        <ele>118</ele>
        <time>2024-03-27T17:30:47Z</time>
      </trkpt>
      <trkpt lat="43.66571" lon="1.39263">
        <ele>118</ele>
        <time>2024-03-27T17:30:48Z</time>
      </trkpt>
      <trkpt lat="43.66572" lon="1.3926">
        <ele>118</ele>
        <time>2024-03-27T17:30:49Z</time>
      </trkpt>
      <trkpt lat="43.66573" lon="1.39257">
        <ele>118</ele>
        <time>2024-03-27T17:30:50Z</time>
      </trkpt>
      <trkpt lat="43.66574" lon="1.39254">
        <ele>118</ele>
        <time>2024-03-27T17:30:51Z</time>
      </trkpt>
      <trkpt lat="43.66574" lon="1.39251">
        <ele>118</ele>
        <time>2024-03-27T17:30:52Z</time>
      </trkpt>
      <trkpt lat="43.66574" lon="1.39248">
        <ele>118</ele>
        <time>2024-03-27T17:30:53Z</time>
      </trkpt>
      <trkpt lat="43.66575" lon="1.39245">
        <ele>118</ele>
        <time>2024-03-27T17:30:54Z</time>
      </trkpt>
      <trkpt lat="43.66575" lon="1.39241">
        <ele>118</ele>
        <time>2024-03-27T17:30:55Z</time>
      </trkpt>
      <trkpt lat="43.66576" lon="1.39236">
        <ele>118</ele>
        <time>2024-03-27T17:30:56Z</time>
      </trkpt>
      <trkpt lat="43.66577" lon="1.39234">
        <ele>118</ele>
        <time>2024-03-27T17:30:57Z</time>
      </trkpt>
      <trkpt lat="43.66577" lon="1.39231">
        <ele>118</ele>
        <time>2024-03-27T17:30:58Z</time>
      </trkpt>
      <trkpt lat="43.66577" lon="1.39228">
        <ele>118</ele>
        <time>2024-03-27T17:30:59Z</time>
      </trkpt>
      <trkpt lat="43.66577" lon="1.39225">
        <ele>118</ele>
        <time>2024-03-27T17:31:00Z</time>
      </trkpt>
      <trkpt lat="43.66578" lon="1.39217">
        <ele>118</ele>
        <time>2024-03-27T17:31:01Z</time>
      </trkpt>
      <trkpt lat="43.66578" lon="1.39217">
        <ele>118</ele>
        <time>2024-03-27T17:31:02Z</time>
      </trkpt>
      <trkpt lat="43.66578" lon="1.39213">
        <ele>118</ele>
        <time>2024-03-27T17:31:03Z</time>
      </trkpt>
      <trkpt lat="43.66579" lon="1.3921">
        <ele>118</ele>
        <time>2024-03-27T17:31:04Z</time>
      </trkpt>
      <trkpt lat="43.6658" lon="1.39207">
        <ele>118</ele>
        <time>2024-03-27T17:31:05Z</time>
      </trkpt>
      <trkpt lat="43.6658" lon="1.39203">
        <ele>118</ele>
        <time>2024-03-27T17:31:06Z</time>
      </trkpt>
      <trkpt lat="43.6658" lon="1.39199">
        <ele>118</ele>
        <time>2024-03-27T17:31:07Z</time>
      </trkpt>
      <trkpt lat="43.66581" lon="1.39196">
        <ele>119</ele>
        <time>2024-03-27T17:31:08Z</time>
      </trkpt>
      <trkpt lat="43.66581" lon="1.39193">
        <ele>119</ele>
        <time>2024-03-27T17:31:09Z</time>
      </trkpt>
      <trkpt lat="43.6658" lon="1.39189">
        <ele>119</ele>
        <time>2024-03-27T17:31:10Z</time>
      </trkpt>
      <trkpt lat="43.6658" lon="1.39184">
        <ele>119</ele>
        <time>2024-03-27T17:31:11Z</time>
      </trkpt>
      <trkpt lat="43.6658" lon="1.39183">
        <ele>119</ele>
        <time>2024-03-27T17:31:12Z</time>
      </trkpt>
      <trkpt lat="43.6658" lon="1.39179">
        <ele>119</ele>
        <time>2024-03-27T17:31:13Z</time>
      </trkpt>
      <trkpt lat="43.66579" lon="1.39176">
        <ele>119</ele>
        <time>2024-03-27T17:31:14Z</time>
      </trkpt>
      <trkpt lat="43.66578" lon="1.39172">
        <ele>120</ele>
        <time>2024-03-27T17:31:15Z</time>
      </trkpt>
      <trkpt lat="43.66579" lon="1.39166">
        <ele>120</ele>
        <time>2024-03-27T17:31:16Z</time>
      </trkpt>
      <trkpt lat="43.66579" lon="1.39164">
        <ele>119</ele>
        <time>2024-03-27T17:31:17Z</time>
      </trkpt>
      <trkpt lat="43.6658" lon="1.39161">
        <ele>119</ele>
        <time>2024-03-27T17:31:18Z</time>
      </trkpt>
      <trkpt lat="43.66581" lon="1.39156">
        <ele>119</ele>
        <time>2024-03-27T17:31:19Z</time>
      </trkpt>
      <trkpt lat="43.66581" lon="1.39149">
        <ele>119</ele>
        <time>2024-03-27T17:31:20Z</time>
      </trkpt>
      <trkpt lat="43.66581" lon="1.39149">
        <ele>119</ele>
        <time>2024-03-27T17:31:21Z</time>
      </trkpt>
      <trkpt lat="43.66582" lon="1.39144">
        <ele>119</ele>
        <time>2024-03-27T17:31:22Z</time>
      </trkpt>
      <trkpt lat="43.66582" lon="1.39142">
        <ele>119</ele>
        <time>2024-03-27T17:31:23Z</time>
      </trkpt>
      <trkpt lat="43.66584" lon="1.39137">
        <ele>119</ele>
        <time>2024-03-27T17:31:24Z</time>
      </trkpt>
      <trkpt lat="43.66584" lon="1.39135">
        <ele>119</ele>
        <time>2024-03-27T17:31:25Z</time>
      </trkpt>
      <trkpt lat="43.66584" lon="1.39132">
        <ele>119</ele>
        <time>2024-03-27T17:31:26Z</time>
      </trkpt>
      <trkpt lat="43.66585" lon="1.39128">
        <ele>118</ele>
        <time>2024-03-27T17:31:27Z</time>
      </trkpt>
      <trkpt lat="43.66585" lon="1.39121">
        <ele>118</ele>
        <time>2024-03-27T17:31:28Z</time>
      </trkpt>
      <trkpt lat="43.66586" lon="1.39119">
        <ele>119</ele>
        <time>2024-03-27T17:31:29Z</time>
      </trkpt>
      <trkpt lat="43.66587" lon="1.39114">
        <ele>119</ele>
        <time>2024-03-27T17:31:30Z</time>
      </trkpt>
      <trkpt lat="43.66587" lon="1.39112">
        <ele>119</ele>
        <time>2024-03-27T17:31:31Z</time>
      </trkpt>
      <trkpt lat="43.66588" lon="1.39108">
        <ele>119</ele>
        <time>2024-03-27T17:31:32Z</time>
      </trkpt>
      <trkpt lat="43.66588" lon="1.39104">
        <ele>119</ele>
        <time>2024-03-27T17:31:33Z</time>
      </trkpt>
      <trkpt lat="43.66588" lon="1.391">
        <ele>119</ele>
        <time>2024-03-27T17:31:34Z</time>
      </trkpt>
      <trkpt lat="43.66589" lon="1.39097">
        <ele>119</ele>
        <time>2024-03-27T17:31:35Z</time>
      </trkpt>
      <trkpt lat="43.66589" lon="1.39094">
        <ele>119</ele>
        <time>2024-03-27T17:31:36Z</time>
      </trkpt>
      <trkpt lat="43.6659" lon="1.3909">
        <ele>119</ele>
        <time>2024-03-27T17:31:37Z</time>
      </trkpt>
      <trkpt lat="43.6659" lon="1.39087">
        <ele>119</ele>
        <time>2024-03-27T17:31:38Z</time>
      </trkpt>
      <trkpt lat="43.66591" lon="1.39081">
        <ele>119</ele>
        <time>2024-03-27T17:31:39Z</time>
      </trkpt>
      <trkpt lat="43.66591" lon="1.39081">
        <ele>119</ele>
        <time>2024-03-27T17:31:40Z</time>
      </trkpt>
      <trkpt lat="43.6659" lon="1.39074">
        <ele>119</ele>
        <time>2024-03-27T17:31:41Z</time>
      </trkpt>
      <trkpt lat="43.6659" lon="1.39072">
        <ele>119</ele>
        <time>2024-03-27T17:31:42Z</time>
      </trkpt>
      <trkpt lat="43.6659" lon="1.39067">
        <ele>119</ele>
        <time>2024-03-27T17:31:43Z</time>
      </trkpt>
      <trkpt lat="43.66589" lon="1.39063">
        <ele>119</ele>
        <time>2024-03-27T17:31:44Z</time>
      </trkpt>
      <trkpt lat="43.66589" lon="1.39059">
        <ele>119</ele>
        <time>2024-03-27T17:31:45Z</time>
      </trkpt>
      <trkpt lat="43.6659" lon="1.39055">
        <ele>119</ele>
        <time>2024-03-27T17:31:46Z</time>
      </trkpt>
      <trkpt lat="43.6659" lon="1.39052">
        <ele>119</ele>
        <time>2024-03-27T17:31:47Z</time>
      </trkpt>
      <trkpt lat="43.66591" lon="1.39048">
        <ele>118</ele>
        <time>2024-03-27T17:31:48Z</time>
      </trkpt>
      <trkpt lat="43.66592" lon="1.39042">
        <ele>118</ele>
        <time>2024-03-27T17:31:49Z</time>
      </trkpt>
      <trkpt lat="43.66592" lon="1.3904">
        <ele>118</ele>
        <time>2024-03-27T17:31:50Z</time>
      </trkpt>
      <trkpt lat="43.66593" lon="1.39036">
        <ele>118</ele>
        <time>2024-03-27T17:31:51Z</time>
      </trkpt>
      <trkpt lat="43.66593" lon="1.39032">
        <ele>118</ele>
        <time>2024-03-27T17:31:52Z</time>
      </trkpt>
      <trkpt lat="43.66594" lon="1.39028">
        <ele>118</ele>
        <time>2024-03-27T17:31:53Z</time>
      </trkpt>
      <trkpt lat="43.66595" lon="1.39024">
        <ele>118</ele>
        <time>2024-03-27T17:31:54Z</time>
      </trkpt>
      <trkpt lat="43.66595" lon="1.3902">
        <ele>119</ele>
        <time>2024-03-27T17:31:55Z</time>
      </trkpt>
      <trkpt lat="43.66596" lon="1.39017">
        <ele>119</ele>
        <time>2024-03-27T17:31:56Z</time>
      </trkpt>
      <trkpt lat="43.66597" lon="1.39013">
        <ele>119</ele>
        <time>2024-03-27T17:31:57Z</time>
      </trkpt>
      <trkpt lat="43.66598" lon="1.39006">
        <ele>119</ele>
        <time>2024-03-27T17:31:58Z</time>
      </trkpt>
      <trkpt lat="43.66598" lon="1.39006">
        <ele>119</ele>
        <time>2024-03-27T17:31:59Z</time>
      </trkpt>
      <trkpt lat="43.66598" lon="1.39003">
        <ele>119</ele>
        <time>2024-03-27T17:32:00Z</time>
      </trkpt>
      <trkpt lat="43.66598" lon="1.39">
        <ele>118</ele>
        <time>2024-03-27T17:32:01Z</time>
      </trkpt>
      <trkpt lat="43.66598" lon="1.38997">
        <ele>118</ele>
        <time>2024-03-27T17:32:02Z</time>
      </trkpt>
      <trkpt lat="43.66599" lon="1.38993">
        <ele>118</ele>
        <time>2024-03-27T17:32:03Z</time>
      </trkpt>
      <trkpt lat="43.66599" lon="1.38989">
        <ele>118</ele>
        <time>2024-03-27T17:32:04Z</time>
      </trkpt>
      <trkpt lat="43.66599" lon="1.38985">
        <ele>118</ele>
        <time>2024-03-27T17:32:05Z</time>
      </trkpt>
      <trkpt lat="43.66599" lon="1.3898">
        <ele>118</ele>
        <time>2024-03-27T17:32:06Z</time>
      </trkpt>
      <trkpt lat="43.666" lon="1.38976">
        <ele>118</ele>
        <time>2024-03-27T17:32:07Z</time>
      </trkpt>
      <trkpt lat="43.666" lon="1.38971">
        <ele>118</ele>
        <time>2024-03-27T17:32:08Z</time>
      </trkpt>
      <trkpt lat="43.666" lon="1.38969">
        <ele>118</ele>
        <time>2024-03-27T17:32:09Z</time>
      </trkpt>
      <trkpt lat="43.666" lon="1.38966">
        <ele>118</ele>
        <time>2024-03-27T17:32:10Z</time>
      </trkpt>
      <trkpt lat="43.666" lon="1.38962">
        <ele>118</ele>
        <time>2024-03-27T17:32:11Z</time>
      </trkpt>
      <trkpt lat="43.66601" lon="1.38958">
        <ele>118</ele>
        <time>2024-03-27T17:32:12Z</time>
      </trkpt>
      <trkpt lat="43.66601" lon="1.38955">
        <ele>118</ele>
        <time>2024-03-27T17:32:13Z</time>
      </trkpt>
      <trkpt lat="43.66602" lon="1.38952">
        <ele>119</ele>
        <time>2024-03-27T17:32:14Z</time>
      </trkpt>
      <trkpt lat="43.66602" lon="1.38948">
        <ele>119</ele>
        <time>2024-03-27T17:32:15Z</time>
      </trkpt>
      <trkpt lat="43.66602" lon="1.38945">
        <ele>119</ele>
        <time>2024-03-27T17:32:16Z</time>
      </trkpt>
      <trkpt lat="43.66602" lon="1.38941">
        <ele>119</ele>
        <time>2024-03-27T17:32:17Z</time>
      </trkpt>
      <trkpt lat="43.66602" lon="1.38936">
        <ele>118</ele>
        <time>2024-03-27T17:32:18Z</time>
      </trkpt>
      <trkpt lat="43.66602" lon="1.38934">
        <ele>118</ele>
        <time>2024-03-27T17:32:19Z</time>
      </trkpt>
      <trkpt lat="43.66602" lon="1.38931">
        <ele>118</ele>
        <time>2024-03-27T17:32:20Z</time>
      </trkpt>
      <trkpt lat="43.66602" lon="1.38927">
        <ele>118</ele>
        <time>2024-03-27T17:32:21Z</time>
      </trkpt>
      <trkpt lat="43.66603" lon="1.38923">
        <ele>118</ele>
        <time>2024-03-27T17:32:22Z</time>
      </trkpt>
      <trkpt lat="43.66603" lon="1.38919">
        <ele>118</ele>
        <time>2024-03-27T17:32:23Z</time>
      </trkpt>
      <trkpt lat="43.66603" lon="1.38915">
        <ele>118</ele>
        <time>2024-03-27T17:32:24Z</time>
      </trkpt>
      <trkpt lat="43.66604" lon="1.38909">
        <ele>118</ele>
        <time>2024-03-27T17:32:25Z</time>
      </trkpt>
      <trkpt lat="43.66604" lon="1.38908">
        <ele>118</ele>
        <time>2024-03-27T17:32:26Z</time>
      </trkpt>
      <trkpt lat="43.66605" lon="1.38904">
        <ele>118</ele>
        <time>2024-03-27T17:32:27Z</time>
      </trkpt>
      <trkpt lat="43.66605" lon="1.389">
        <ele>118</ele>
        <time>2024-03-27T17:32:28Z</time>
      </trkpt>
      <trkpt lat="43.66606" lon="1.38896">
        <ele>118</ele>
        <time>2024-03-27T17:32:29Z</time>
      </trkpt>
      <trkpt lat="43.66606" lon="1.38892">
        <ele>118</ele>
        <time>2024-03-27T17:32:30Z</time>
      </trkpt>
      <trkpt lat="43.66607" lon="1.38889">
        <ele>118</ele>
        <time>2024-03-27T17:32:31Z</time>
      </trkpt>
      <trkpt lat="43.66608" lon="1.38882">
        <ele>119</ele>
        <time>2024-03-27T17:32:32Z</time>
      </trkpt>
      <trkpt lat="43.66608" lon="1.3888">
        <ele>119</ele>
        <time>2024-03-27T17:32:33Z</time>
      </trkpt>
      <trkpt lat="43.66608" lon="1.38876">
        <ele>119</ele>
        <time>2024-03-27T17:32:34Z</time>
      </trkpt>
      <trkpt lat="43.66608" lon="1.38872">
        <ele>119</ele>
        <time>2024-03-27T17:32:35Z</time>
      </trkpt>
      <trkpt lat="43.66609" lon="1.38868">
        <ele>119</ele>
        <time>2024-03-27T17:32:36Z</time>
      </trkpt>
      <trkpt lat="43.66608" lon="1.38861">
        <ele>119</ele>
        <time>2024-03-27T17:32:37Z</time>
      </trkpt>
      <trkpt lat="43.66608" lon="1.38859">
        <ele>119</ele>
        <time>2024-03-27T17:32:38Z</time>
      </trkpt>
      <trkpt lat="43.66608" lon="1.38855">
        <ele>118</ele>
        <time>2024-03-27T17:32:39Z</time>
      </trkpt>
      <trkpt lat="43.66607" lon="1.38851">
        <ele>118</ele>
        <time>2024-03-27T17:32:40Z</time>
      </trkpt>
      <trkpt lat="43.66606" lon="1.38847">
        <ele>118</ele>
        <time>2024-03-27T17:32:41Z</time>
      </trkpt>
      <trkpt lat="43.66605" lon="1.38843">
        <ele>118</ele>
        <time>2024-03-27T17:32:42Z</time>
      </trkpt>
      <trkpt lat="43.66605" lon="1.3884">
        <ele>118</ele>
        <time>2024-03-27T17:32:43Z</time>
      </trkpt>
      <trkpt lat="43.66604" lon="1.38836">
        <ele>118</ele>
        <time>2024-03-27T17:32:44Z</time>
      </trkpt>
      <trkpt lat="43.66604" lon="1.38832">
        <ele>118</ele>
        <time>2024-03-27T17:32:45Z</time>
      </trkpt>
      <trkpt lat="43.66603" lon="1.38828">
        <ele>118</ele>
        <time>2024-03-27T17:32:46Z</time>
      </trkpt>
      <trkpt lat="43.66603" lon="1.38825">
        <ele>118</ele>
        <time>2024-03-27T17:32:47Z</time>
      </trkpt>
      <trkpt lat="43.66602" lon="1.38821">
        <ele>118</ele>
        <time>2024-03-27T17:32:48Z</time>
      </trkpt>
      <trkpt lat="43.66602" lon="1.38818">
        <ele>118</ele>
        <time>2024-03-27T17:32:49Z</time>
      </trkpt>
      <trkpt lat="43.66602" lon="1.38814">
        <ele>118</ele>
        <time>2024-03-27T17:32:50Z</time>
      </trkpt>
      <trkpt lat="43.666" lon="1.38809">
        <ele>118</ele>
        <time>2024-03-27T17:32:51Z</time>
      </trkpt>
      <trkpt lat="43.666" lon="1.38807">
        <ele>118</ele>
        <time>2024-03-27T17:32:52Z</time>
      </trkpt>
      <trkpt lat="43.66599" lon="1.38803">
        <ele>118</ele>
        <time>2024-03-27T17:32:53Z</time>
      </trkpt>
      <trkpt lat="43.66598" lon="1.388">
        <ele>118</ele>
        <time>2024-03-27T17:32:54Z</time>
      </trkpt>
      <trkpt lat="43.66597" lon="1.38796">
        <ele>118</ele>
        <time>2024-03-27T17:32:55Z</time>
      </trkpt>
      <trkpt lat="43.66596" lon="1.38791">
        <ele>118</ele>
        <time>2024-03-27T17:32:56Z</time>
      </trkpt>
      <trkpt lat="43.66596" lon="1.38789">
        <ele>118</ele>
        <time>2024-03-27T17:32:57Z</time>
      </trkpt>
      <trkpt lat="43.66595" lon="1.38786">
        <ele>118</ele>
        <time>2024-03-27T17:32:58Z</time>
      </trkpt>
      <trkpt lat="43.66594" lon="1.38783">
        <ele>118</ele>
        <time>2024-03-27T17:32:59Z</time>
      </trkpt>
      <trkpt lat="43.66592" lon="1.38778">
        <ele>118</ele>
        <time>2024-03-27T17:33:00Z</time>
      </trkpt>
      <trkpt lat="43.66592" lon="1.38777">
        <ele>118</ele>
        <time>2024-03-27T17:33:01Z</time>
      </trkpt>
      <trkpt lat="43.6659" lon="1.38773">
        <ele>118</ele>
        <time>2024-03-27T17:33:02Z</time>
      </trkpt>
      <trkpt lat="43.66589" lon="1.3877">
        <ele>118</ele>
        <time>2024-03-27T17:33:03Z</time>
      </trkpt>
      <trkpt lat="43.66587" lon="1.38766">
        <ele>118</ele>
        <time>2024-03-27T17:33:04Z</time>
      </trkpt>
      <trkpt lat="43.66585" lon="1.38763">
        <ele>118</ele>
        <time>2024-03-27T17:33:05Z</time>
      </trkpt>
      <trkpt lat="43.66584" lon="1.3876">
        <ele>118</ele>
        <time>2024-03-27T17:33:06Z</time>
      </trkpt>
      <trkpt lat="43.66582" lon="1.38757">
        <ele>118</ele>
        <time>2024-03-27T17:33:07Z</time>
      </trkpt>
      <trkpt lat="43.6658" lon="1.38754">
        <ele>118</ele>
        <time>2024-03-27T17:33:08Z</time>
      </trkpt>
      <trkpt lat="43.66578" lon="1.38751">
        <ele>118</ele>
        <time>2024-03-27T17:33:09Z</time>
      </trkpt>
      <trkpt lat="43.66576" lon="1.38748">
        <ele>118</ele>
        <time>2024-03-27T17:33:10Z</time>
      </trkpt>
      <trkpt lat="43.66574" lon="1.38745">
        <ele>118</ele>
        <time>2024-03-27T17:33:11Z</time>
      </trkpt>
      <trkpt lat="43.66572" lon="1.38742">
        <ele>118</ele>
        <time>2024-03-27T17:33:12Z</time>
      </trkpt>
      <trkpt lat="43.6657" lon="1.38739">
        <ele>117</ele>
        <time>2024-03-27T17:33:13Z</time>
      </trkpt>
      <trkpt lat="43.66566" lon="1.38733">
        <ele>117</ele>
        <time>2024-03-27T17:33:14Z</time>
      </trkpt>
      <trkpt lat="43.66566" lon="1.38733">
        <ele>117</ele>
        <time>2024-03-27T17:33:15Z</time>
      </trkpt>
      <trkpt lat="43.66564" lon="1.38731">
        <ele>117</ele>
        <time>2024-03-27T17:33:16Z</time>
      </trkpt>
      <trkpt lat="43.66562" lon="1.38729">
        <ele>117</ele>
        <time>2024-03-27T17:33:17Z</time>
      </trkpt>
      <trkpt lat="43.66558" lon="1.38727">
        <ele>118</ele>
        <time>2024-03-27T17:33:18Z</time>
      </trkpt>
      <trkpt lat="43.66558" lon="1.38727">
        <ele>118</ele>
        <time>2024-03-27T17:33:19Z</time>
      </trkpt>
      <trkpt lat="43.66555" lon="1.38726">
        <ele>117</ele>
        <time>2024-03-27T17:33:20Z</time>
      </trkpt>
      <trkpt lat="43.66552" lon="1.38726">
        <ele>117</ele>
        <time>2024-03-27T17:33:21Z</time>
      </trkpt>
      <trkpt lat="43.6655" lon="1.38726">
        <ele>118</ele>
        <time>2024-03-27T17:33:22Z</time>
      </trkpt>
      <trkpt lat="43.66546" lon="1.38726">
        <ele>118</ele>
        <time>2024-03-27T17:33:23Z</time>
      </trkpt>
      <trkpt lat="43.66545" lon="1.38727">
        <ele>118</ele>
        <time>2024-03-27T17:33:24Z</time>
      </trkpt>
      <trkpt lat="43.66542" lon="1.38728">
        <ele>118</ele>
        <time>2024-03-27T17:33:25Z</time>
      </trkpt>
      <trkpt lat="43.66539" lon="1.38731">
        <ele>118</ele>
        <time>2024-03-27T17:33:26Z</time>
      </trkpt>
      <trkpt lat="43.66538" lon="1.38732">
        <ele>118</ele>
        <time>2024-03-27T17:33:27Z</time>
      </trkpt>
      <trkpt lat="43.66536" lon="1.38734">
        <ele>118</ele>
        <time>2024-03-27T17:33:28Z</time>
      </trkpt>
      <trkpt lat="43.66534" lon="1.38736">
        <ele>118</ele>
        <time>2024-03-27T17:33:29Z</time>
      </trkpt>
      <trkpt lat="43.66531" lon="1.3874">
        <ele>118</ele>
        <time>2024-03-27T17:33:30Z</time>
      </trkpt>
      <trkpt lat="43.6653" lon="1.38741">
        <ele>118</ele>
        <time>2024-03-27T17:33:31Z</time>
      </trkpt>
      <trkpt lat="43.66528" lon="1.38743">
        <ele>119</ele>
        <time>2024-03-27T17:33:32Z</time>
      </trkpt>
      <trkpt lat="43.66526" lon="1.38745">
        <ele>119</ele>
        <time>2024-03-27T17:33:33Z</time>
      </trkpt>
      <trkpt lat="43.66523" lon="1.38748">
        <ele>119</ele>
        <time>2024-03-27T17:33:34Z</time>
      </trkpt>
      <trkpt lat="43.66522" lon="1.38749">
        <ele>118</ele>
        <time>2024-03-27T17:33:35Z</time>
      </trkpt>
      <trkpt lat="43.6652" lon="1.38751">
        <ele>118</ele>
        <time>2024-03-27T17:33:36Z</time>
      </trkpt>
      <trkpt lat="43.66517" lon="1.38755">
        <ele>118</ele>
        <time>2024-03-27T17:33:37Z</time>
      </trkpt>
      <trkpt lat="43.66516" lon="1.38756">
        <ele>118</ele>
        <time>2024-03-27T17:33:38Z</time>
      </trkpt>
      <trkpt lat="43.66514" lon="1.38759">
        <ele>118</ele>
        <time>2024-03-27T17:33:39Z</time>
      </trkpt>
      <trkpt lat="43.66512" lon="1.38762">
        <ele>118</ele>
        <time>2024-03-27T17:33:40Z</time>
      </trkpt>
      <trkpt lat="43.66509" lon="1.38764">
        <ele>118</ele>
        <time>2024-03-27T17:33:41Z</time>
      </trkpt>
      <trkpt lat="43.66508" lon="1.38766">
        <ele>118</ele>
        <time>2024-03-27T17:33:42Z</time>
      </trkpt>
      <trkpt lat="43.66505" lon="1.38768">
        <ele>119</ele>
        <time>2024-03-27T17:33:43Z</time>
      </trkpt>
      <trkpt lat="43.66504" lon="1.3877">
        <ele>119</ele>
        <time>2024-03-27T17:33:44Z</time>
      </trkpt>
      <trkpt lat="43.66501" lon="1.38772">
        <ele>119</ele>
        <time>2024-03-27T17:33:45Z</time>
      </trkpt>
      <trkpt lat="43.66499" lon="1.38775">
        <ele>119</ele>
        <time>2024-03-27T17:33:46Z</time>
      </trkpt>
      <trkpt lat="43.66498" lon="1.38777">
        <ele>119</ele>
        <time>2024-03-27T17:33:47Z</time>
      </trkpt>
      <trkpt lat="43.66495" lon="1.3878">
        <ele>119</ele>
        <time>2024-03-27T17:33:48Z</time>
      </trkpt>
      <trkpt lat="43.66494" lon="1.38781">
        <ele>119</ele>
        <time>2024-03-27T17:33:49Z</time>
      </trkpt>
      <trkpt lat="43.66492" lon="1.38785">
        <ele>119</ele>
        <time>2024-03-27T17:33:50Z</time>
      </trkpt>
      <trkpt lat="43.66491" lon="1.38785">
        <ele>119</ele>
        <time>2024-03-27T17:33:51Z</time>
      </trkpt>
      <trkpt lat="43.66489" lon="1.38787">
        <ele>119</ele>
        <time>2024-03-27T17:33:52Z</time>
      </trkpt>
      <trkpt lat="43.66487" lon="1.38789">
        <ele>119</ele>
        <time>2024-03-27T17:33:53Z</time>
      </trkpt>
      <trkpt lat="43.66485" lon="1.38791">
        <ele>119</ele>
        <time>2024-03-27T17:33:54Z</time>
      </trkpt>
      <trkpt lat="43.66483" lon="1.38793">
        <ele>119</ele>
        <time>2024-03-27T17:33:55Z</time>
      </trkpt>
      <trkpt lat="43.6648" lon="1.38796">
        <ele>119</ele>
        <time>2024-03-27T17:33:56Z</time>
      </trkpt>
      <trkpt lat="43.66479" lon="1.38797">
        <ele>119</ele>
        <time>2024-03-27T17:33:57Z</time>
      </trkpt>
      <trkpt lat="43.66476" lon="1.388">
        <ele>119</ele>
        <time>2024-03-27T17:33:58Z</time>
      </trkpt>
      <trkpt lat="43.66473" lon="1.38802">
        <ele>119</ele>
        <time>2024-03-27T17:33:59Z</time>
      </trkpt>
      <trkpt lat="43.66471" lon="1.38804">
        <ele>119</ele>
        <time>2024-03-27T17:34:00Z</time>
      </trkpt>
      <trkpt lat="43.66468" lon="1.38806">
        <ele>119</ele>
        <time>2024-03-27T17:34:01Z</time>
      </trkpt>
      <trkpt lat="43.66465" lon="1.38808">
        <ele>119</ele>
        <time>2024-03-27T17:34:02Z</time>
      </trkpt>
      <trkpt lat="43.66462" lon="1.3881">
        <ele>119</ele>
        <time>2024-03-27T17:34:03Z</time>
      </trkpt>
      <trkpt lat="43.66459" lon="1.38812">
        <ele>119</ele>
        <time>2024-03-27T17:34:04Z</time>
      </trkpt>
      <trkpt lat="43.66456" lon="1.38814">
        <ele>119</ele>
        <time>2024-03-27T17:34:05Z</time>
      </trkpt>
      <trkpt lat="43.66454" lon="1.38817">
        <ele>119</ele>
        <time>2024-03-27T17:34:06Z</time>
      </trkpt>
      <trkpt lat="43.66451" lon="1.38819">
        <ele>119</ele>
        <time>2024-03-27T17:34:07Z</time>
      </trkpt>
      <trkpt lat="43.66449" lon="1.38821">
        <ele>119</ele>
        <time>2024-03-27T17:34:08Z</time>
      </trkpt>
      <trkpt lat="43.66447" lon="1.38822">
        <ele>118</ele>
        <time>2024-03-27T17:34:09Z</time>
      </trkpt>
      <trkpt lat="43.66445" lon="1.38824">
        <ele>118</ele>
        <time>2024-03-27T17:34:10Z</time>
      </trkpt>
      <trkpt lat="43.66441" lon="1.38826">
        <ele>118</ele>
        <time>2024-03-27T17:34:11Z</time>
      </trkpt>
      <trkpt lat="43.66441" lon="1.38826">
        <ele>119</ele>
        <time>2024-03-27T17:34:12Z</time>
      </trkpt>
      <trkpt lat="43.66438" lon="1.38828">
        <ele>119</ele>
        <time>2024-03-27T17:34:13Z</time>
      </trkpt>
      <trkpt lat="43.66436" lon="1.38829">
        <ele>119</ele>
        <time>2024-03-27T17:34:14Z</time>
      </trkpt>
      <trkpt lat="43.66433" lon="1.38831">
        <ele>119</ele>
        <time>2024-03-27T17:34:15Z</time>
      </trkpt>
      <trkpt lat="43.66431" lon="1.38833">
        <ele>119</ele>
        <time>2024-03-27T17:34:16Z</time>
      </trkpt>
      <trkpt lat="43.66429" lon="1.38835">
        <ele>119</ele>
        <time>2024-03-27T17:34:17Z</time>
      </trkpt>
      <trkpt lat="43.66426" lon="1.38838">
        <ele>119</ele>
        <time>2024-03-27T17:34:18Z</time>
      </trkpt>
      <trkpt lat="43.66425" lon="1.38839">
        <ele>119</ele>
        <time>2024-03-27T17:34:19Z</time>
      </trkpt>
      <trkpt lat="43.66423" lon="1.38841">
        <ele>119</ele>
        <time>2024-03-27T17:34:20Z</time>
      </trkpt>
      <trkpt lat="43.6642" lon="1.38843">
        <ele>119</ele>
        <time>2024-03-27T17:34:21Z</time>
      </trkpt>
      <trkpt lat="43.66418" lon="1.38845">
        <ele>119</ele>
        <time>2024-03-27T17:34:22Z</time>
      </trkpt>
      <trkpt lat="43.66415" lon="1.38847">
        <ele>119</ele>
        <time>2024-03-27T17:34:23Z</time>
      </trkpt>
      <trkpt lat="43.66413" lon="1.38848">
        <ele>119</ele>
        <time>2024-03-27T17:34:24Z</time>
      </trkpt>
      <trkpt lat="43.6641" lon="1.38851">
        <ele>119</ele>
        <time>2024-03-27T17:34:25Z</time>
      </trkpt>
      <trkpt lat="43.66408" lon="1.38853">
        <ele>119</ele>
        <time>2024-03-27T17:34:26Z</time>
      </trkpt>
      <trkpt lat="43.66405" lon="1.38856">
        <ele>119</ele>
        <time>2024-03-27T17:34:27Z</time>
      </trkpt>
      <trkpt lat="43.66403" lon="1.38858">
        <ele>118</ele>
        <time>2024-03-27T17:34:28Z</time>
      </trkpt>
      <trkpt lat="43.664" lon="1.3886">
        <ele>118</ele>
        <time>2024-03-27T17:34:29Z</time>
      </trkpt>
      <trkpt lat="43.66395" lon="1.38865">
        <ele>118</ele>
        <time>2024-03-27T17:34:30Z</time>
      </trkpt>
      <trkpt lat="43.66395" lon="1.38865">
        <ele>118</ele>
        <time>2024-03-27T17:34:31Z</time>
      </trkpt>
      <trkpt lat="43.66391" lon="1.38869">
        <ele>118</ele>
        <time>2024-03-27T17:34:32Z</time>
      </trkpt>
      <trkpt lat="43.6639" lon="1.38871">
        <ele>118</ele>
        <time>2024-03-27T17:34:33Z</time>
      </trkpt>
      <trkpt lat="43.66387" lon="1.38873">
        <ele>118</ele>
        <time>2024-03-27T17:34:34Z</time>
      </trkpt>
      <trkpt lat="43.66384" lon="1.38877">
        <ele>118</ele>
        <time>2024-03-27T17:34:35Z</time>
      </trkpt>
      <trkpt lat="43.66383" lon="1.38878">
        <ele>118</ele>
        <time>2024-03-27T17:34:36Z</time>
      </trkpt>
      <trkpt lat="43.66381" lon="1.38881">
        <ele>118</ele>
        <time>2024-03-27T17:34:37Z</time>
      </trkpt>
      <trkpt lat="43.66379" lon="1.38884">
        <ele>119</ele>
        <time>2024-03-27T17:34:38Z</time>
      </trkpt>
      <trkpt lat="43.66376" lon="1.38887">
        <ele>119</ele>
        <time>2024-03-27T17:34:39Z</time>
      </trkpt>
      <trkpt lat="43.66375" lon="1.38889">
        <ele>118</ele>
        <time>2024-03-27T17:34:40Z</time>
      </trkpt>
      <trkpt lat="43.66373" lon="1.38891">
        <ele>118</ele>
        <time>2024-03-27T17:34:41Z</time>
      </trkpt>
      <trkpt lat="43.6637" lon="1.38895">
        <ele>118</ele>
        <time>2024-03-27T17:34:42Z</time>
      </trkpt>
      <trkpt lat="43.66369" lon="1.38896">
        <ele>118</ele>
        <time>2024-03-27T17:34:43Z</time>
      </trkpt>
      <trkpt lat="43.66366" lon="1.389">
        <ele>118</ele>
        <time>2024-03-27T17:34:44Z</time>
      </trkpt>
      <trkpt lat="43.66365" lon="1.38901">
        <ele>118</ele>
        <time>2024-03-27T17:34:45Z</time>
      </trkpt>
      <trkpt lat="43.66363" lon="1.38904">
        <ele>118</ele>
        <time>2024-03-27T17:34:46Z</time>
      </trkpt>
      <trkpt lat="43.66361" lon="1.38907">
        <ele>118</ele>
        <time>2024-03-27T17:34:47Z</time>
      </trkpt>
      <trkpt lat="43.66359" lon="1.38911">
        <ele>118</ele>
        <time>2024-03-27T17:34:48Z</time>
      </trkpt>
      <trkpt lat="43.66357" lon="1.38916">
        <ele>118</ele>
        <time>2024-03-27T17:34:49Z</time>
      </trkpt>
      <trkpt lat="43.66357" lon="1.38916">
        <ele>118</ele>
        <time>2024-03-27T17:34:50Z</time>
      </trkpt>
      <trkpt lat="43.66355" lon="1.3892">
        <ele>118</ele>
        <time>2024-03-27T17:34:51Z</time>
      </trkpt>
      <trkpt lat="43.66353" lon="1.38922">
        <ele>118</ele>
        <time>2024-03-27T17:34:52Z</time>
      </trkpt>
      <trkpt lat="43.66351" lon="1.38925">
        <ele>118</ele>
        <time>2024-03-27T17:34:53Z</time>
      </trkpt>
      <trkpt lat="43.66349" lon="1.38928">
        <ele>118</ele>
        <time>2024-03-27T17:34:54Z</time>
      </trkpt>
      <trkpt lat="43.66347" lon="1.38931">
        <ele>118</ele>
        <time>2024-03-27T17:34:55Z</time>
      </trkpt>
      <trkpt lat="43.66342" lon="1.38935">
        <ele>118</ele>
        <time>2024-03-27T17:34:56Z</time>
      </trkpt>
      <trkpt lat="43.66342" lon="1.38935">
        <ele>118</ele>
        <time>2024-03-27T17:34:57Z</time>
      </trkpt>
      <trkpt lat="43.6634" lon="1.38937">
        <ele>118</ele>
        <time>2024-03-27T17:34:58Z</time>
      </trkpt>
      <trkpt lat="43.66338" lon="1.38939">
        <ele>119</ele>
        <time>2024-03-27T17:34:59Z</time>
      </trkpt>
      <trkpt lat="43.66336" lon="1.38941">
        <ele>119</ele>
        <time>2024-03-27T17:35:00Z</time>
      </trkpt>
      <trkpt lat="43.66335" lon="1.38944">
        <ele>119</ele>
        <time>2024-03-27T17:35:01Z</time>
      </trkpt>
      <trkpt lat="43.66333" lon="1.38947">
        <ele>119</ele>
        <time>2024-03-27T17:35:02Z</time>
      </trkpt>
      <trkpt lat="43.6633" lon="1.3895">
        <ele>119</ele>
        <time>2024-03-27T17:35:03Z</time>
      </trkpt>
      <trkpt lat="43.66327" lon="1.38953">
        <ele>119</ele>
        <time>2024-03-27T17:35:04Z</time>
      </trkpt>
      <trkpt lat="43.66326" lon="1.38954">
        <ele>119</ele>
        <time>2024-03-27T17:35:05Z</time>
      </trkpt>
      <trkpt lat="43.66321" lon="1.38955">
        <ele>119</ele>
        <time>2024-03-27T17:35:06Z</time>
      </trkpt>
      <trkpt lat="43.6632" lon="1.38956">
        <ele>118</ele>
        <time>2024-03-27T17:35:07Z</time>
      </trkpt>
      <trkpt lat="43.66315" lon="1.3896">
        <ele>119</ele>
        <time>2024-03-27T17:35:08Z</time>
      </trkpt>
      <trkpt lat="43.66315" lon="1.3896">
        <ele>119</ele>
        <time>2024-03-27T17:35:09Z</time>
      </trkpt>
      <trkpt lat="43.66313" lon="1.38964">
        <ele>119</ele>
        <time>2024-03-27T17:35:10Z</time>
      </trkpt>
      <trkpt lat="43.66312" lon="1.38966">
        <ele>118</ele>
        <time>2024-03-27T17:35:11Z</time>
      </trkpt>
      <trkpt lat="43.66311" lon="1.38968">
        <ele>118</ele>
        <time>2024-03-27T17:35:12Z</time>
      </trkpt>
      <trkpt lat="43.66309" lon="1.38971">
        <ele>118</ele>
        <time>2024-03-27T17:35:13Z</time>
      </trkpt>
      <trkpt lat="43.66309" lon="1.38971">
        <ele>118</ele>
        <time>2024-03-27T17:35:14Z</time>
      </trkpt>
      <trkpt lat="43.66306" lon="1.38975">
        <ele>118</ele>
        <time>2024-03-27T17:35:15Z</time>
      </trkpt>
      <trkpt lat="43.66304" lon="1.3898">
        <ele>118</ele>
        <time>2024-03-27T17:35:16Z</time>
      </trkpt>
      <trkpt lat="43.66303" lon="1.38981">
        <ele>118</ele>
        <time>2024-03-27T17:35:17Z</time>
      </trkpt>
      <trkpt lat="43.66301" lon="1.38983">
        <ele>118</ele>
        <time>2024-03-27T17:35:18Z</time>
      </trkpt>
      <trkpt lat="43.663" lon="1.38986">
        <ele>118</ele>
        <time>2024-03-27T17:35:19Z</time>
      </trkpt>
      <trkpt lat="43.66298" lon="1.38989">
        <ele>119</ele>
        <time>2024-03-27T17:35:20Z</time>
      </trkpt>
      <trkpt lat="43.66296" lon="1.38992">
        <ele>119</ele>
        <time>2024-03-27T17:35:21Z</time>
      </trkpt>
      <trkpt lat="43.66294" lon="1.38995">
        <ele>119</ele>
        <time>2024-03-27T17:35:22Z</time>
      </trkpt>
      <trkpt lat="43.66293" lon="1.38998">
        <ele>119</ele>
        <time>2024-03-27T17:35:23Z</time>
      </trkpt>
      <trkpt lat="43.6629" lon="1.39004">
        <ele>119</ele>
        <time>2024-03-27T17:35:24Z</time>
      </trkpt>
      <trkpt lat="43.6629" lon="1.39006">
        <ele>119</ele>
        <time>2024-03-27T17:35:25Z</time>
      </trkpt>
      <trkpt lat="43.66288" lon="1.39009">
        <ele>119</ele>
        <time>2024-03-27T17:35:26Z</time>
      </trkpt>
      <trkpt lat="43.66285" lon="1.39016">
        <ele>118</ele>
        <time>2024-03-27T17:35:27Z</time>
      </trkpt>
      <trkpt lat="43.66285" lon="1.39016">
        <ele>118</ele>
        <time>2024-03-27T17:35:28Z</time>
      </trkpt>
      <trkpt lat="43.66283" lon="1.39019">
        <ele>118</ele>
        <time>2024-03-27T17:35:29Z</time>
      </trkpt>
      <trkpt lat="43.66281" lon="1.39022">
        <ele>118</ele>
        <time>2024-03-27T17:35:30Z</time>
      </trkpt>
      <trkpt lat="43.66278" lon="1.39026">
        <ele>118</ele>
        <time>2024-03-27T17:35:31Z</time>
      </trkpt>
      <trkpt lat="43.66277" lon="1.39027">
        <ele>119</ele>
        <time>2024-03-27T17:35:32Z</time>
      </trkpt>
      <trkpt lat="43.66276" lon="1.39031">
        <ele>119</ele>
        <time>2024-03-27T17:35:33Z</time>
      </trkpt>
      <trkpt lat="43.66274" lon="1.39034">
        <ele>118</ele>
        <time>2024-03-27T17:35:34Z</time>
      </trkpt>
      <trkpt lat="43.66274" lon="1.39037">
        <ele>119</ele>
        <time>2024-03-27T17:35:35Z</time>
      </trkpt>
      <trkpt lat="43.66273" lon="1.39041">
        <ele>119</ele>
        <time>2024-03-27T17:35:36Z</time>
      </trkpt>
      <trkpt lat="43.66273" lon="1.39045">
        <ele>119</ele>
        <time>2024-03-27T17:35:37Z</time>
      </trkpt>
      <trkpt lat="43.66273" lon="1.39049">
        <ele>119</ele>
        <time>2024-03-27T17:35:38Z</time>
      </trkpt>
      <trkpt lat="43.66273" lon="1.39053">
        <ele>119</ele>
        <time>2024-03-27T17:35:39Z</time>
      </trkpt>
      <trkpt lat="43.66272" lon="1.39057">
        <ele>119</ele>
        <time>2024-03-27T17:35:40Z</time>
      </trkpt>
      <trkpt lat="43.66272" lon="1.39062">
        <ele>119</ele>
        <time>2024-03-27T17:35:41Z</time>
      </trkpt>
      <trkpt lat="43.66272" lon="1.39064">
        <ele>119</ele>
        <time>2024-03-27T17:35:42Z</time>
      </trkpt>
      <trkpt lat="43.66271" lon="1.39068">
        <ele>118</ele>
        <time>2024-03-27T17:35:43Z</time>
      </trkpt>
      <trkpt lat="43.6627" lon="1.39072">
        <ele>118</ele>
        <time>2024-03-27T17:35:44Z</time>
      </trkpt>
      <trkpt lat="43.66269" lon="1.39075">
        <ele>118</ele>
        <time>2024-03-27T17:35:45Z</time>
      </trkpt>
      <trkpt lat="43.66266" lon="1.39082">
        <ele>118</ele>
        <time>2024-03-27T17:35:46Z</time>
      </trkpt>
      <trkpt lat="43.66266" lon="1.39082">
        <ele>118</ele>
        <time>2024-03-27T17:35:47Z</time>
      </trkpt>
      <trkpt lat="43.66265" lon="1.39086">
        <ele>118</ele>
        <time>2024-03-27T17:35:48Z</time>
      </trkpt>
      <trkpt lat="43.66264" lon="1.3909">
        <ele>118</ele>
        <time>2024-03-27T17:35:49Z</time>
      </trkpt>
      <trkpt lat="43.66262" lon="1.39093">
        <ele>118</ele>
        <time>2024-03-27T17:35:50Z</time>
      </trkpt>
      <trkpt lat="43.6626" lon="1.39097">
        <ele>119</ele>
        <time>2024-03-27T17:35:51Z</time>
      </trkpt>
      <trkpt lat="43.66259" lon="1.39101">
        <ele>119</ele>
        <time>2024-03-27T17:35:52Z</time>
      </trkpt>
      <trkpt lat="43.66257" lon="1.39105">
        <ele>119</ele>
        <time>2024-03-27T17:35:53Z</time>
      </trkpt>
      <trkpt lat="43.66256" lon="1.39108">
        <ele>120</ele>
        <time>2024-03-27T17:35:54Z</time>
      </trkpt>
      <trkpt lat="43.66254" lon="1.39112">
        <ele>120</ele>
        <time>2024-03-27T17:35:55Z</time>
      </trkpt>
      <trkpt lat="43.66253" lon="1.39115">
        <ele>120</ele>
        <time>2024-03-27T17:35:56Z</time>
      </trkpt>
      <trkpt lat="43.66253" lon="1.39121">
        <ele>120</ele>
        <time>2024-03-27T17:35:57Z</time>
      </trkpt>
      <trkpt lat="43.66253" lon="1.39122">
        <ele>120</ele>
        <time>2024-03-27T17:35:58Z</time>
      </trkpt>
      <trkpt lat="43.66253" lon="1.39126">
        <ele>120</ele>
        <time>2024-03-27T17:35:59Z</time>
      </trkpt>
      <trkpt lat="43.66254" lon="1.39131">
        <ele>120</ele>
        <time>2024-03-27T17:36:00Z</time>
      </trkpt>
      <trkpt lat="43.66254" lon="1.39133">
        <ele>120</ele>
        <time>2024-03-27T17:36:01Z</time>
      </trkpt>
      <trkpt lat="43.66255" lon="1.39137">
        <ele>120</ele>
        <time>2024-03-27T17:36:02Z</time>
      </trkpt>
      <trkpt lat="43.66255" lon="1.39142">
        <ele>120</ele>
        <time>2024-03-27T17:36:03Z</time>
      </trkpt>
      <trkpt lat="43.66255" lon="1.39144">
        <ele>120</ele>
        <time>2024-03-27T17:36:04Z</time>
      </trkpt>
      <trkpt lat="43.66255" lon="1.39152">
        <ele>120</ele>
        <time>2024-03-27T17:36:05Z</time>
      </trkpt>
      <trkpt lat="43.66255" lon="1.39152">
        <ele>120</ele>
        <time>2024-03-27T17:36:06Z</time>
      </trkpt>
      <trkpt lat="43.66254" lon="1.39157">
        <ele>120</ele>
        <time>2024-03-27T17:36:07Z</time>
      </trkpt>
      <trkpt lat="43.66254" lon="1.39159">
        <ele>120</ele>
        <time>2024-03-27T17:36:08Z</time>
      </trkpt>
      <trkpt lat="43.66253" lon="1.39162">
        <ele>120</ele>
        <time>2024-03-27T17:36:09Z</time>
      </trkpt>
      <trkpt lat="43.66251" lon="1.39165">
        <ele>120</ele>
        <time>2024-03-27T17:36:10Z</time>
      </trkpt>
      <trkpt lat="43.66249" lon="1.39167">
        <ele>120</ele>
        <time>2024-03-27T17:36:11Z</time>
      </trkpt>
      <trkpt lat="43.66244" lon="1.39167">
        <ele>120</ele>
        <time>2024-03-27T17:36:12Z</time>
      </trkpt>
      <trkpt lat="43.66244" lon="1.39167">
        <ele>120</ele>
        <time>2024-03-27T17:36:13Z</time>
      </trkpt>
      <trkpt lat="43.66241" lon="1.39167">
        <ele>120</ele>
        <time>2024-03-27T17:36:14Z</time>
      </trkpt>
      <trkpt lat="43.66238" lon="1.39167">
        <ele>120</ele>
        <time>2024-03-27T17:36:15Z</time>
      </trkpt>
      <trkpt lat="43.66235" lon="1.39166">
        <ele>120</ele>
        <time>2024-03-27T17:36:16Z</time>
      </trkpt>
      <trkpt lat="43.66232" lon="1.39164">
        <ele>120</ele>
        <time>2024-03-27T17:36:17Z</time>
      </trkpt>
      <trkpt lat="43.6623" lon="1.39162">
        <ele>120</ele>
        <time>2024-03-27T17:36:18Z</time>
      </trkpt>
      <trkpt lat="43.66227" lon="1.3916">
        <ele>120</ele>
        <time>2024-03-27T17:36:19Z</time>
      </trkpt>
      <trkpt lat="43.66225" lon="1.39157">
        <ele>120</ele>
        <time>2024-03-27T17:36:20Z</time>
      </trkpt>
      <trkpt lat="43.66223" lon="1.39154">
        <ele>120</ele>
        <time>2024-03-27T17:36:21Z</time>
      </trkpt>
      <trkpt lat="43.6622" lon="1.3915">
        <ele>120</ele>
        <time>2024-03-27T17:36:22Z</time>
      </trkpt>
      <trkpt lat="43.6622" lon="1.39148">
        <ele>120</ele>
        <time>2024-03-27T17:36:23Z</time>
      </trkpt>
      <trkpt lat="43.66218" lon="1.39146">
        <ele>120</ele>
        <time>2024-03-27T17:36:24Z</time>
      </trkpt>
      <trkpt lat="43.66217" lon="1.39144">
        <ele>120</ele>
        <time>2024-03-27T17:36:25Z</time>
      </trkpt>
      <trkpt lat="43.66217" lon="1.39144">
        <ele>120</ele>
        <time>2024-03-27T17:36:26Z</time>
      </trkpt>
      <trkpt lat="43.66213" lon="1.39143">
        <ele>120</ele>
        <time>2024-03-27T17:36:27Z</time>
      </trkpt>
      <trkpt lat="43.6621" lon="1.39144">
        <ele>120</ele>
        <time>2024-03-27T17:36:28Z</time>
      </trkpt>
      <trkpt lat="43.66207" lon="1.39145">
        <ele>120</ele>
        <time>2024-03-27T17:36:29Z</time>
      </trkpt>
      <trkpt lat="43.66205" lon="1.39147">
        <ele>120</ele>
        <time>2024-03-27T17:36:30Z</time>
      </trkpt>
      <trkpt lat="43.66202" lon="1.3915">
        <ele>120</ele>
        <time>2024-03-27T17:36:31Z</time>
      </trkpt>
      <trkpt lat="43.66201" lon="1.39151">
        <ele>120</ele>
        <time>2024-03-27T17:36:32Z</time>
      </trkpt>
      <trkpt lat="43.66196" lon="1.39154">
        <ele>120</ele>
        <time>2024-03-27T17:36:33Z</time>
      </trkpt>
      <trkpt lat="43.66196" lon="1.39154">
        <ele>120</ele>
        <time>2024-03-27T17:36:34Z</time>
      </trkpt>
      <trkpt lat="43.66194" lon="1.39156">
        <ele>120</ele>
        <time>2024-03-27T17:36:35Z</time>
      </trkpt>
      <trkpt lat="43.66192" lon="1.39158">
        <ele>120</ele>
        <time>2024-03-27T17:36:36Z</time>
      </trkpt>
      <trkpt lat="43.66189" lon="1.39161">
        <ele>120</ele>
        <time>2024-03-27T17:36:37Z</time>
      </trkpt>
      <trkpt lat="43.66188" lon="1.39163">
        <ele>120</ele>
        <time>2024-03-27T17:36:38Z</time>
      </trkpt>
      <trkpt lat="43.66186" lon="1.39165">
        <ele>120</ele>
        <time>2024-03-27T17:36:39Z</time>
      </trkpt>
      <trkpt lat="43.66184" lon="1.39166">
        <ele>120</ele>
        <time>2024-03-27T17:36:40Z</time>
      </trkpt>
      <trkpt lat="43.6618" lon="1.3917">
        <ele>120</ele>
        <time>2024-03-27T17:36:41Z</time>
      </trkpt>
      <trkpt lat="43.66179" lon="1.39171">
        <ele>120</ele>
        <time>2024-03-27T17:36:42Z</time>
      </trkpt>
      <trkpt lat="43.66178" lon="1.39173">
        <ele>120</ele>
        <time>2024-03-27T17:36:43Z</time>
      </trkpt>
      <trkpt lat="43.66176" lon="1.39175">
        <ele>120</ele>
        <time>2024-03-27T17:36:44Z</time>
      </trkpt>
      <trkpt lat="43.66174" lon="1.39177">
        <ele>120</ele>
        <time>2024-03-27T17:36:45Z</time>
      </trkpt>
      <trkpt lat="43.66172" lon="1.39179">
        <ele>120</ele>
        <time>2024-03-27T17:36:46Z</time>
      </trkpt>
      <trkpt lat="43.66168" lon="1.39182">
        <ele>120</ele>
        <time>2024-03-27T17:36:47Z</time>
      </trkpt>
      <trkpt lat="43.66167" lon="1.39182">
        <ele>120</ele>
        <time>2024-03-27T17:36:48Z</time>
      </trkpt>
      <trkpt lat="43.66165" lon="1.39184">
        <ele>121</ele>
        <time>2024-03-27T17:36:49Z</time>
      </trkpt>
      <trkpt lat="43.66161" lon="1.39185">
        <ele>121</ele>
        <time>2024-03-27T17:36:50Z</time>
      </trkpt>
      <trkpt lat="43.66159" lon="1.39186">
        <ele>121</ele>
        <time>2024-03-27T17:36:51Z</time>
      </trkpt>
      <trkpt lat="43.66156" lon="1.39188">
        <ele>121</ele>
        <time>2024-03-27T17:36:52Z</time>
      </trkpt>
      <trkpt lat="43.66153" lon="1.3919">
        <ele>121</ele>
        <time>2024-03-27T17:36:53Z</time>
      </trkpt>
      <trkpt lat="43.66151" lon="1.39191">
        <ele>121</ele>
        <time>2024-03-27T17:36:54Z</time>
      </trkpt>
      <trkpt lat="43.66149" lon="1.39192">
        <ele>121</ele>
        <time>2024-03-27T17:36:55Z</time>
      </trkpt>
      <trkpt lat="43.66144" lon="1.39193">
        <ele>121</ele>
        <time>2024-03-27T17:36:56Z</time>
      </trkpt>
      <trkpt lat="43.66143" lon="1.39193">
        <ele>121</ele>
        <time>2024-03-27T17:36:57Z</time>
      </trkpt>
      <trkpt lat="43.6614" lon="1.39193">
        <ele>121</ele>
        <time>2024-03-27T17:36:58Z</time>
      </trkpt>
      <trkpt lat="43.66137" lon="1.39194">
        <ele>121</ele>
        <time>2024-03-27T17:36:59Z</time>
      </trkpt>
      <trkpt lat="43.66133" lon="1.39196">
        <ele>121</ele>
        <time>2024-03-27T17:37:00Z</time>
      </trkpt>
      <trkpt lat="43.66132" lon="1.39197">
        <ele>121</ele>
        <time>2024-03-27T17:37:01Z</time>
      </trkpt>
      <trkpt lat="43.66126" lon="1.392">
        <ele>121</ele>
        <time>2024-03-27T17:37:02Z</time>
      </trkpt>
      <trkpt lat="43.66126" lon="1.392">
        <ele>121</ele>
        <time>2024-03-27T17:37:03Z</time>
      </trkpt>
      <trkpt lat="43.66124" lon="1.392">
        <ele>121</ele>
        <time>2024-03-27T17:37:04Z</time>
      </trkpt>
      <trkpt lat="43.66121" lon="1.392">
        <ele>121</ele>
        <time>2024-03-27T17:37:05Z</time>
      </trkpt>
      <trkpt lat="43.66119" lon="1.392">
        <ele>121</ele>
        <time>2024-03-27T17:37:06Z</time>
      </trkpt>
      <trkpt lat="43.66117" lon="1.39201">
        <ele>121</ele>
        <time>2024-03-27T17:37:07Z</time>
      </trkpt>
      <trkpt lat="43.66115" lon="1.39201">
        <ele>121</ele>
        <time>2024-03-27T17:37:08Z</time>
      </trkpt>
      <trkpt lat="43.66111" lon="1.39202">
        <ele>121</ele>
        <time>2024-03-27T17:37:09Z</time>
      </trkpt>
      <trkpt lat="43.6611" lon="1.39203">
        <ele>121</ele>
        <time>2024-03-27T17:37:10Z</time>
      </trkpt>
      <trkpt lat="43.66106" lon="1.39206">
        <ele>121</ele>
        <time>2024-03-27T17:37:11Z</time>
      </trkpt>
      <trkpt lat="43.66105" lon="1.39207">
        <ele>121</ele>
        <time>2024-03-27T17:37:12Z</time>
      </trkpt>
      <trkpt lat="43.66103" lon="1.3921">
        <ele>121</ele>
        <time>2024-03-27T17:37:13Z</time>
      </trkpt>
      <trkpt lat="43.661" lon="1.39212">
        <ele>121</ele>
        <time>2024-03-27T17:37:14Z</time>
      </trkpt>
      <trkpt lat="43.66098" lon="1.39214">
        <ele>121</ele>
        <time>2024-03-27T17:37:15Z</time>
      </trkpt>
      <trkpt lat="43.66095" lon="1.39216">
        <ele>121</ele>
        <time>2024-03-27T17:37:16Z</time>
      </trkpt>
      <trkpt lat="43.66093" lon="1.39217">
        <ele>121</ele>
        <time>2024-03-27T17:37:17Z</time>
      </trkpt>
      <trkpt lat="43.66091" lon="1.39218">
        <ele>120</ele>
        <time>2024-03-27T17:37:18Z</time>
      </trkpt>
      <trkpt lat="43.66087" lon="1.3922">
        <ele>121</ele>
        <time>2024-03-27T17:37:19Z</time>
      </trkpt>
      <trkpt lat="43.66085" lon="1.39221">
        <ele>121</ele>
        <time>2024-03-27T17:37:20Z</time>
      </trkpt>
      <trkpt lat="43.66082" lon="1.39222">
        <ele>121</ele>
        <time>2024-03-27T17:37:21Z</time>
      </trkpt>
      <trkpt lat="43.66082" lon="1.39222">
        <ele>121</ele>
        <time>2024-03-27T17:37:22Z</time>
      </trkpt>
      <trkpt lat="43.66075" lon="1.39223">
        <ele>121</ele>
        <time>2024-03-27T17:37:23Z</time>
      </trkpt>
      <trkpt lat="43.66074" lon="1.39224">
        <ele>121</ele>
        <time>2024-03-27T17:37:24Z</time>
      </trkpt>
      <trkpt lat="43.66069" lon="1.39224">
        <ele>121</ele>
        <time>2024-03-27T17:37:25Z</time>
      </trkpt>
      <trkpt lat="43.66067" lon="1.39225">
        <ele>121</ele>
        <time>2024-03-27T17:37:26Z</time>
      </trkpt>
      <trkpt lat="43.66064" lon="1.39225">
        <ele>121</ele>
        <time>2024-03-27T17:37:27Z</time>
      </trkpt>
      <trkpt lat="43.66059" lon="1.39225">
        <ele>121</ele>
        <time>2024-03-27T17:37:28Z</time>
      </trkpt>
      <trkpt lat="43.66058" lon="1.39225">
        <ele>121</ele>
        <time>2024-03-27T17:37:29Z</time>
      </trkpt>
      <trkpt lat="43.66055" lon="1.39225">
        <ele>121</ele>
        <time>2024-03-27T17:37:30Z</time>
      </trkpt>
      <trkpt lat="43.66051" lon="1.39226">
        <ele>121</ele>
        <time>2024-03-27T17:37:31Z</time>
      </trkpt>
      <trkpt lat="43.6605" lon="1.39226">
        <ele>121</ele>
        <time>2024-03-27T17:37:32Z</time>
      </trkpt>
      <trkpt lat="43.66047" lon="1.39226">
        <ele>121</ele>
        <time>2024-03-27T17:37:33Z</time>
      </trkpt>
      <trkpt lat="43.66044" lon="1.39226">
        <ele>121</ele>
        <time>2024-03-27T17:37:34Z</time>
      </trkpt>
      <trkpt lat="43.66042" lon="1.39226">
        <ele>121</ele>
        <time>2024-03-27T17:37:35Z</time>
      </trkpt>
      <trkpt lat="43.66038" lon="1.39228">
        <ele>121</ele>
        <time>2024-03-27T17:37:36Z</time>
      </trkpt>
      <trkpt lat="43.66036" lon="1.39229">
        <ele>121</ele>
        <time>2024-03-27T17:37:37Z</time>
      </trkpt>
      <trkpt lat="43.66031" lon="1.39231">
        <ele>121</ele>
        <time>2024-03-27T17:37:38Z</time>
      </trkpt>
      <trkpt lat="43.6603" lon="1.39232">
        <ele>121</ele>
        <time>2024-03-27T17:37:39Z</time>
      </trkpt>
      <trkpt lat="43.66025" lon="1.39233">
        <ele>121</ele>
        <time>2024-03-27T17:37:40Z</time>
      </trkpt>
      <trkpt lat="43.66025" lon="1.39233">
        <ele>121</ele>
        <time>2024-03-27T17:37:41Z</time>
      </trkpt>
      <trkpt lat="43.66023" lon="1.39235">
        <ele>121</ele>
        <time>2024-03-27T17:37:42Z</time>
      </trkpt>
      <trkpt lat="43.6602" lon="1.39237">
        <ele>121</ele>
        <time>2024-03-27T17:37:43Z</time>
      </trkpt>
      <trkpt lat="43.66017" lon="1.39239">
        <ele>122</ele>
        <time>2024-03-27T17:37:44Z</time>
      </trkpt>
      <trkpt lat="43.66016" lon="1.3924">
        <ele>122</ele>
        <time>2024-03-27T17:37:45Z</time>
      </trkpt>
      <trkpt lat="43.66012" lon="1.39241">
        <ele>122</ele>
        <time>2024-03-27T17:37:46Z</time>
      </trkpt>
      <trkpt lat="43.66011" lon="1.39242">
        <ele>122</ele>
        <time>2024-03-27T17:37:47Z</time>
      </trkpt>
      <trkpt lat="43.66008" lon="1.39243">
        <ele>121</ele>
        <time>2024-03-27T17:37:48Z</time>
      </trkpt>
      <trkpt lat="43.66005" lon="1.39245">
        <ele>121</ele>
        <time>2024-03-27T17:37:49Z</time>
      </trkpt>
      <trkpt lat="43.66002" lon="1.39246">
        <ele>122</ele>
        <time>2024-03-27T17:37:50Z</time>
      </trkpt>
      <trkpt lat="43.65999" lon="1.39247">
        <ele>122</ele>
        <time>2024-03-27T17:37:51Z</time>
      </trkpt>
      <trkpt lat="43.65997" lon="1.39248">
        <ele>122</ele>
        <time>2024-03-27T17:37:52Z</time>
      </trkpt>
      <trkpt lat="43.65994" lon="1.39249">
        <ele>122</ele>
        <time>2024-03-27T17:37:53Z</time>
      </trkpt>
      <trkpt lat="43.65992" lon="1.39249">
        <ele>122</ele>
        <time>2024-03-27T17:37:54Z</time>
      </trkpt>
      <trkpt lat="43.6599" lon="1.39249">
        <ele>122</ele>
        <time>2024-03-27T17:37:55Z</time>
      </trkpt>
      <trkpt lat="43.65987" lon="1.39249">
        <ele>121</ele>
        <time>2024-03-27T17:37:56Z</time>
      </trkpt>
      <trkpt lat="43.65984" lon="1.39248">
        <ele>121</ele>
        <time>2024-03-27T17:37:57Z</time>
      </trkpt>
      <trkpt lat="43.65982" lon="1.39249">
        <ele>121</ele>
        <time>2024-03-27T17:37:58Z</time>
      </trkpt>
      <trkpt lat="43.65978" lon="1.39251">
        <ele>121</ele>
        <time>2024-03-27T17:37:59Z</time>
      </trkpt>
      <trkpt lat="43.65978" lon="1.39251">
        <ele>121</ele>
        <time>2024-03-27T17:38:00Z</time>
      </trkpt>
      <trkpt lat="43.65974" lon="1.39253">
        <ele>121</ele>
        <time>2024-03-27T17:38:01Z</time>
      </trkpt>
      <trkpt lat="43.65973" lon="1.39254">
        <ele>121</ele>
        <time>2024-03-27T17:38:02Z</time>
      </trkpt>
      <trkpt lat="43.65969" lon="1.39255">
        <ele>121</ele>
        <time>2024-03-27T17:38:03Z</time>
      </trkpt>
      <trkpt lat="43.65968" lon="1.39255">
        <ele>120</ele>
        <time>2024-03-27T17:38:04Z</time>
      </trkpt>
      <trkpt lat="43.65965" lon="1.39256">
        <ele>120</ele>
        <time>2024-03-27T17:38:05Z</time>
      </trkpt>
      <trkpt lat="43.65962" lon="1.39256">
        <ele>120</ele>
        <time>2024-03-27T17:38:06Z</time>
      </trkpt>
      <trkpt lat="43.65959" lon="1.39256">
        <ele>120</ele>
        <time>2024-03-27T17:38:07Z</time>
      </trkpt>
      <trkpt lat="43.65957" lon="1.39256">
        <ele>120</ele>
        <time>2024-03-27T17:38:08Z</time>
      </trkpt>
      <trkpt lat="43.6595" lon="1.39257">
        <ele>120</ele>
        <time>2024-03-27T17:38:09Z</time>
      </trkpt>
      <trkpt lat="43.6595" lon="1.39257">
        <ele>120</ele>
        <time>2024-03-27T17:38:10Z</time>
      </trkpt>
      <trkpt lat="43.65947" lon="1.39257">
        <ele>120</ele>
        <time>2024-03-27T17:38:11Z</time>
      </trkpt>
      <trkpt lat="43.65944" lon="1.39257">
        <ele>120</ele>
        <time>2024-03-27T17:38:12Z</time>
      </trkpt>
      <trkpt lat="43.65941" lon="1.39257">
        <ele>120</ele>
        <time>2024-03-27T17:38:13Z</time>
      </trkpt>
      <trkpt lat="43.6594" lon="1.39256">
        <ele>120</ele>
        <time>2024-03-27T17:38:14Z</time>
      </trkpt>
      <trkpt lat="43.6594" lon="1.39256">
        <ele>121</ele>
        <time>2024-03-27T17:38:15Z</time>
      </trkpt>
      <trkpt lat="43.65935" lon="1.39256">
        <ele>121</ele>
        <time>2024-03-27T17:38:16Z</time>
      </trkpt>
      <trkpt lat="43.65933" lon="1.39256">
        <ele>121</ele>
        <time>2024-03-27T17:38:17Z</time>
      </trkpt>
      <trkpt lat="43.65931" lon="1.39256">
        <ele>121</ele>
        <time>2024-03-27T17:38:18Z</time>
      </trkpt>
      <trkpt lat="43.65928" lon="1.39256">
        <ele>121</ele>
        <time>2024-03-27T17:38:19Z</time>
      </trkpt>
      <trkpt lat="43.65926" lon="1.39257">
        <ele>121</ele>
        <time>2024-03-27T17:38:20Z</time>
      </trkpt>
      <trkpt lat="43.65924" lon="1.39257">
        <ele>121</ele>
        <time>2024-03-27T17:38:21Z</time>
      </trkpt>
      <trkpt lat="43.6592" lon="1.39257">
        <ele>121</ele>
        <time>2024-03-27T17:38:22Z</time>
      </trkpt>
      <trkpt lat="43.65916" lon="1.39257">
        <ele>121</ele>
        <time>2024-03-27T17:38:23Z</time>
      </trkpt>
      <trkpt lat="43.65914" lon="1.39257">
        <ele>121</ele>
        <time>2024-03-27T17:38:24Z</time>
      </trkpt>
      <trkpt lat="43.65912" lon="1.39258">
        <ele>121</ele>
        <time>2024-03-27T17:38:25Z</time>
      </trkpt>
      <trkpt lat="43.65908" lon="1.39257">
        <ele>121</ele>
        <time>2024-03-27T17:38:26Z</time>
      </trkpt>
      <trkpt lat="43.65907" lon="1.39257">
        <ele>121</ele>
        <time>2024-03-27T17:38:27Z</time>
      </trkpt>
      <trkpt lat="43.65904" lon="1.39256">
        <ele>121</ele>
        <time>2024-03-27T17:38:28Z</time>
      </trkpt>
      <trkpt lat="43.65902" lon="1.39255">
        <ele>121</ele>
        <time>2024-03-27T17:38:29Z</time>
      </trkpt>
      <trkpt lat="43.65899" lon="1.39254">
        <ele>121</ele>
        <time>2024-03-27T17:38:30Z</time>
      </trkpt>
      <trkpt lat="43.65897" lon="1.39253">
        <ele>121</ele>
        <time>2024-03-27T17:38:31Z</time>
      </trkpt>
      <trkpt lat="43.65895" lon="1.39252">
        <ele>121</ele>
        <time>2024-03-27T17:38:32Z</time>
      </trkpt>
      <trkpt lat="43.65892" lon="1.39253">
        <ele>121</ele>
        <time>2024-03-27T17:38:33Z</time>
      </trkpt>
      <trkpt lat="43.6589" lon="1.39253">
        <ele>121</ele>
        <time>2024-03-27T17:38:34Z</time>
      </trkpt>
      <trkpt lat="43.65887" lon="1.39254">
        <ele>121</ele>
        <time>2024-03-27T17:38:35Z</time>
      </trkpt>
      <trkpt lat="43.65884" lon="1.39254">
        <ele>122</ele>
        <time>2024-03-27T17:38:36Z</time>
      </trkpt>
      <trkpt lat="43.65881" lon="1.39254">
        <ele>122</ele>
        <time>2024-03-27T17:38:37Z</time>
      </trkpt>
      <trkpt lat="43.65878" lon="1.39254">
        <ele>122</ele>
        <time>2024-03-27T17:38:38Z</time>
      </trkpt>
      <trkpt lat="43.65875" lon="1.39254">
        <ele>122</ele>
        <time>2024-03-27T17:38:39Z</time>
      </trkpt>
      <trkpt lat="43.65873" lon="1.39254">
        <ele>122</ele>
        <time>2024-03-27T17:38:40Z</time>
      </trkpt>
      <trkpt lat="43.65871" lon="1.39253">
        <ele>122</ele>
        <time>2024-03-27T17:38:41Z</time>
      </trkpt>
      <trkpt lat="43.65867" lon="1.39252">
        <ele>122</ele>
        <time>2024-03-27T17:38:42Z</time>
      </trkpt>
      <trkpt lat="43.65865" lon="1.39251">
        <ele>122</ele>
        <time>2024-03-27T17:38:43Z</time>
      </trkpt>
      <trkpt lat="43.65863" lon="1.3925">
        <ele>122</ele>
        <time>2024-03-27T17:38:44Z</time>
      </trkpt>
      <trkpt lat="43.6586" lon="1.39249">
        <ele>122</ele>
        <time>2024-03-27T17:38:45Z</time>
      </trkpt>
      <trkpt lat="43.65858" lon="1.39247">
        <ele>122</ele>
        <time>2024-03-27T17:38:46Z</time>
      </trkpt>
      <trkpt lat="43.6585" lon="1.39243">
        <ele>122</ele>
        <time>2024-03-27T17:38:47Z</time>
      </trkpt>
      <trkpt lat="43.65848" lon="1.39242">
        <ele>122</ele>
        <time>2024-03-27T17:38:48Z</time>
      </trkpt>
      <trkpt lat="43.65846" lon="1.3924">
        <ele>122</ele>
        <time>2024-03-27T17:38:49Z</time>
      </trkpt>
      <trkpt lat="43.65844" lon="1.39238">
        <ele>122</ele>
        <time>2024-03-27T17:38:50Z</time>
      </trkpt>
      <trkpt lat="43.65841" lon="1.39238">
        <ele>122</ele>
        <time>2024-03-27T17:38:51Z</time>
      </trkpt>
      <trkpt lat="43.65839" lon="1.39237">
        <ele>122</ele>
        <time>2024-03-27T17:38:52Z</time>
      </trkpt>
      <trkpt lat="43.65836" lon="1.39236">
        <ele>122</ele>
        <time>2024-03-27T17:38:53Z</time>
      </trkpt>
      <trkpt lat="43.65834" lon="1.39235">
        <ele>122</ele>
        <time>2024-03-27T17:38:54Z</time>
      </trkpt>
      <trkpt lat="43.65832" lon="1.39235">
        <ele>122</ele>
        <time>2024-03-27T17:38:55Z</time>
      </trkpt>
      <trkpt lat="43.65828" lon="1.39234">
        <ele>122</ele>
        <time>2024-03-27T17:38:56Z</time>
      </trkpt>
      <trkpt lat="43.65827" lon="1.39234">
        <ele>122</ele>
        <time>2024-03-27T17:38:57Z</time>
      </trkpt>
      <trkpt lat="43.65825" lon="1.39233">
        <ele>123</ele>
        <time>2024-03-27T17:38:58Z</time>
      </trkpt>
      <trkpt lat="43.65821" lon="1.39231">
        <ele>123</ele>
        <time>2024-03-27T17:38:59Z</time>
      </trkpt>
      <trkpt lat="43.6582" lon="1.3923">
        <ele>122</ele>
        <time>2024-03-27T17:39:00Z</time>
      </trkpt>
      <trkpt lat="43.65818" lon="1.39229">
        <ele>122</ele>
        <time>2024-03-27T17:39:01Z</time>
      </trkpt>
      <trkpt lat="43.65816" lon="1.39227">
        <ele>122</ele>
        <time>2024-03-27T17:39:02Z</time>
      </trkpt>
      <trkpt lat="43.65816" lon="1.39227">
        <ele>122</ele>
        <time>2024-03-27T17:39:03Z</time>
      </trkpt>
      <trkpt lat="43.65811" lon="1.39224">
        <ele>122</ele>
        <time>2024-03-27T17:39:04Z</time>
      </trkpt>
      <trkpt lat="43.6581" lon="1.39223">
        <ele>122</ele>
        <time>2024-03-27T17:39:05Z</time>
      </trkpt>
      <trkpt lat="43.65806" lon="1.39222">
        <ele>122</ele>
        <time>2024-03-27T17:39:06Z</time>
      </trkpt>
      <trkpt lat="43.65804" lon="1.39221">
        <ele>122</ele>
        <time>2024-03-27T17:39:07Z</time>
      </trkpt>
      <trkpt lat="43.65799" lon="1.39221">
        <ele>122</ele>
        <time>2024-03-27T17:39:08Z</time>
      </trkpt>
      <trkpt lat="43.65797" lon="1.39221">
        <ele>122</ele>
        <time>2024-03-27T17:39:09Z</time>
      </trkpt>
      <trkpt lat="43.65794" lon="1.39221">
        <ele>122</ele>
        <time>2024-03-27T17:39:10Z</time>
      </trkpt>
      <trkpt lat="43.65789" lon="1.39219">
        <ele>122</ele>
        <time>2024-03-27T17:39:11Z</time>
      </trkpt>
      <trkpt lat="43.65788" lon="1.39219">
        <ele>122</ele>
        <time>2024-03-27T17:39:12Z</time>
      </trkpt>
      <trkpt lat="43.65784" lon="1.39215">
        <ele>122</ele>
        <time>2024-03-27T17:39:13Z</time>
      </trkpt>
      <trkpt lat="43.65783" lon="1.39214">
        <ele>123</ele>
        <time>2024-03-27T17:39:14Z</time>
      </trkpt>
      <trkpt lat="43.6578" lon="1.39211">
        <ele>123</ele>
        <time>2024-03-27T17:39:15Z</time>
      </trkpt>
      <trkpt lat="43.65778" lon="1.39209">
        <ele>124</ele>
        <time>2024-03-27T17:39:16Z</time>
      </trkpt>
      <trkpt lat="43.65775" lon="1.39206">
        <ele>124</ele>
        <time>2024-03-27T17:39:17Z</time>
      </trkpt>
      <trkpt lat="43.65771" lon="1.39202">
        <ele>124</ele>
        <time>2024-03-27T17:39:18Z</time>
      </trkpt>
      <trkpt lat="43.6577" lon="1.39201">
        <ele>124</ele>
        <time>2024-03-27T17:39:19Z</time>
      </trkpt>
      <trkpt lat="43.65768" lon="1.39199">
        <ele>124</ele>
        <time>2024-03-27T17:39:20Z</time>
      </trkpt>
      <trkpt lat="43.65765" lon="1.39197">
        <ele>124</ele>
        <time>2024-03-27T17:39:21Z</time>
      </trkpt>
      <trkpt lat="43.65763" lon="1.39195">
        <ele>124</ele>
        <time>2024-03-27T17:39:22Z</time>
      </trkpt>
      <trkpt lat="43.65761" lon="1.39192">
        <ele>124</ele>
        <time>2024-03-27T17:39:23Z</time>
      </trkpt>
      <trkpt lat="43.65759" lon="1.39191">
        <ele>124</ele>
        <time>2024-03-27T17:39:24Z</time>
      </trkpt>
      <trkpt lat="43.65757" lon="1.39189">
        <ele>124</ele>
        <time>2024-03-27T17:39:25Z</time>
      </trkpt>
      <trkpt lat="43.65754" lon="1.39187">
        <ele>124</ele>
        <time>2024-03-27T17:39:26Z</time>
      </trkpt>
      <trkpt lat="43.65751" lon="1.39186">
        <ele>124</ele>
        <time>2024-03-27T17:39:27Z</time>
      </trkpt>
      <trkpt lat="43.65747" lon="1.39183">
        <ele>124</ele>
        <time>2024-03-27T17:39:28Z</time>
      </trkpt>
      <trkpt lat="43.65745" lon="1.39182">
        <ele>124</ele>
        <time>2024-03-27T17:39:29Z</time>
      </trkpt>
      <trkpt lat="43.65742" lon="1.3918">
        <ele>124</ele>
        <time>2024-03-27T17:39:30Z</time>
      </trkpt>
      <trkpt lat="43.65739" lon="1.39179">
        <ele>123</ele>
        <time>2024-03-27T17:39:31Z</time>
      </trkpt>
      <trkpt lat="43.65737" lon="1.39177">
        <ele>123</ele>
        <time>2024-03-27T17:39:32Z</time>
      </trkpt>
      <trkpt lat="43.65733" lon="1.39174">
        <ele>123</ele>
        <time>2024-03-27T17:39:33Z</time>
      </trkpt>
      <trkpt lat="43.65731" lon="1.39173">
        <ele>123</ele>
        <time>2024-03-27T17:39:34Z</time>
      </trkpt>
      <trkpt lat="43.65728" lon="1.39171">
        <ele>123</ele>
        <time>2024-03-27T17:39:35Z</time>
      </trkpt>
      <trkpt lat="43.65725" lon="1.39168">
        <ele>123</ele>
        <time>2024-03-27T17:39:36Z</time>
      </trkpt>
      <trkpt lat="43.65722" lon="1.39166">
        <ele>123</ele>
        <time>2024-03-27T17:39:37Z</time>
      </trkpt>
      <trkpt lat="43.65719" lon="1.39163">
        <ele>122</ele>
        <time>2024-03-27T17:39:38Z</time>
      </trkpt>
      <trkpt lat="43.65718" lon="1.39162">
        <ele>122</ele>
        <time>2024-03-27T17:39:39Z</time>
      </trkpt>
      <trkpt lat="43.65715" lon="1.3916">
        <ele>123</ele>
        <time>2024-03-27T17:39:40Z</time>
      </trkpt>
      <trkpt lat="43.65713" lon="1.39158">
        <ele>123</ele>
        <time>2024-03-27T17:39:41Z</time>
      </trkpt>
      <trkpt lat="43.65709" lon="1.39156">
        <ele>123</ele>
        <time>2024-03-27T17:39:42Z</time>
      </trkpt>
      <trkpt lat="43.65708" lon="1.39155">
        <ele>123</ele>
        <time>2024-03-27T17:39:43Z</time>
      </trkpt>
      <trkpt lat="43.65706" lon="1.39153">
        <ele>123</ele>
        <time>2024-03-27T17:39:44Z</time>
      </trkpt>
      <trkpt lat="43.65702" lon="1.3915">
        <ele>123</ele>
        <time>2024-03-27T17:39:45Z</time>
      </trkpt>
      <trkpt lat="43.65701" lon="1.39149">
        <ele>123</ele>
        <time>2024-03-27T17:39:46Z</time>
      </trkpt>
      <trkpt lat="43.65698" lon="1.39148">
        <ele>123</ele>
        <time>2024-03-27T17:39:47Z</time>
      </trkpt>
      <trkpt lat="43.65693" lon="1.39144">
        <ele>123</ele>
        <time>2024-03-27T17:39:48Z</time>
      </trkpt>
      <trkpt lat="43.65693" lon="1.39144">
        <ele>122</ele>
        <time>2024-03-27T17:39:49Z</time>
      </trkpt>
      <trkpt lat="43.6569" lon="1.39142">
        <ele>122</ele>
        <time>2024-03-27T17:39:50Z</time>
      </trkpt>
      <trkpt lat="43.65688" lon="1.3914">
        <ele>122</ele>
        <time>2024-03-27T17:39:51Z</time>
      </trkpt>
      <trkpt lat="43.65686" lon="1.39138">
        <ele>122</ele>
        <time>2024-03-27T17:39:52Z</time>
      </trkpt>
      <trkpt lat="43.65683" lon="1.39136">
        <ele>122</ele>
        <time>2024-03-27T17:39:53Z</time>
      </trkpt>
      <trkpt lat="43.65681" lon="1.39134">
        <ele>122</ele>
        <time>2024-03-27T17:39:54Z</time>
      </trkpt>
      <trkpt lat="43.65678" lon="1.39132">
        <ele>122</ele>
        <time>2024-03-27T17:39:55Z</time>
      </trkpt>
      <trkpt lat="43.65675" lon="1.39131">
        <ele>122</ele>
        <time>2024-03-27T17:39:56Z</time>
      </trkpt>
      <trkpt lat="43.65672" lon="1.39128">
        <ele>122</ele>
        <time>2024-03-27T17:39:57Z</time>
      </trkpt>
      <trkpt lat="43.6567" lon="1.39127">
        <ele>122</ele>
        <time>2024-03-27T17:39:58Z</time>
      </trkpt>
      <trkpt lat="43.65667" lon="1.39125">
        <ele>122</ele>
        <time>2024-03-27T17:39:59Z</time>
      </trkpt>
      <trkpt lat="43.65664" lon="1.39124">
        <ele>122</ele>
        <time>2024-03-27T17:40:00Z</time>
      </trkpt>
      <trkpt lat="43.65661" lon="1.39122">
        <ele>123</ele>
        <time>2024-03-27T17:40:01Z</time>
      </trkpt>
      <trkpt lat="43.65658" lon="1.39119">
        <ele>123</ele>
        <time>2024-03-27T17:40:02Z</time>
      </trkpt>
      <trkpt lat="43.65656" lon="1.39117">
        <ele>123</ele>
        <time>2024-03-27T17:40:03Z</time>
      </trkpt>
      <trkpt lat="43.65653" lon="1.39115">
        <ele>123</ele>
        <time>2024-03-27T17:40:04Z</time>
      </trkpt>
      <trkpt lat="43.65651" lon="1.39113">
        <ele>123</ele>
        <time>2024-03-27T17:40:05Z</time>
      </trkpt>
      <trkpt lat="43.65648" lon="1.39112">
        <ele>123</ele>
        <time>2024-03-27T17:40:06Z</time>
      </trkpt>
      <trkpt lat="43.65646" lon="1.3911">
        <ele>123</ele>
        <time>2024-03-27T17:40:07Z</time>
      </trkpt>
      <trkpt lat="43.65644" lon="1.39109">
        <ele>123</ele>
        <time>2024-03-27T17:40:08Z</time>
      </trkpt>
      <trkpt lat="43.65641" lon="1.39107">
        <ele>123</ele>
        <time>2024-03-27T17:40:09Z</time>
      </trkpt>
      <trkpt lat="43.65639" lon="1.39105">
        <ele>123</ele>
        <time>2024-03-27T17:40:10Z</time>
      </trkpt>
      <trkpt lat="43.65636" lon="1.39104">
        <ele>123</ele>
        <time>2024-03-27T17:40:11Z</time>
      </trkpt>
      <trkpt lat="43.65634" lon="1.39102">
        <ele>123</ele>
        <time>2024-03-27T17:40:12Z</time>
      </trkpt>
      <trkpt lat="43.6563" lon="1.391">
        <ele>123</ele>
        <time>2024-03-27T17:40:13Z</time>
      </trkpt>
      <trkpt lat="43.65626" lon="1.39097">
        <ele>123</ele>
        <time>2024-03-27T17:40:14Z</time>
      </trkpt>
      <trkpt lat="43.65625" lon="1.39096">
        <ele>124</ele>
        <time>2024-03-27T17:40:15Z</time>
      </trkpt>
      <trkpt lat="43.65622" lon="1.39094">
        <ele>124</ele>
        <time>2024-03-27T17:40:16Z</time>
      </trkpt>
      <trkpt lat="43.6562" lon="1.39092">
        <ele>124</ele>
        <time>2024-03-27T17:40:17Z</time>
      </trkpt>
      <trkpt lat="43.65617" lon="1.3909">
        <ele>124</ele>
        <time>2024-03-27T17:40:18Z</time>
      </trkpt>
      <trkpt lat="43.65613" lon="1.39088">
        <ele>123</ele>
        <time>2024-03-27T17:40:19Z</time>
      </trkpt>
      <trkpt lat="43.65611" lon="1.39087">
        <ele>123</ele>
        <time>2024-03-27T17:40:20Z</time>
      </trkpt>
      <trkpt lat="43.65607" lon="1.39085">
        <ele>123</ele>
        <time>2024-03-27T17:40:21Z</time>
      </trkpt>
      <trkpt lat="43.65606" lon="1.39084">
        <ele>124</ele>
        <time>2024-03-27T17:40:22Z</time>
      </trkpt>
      <trkpt lat="43.65603" lon="1.39083">
        <ele>124</ele>
        <time>2024-03-27T17:40:23Z</time>
      </trkpt>
      <trkpt lat="43.656" lon="1.39081">
        <ele>124</ele>
        <time>2024-03-27T17:40:24Z</time>
      </trkpt>
      <trkpt lat="43.65597" lon="1.3908">
        <ele>124</ele>
        <time>2024-03-27T17:40:25Z</time>
      </trkpt>
      <trkpt lat="43.65594" lon="1.39079">
        <ele>124</ele>
        <time>2024-03-27T17:40:26Z</time>
      </trkpt>
      <trkpt lat="43.65591" lon="1.39077">
        <ele>124</ele>
        <time>2024-03-27T17:40:27Z</time>
      </trkpt>
      <trkpt lat="43.65589" lon="1.39076">
        <ele>124</ele>
        <time>2024-03-27T17:40:28Z</time>
      </trkpt>
      <trkpt lat="43.65586" lon="1.39074">
        <ele>124</ele>
        <time>2024-03-27T17:40:29Z</time>
      </trkpt>
      <trkpt lat="43.65583" lon="1.39073">
        <ele>124</ele>
        <time>2024-03-27T17:40:30Z</time>
      </trkpt>
      <trkpt lat="43.6558" lon="1.39071">
        <ele>124</ele>
        <time>2024-03-27T17:40:31Z</time>
      </trkpt>
      <trkpt lat="43.65577" lon="1.3907">
        <ele>124</ele>
        <time>2024-03-27T17:40:32Z</time>
      </trkpt>
      <trkpt lat="43.65574" lon="1.39069">
        <ele>124</ele>
        <time>2024-03-27T17:40:33Z</time>
      </trkpt>
      <trkpt lat="43.65572" lon="1.39066">
        <ele>124</ele>
        <time>2024-03-27T17:40:34Z</time>
      </trkpt>
      <trkpt lat="43.65569" lon="1.39063">
        <ele>124</ele>
        <time>2024-03-27T17:40:35Z</time>
      </trkpt>
      <trkpt lat="43.65567" lon="1.39061">
        <ele>123</ele>
        <time>2024-03-27T17:40:36Z</time>
      </trkpt>
      <trkpt lat="43.65564" lon="1.39059">
        <ele>123</ele>
        <time>2024-03-27T17:40:37Z</time>
      </trkpt>
      <trkpt lat="43.65561" lon="1.39056">
        <ele>123</ele>
        <time>2024-03-27T17:40:38Z</time>
      </trkpt>
      <trkpt lat="43.6556" lon="1.39055">
        <ele>123</ele>
        <time>2024-03-27T17:40:39Z</time>
      </trkpt>
      <trkpt lat="43.65556" lon="1.39052">
        <ele>124</ele>
        <time>2024-03-27T17:40:40Z</time>
      </trkpt>
      <trkpt lat="43.65555" lon="1.39051">
        <ele>124</ele>
        <time>2024-03-27T17:40:41Z</time>
      </trkpt>
      <trkpt lat="43.65552" lon="1.39049">
        <ele>123</ele>
        <time>2024-03-27T17:40:42Z</time>
      </trkpt>
      <trkpt lat="43.65549" lon="1.39047">
        <ele>123</ele>
        <time>2024-03-27T17:40:43Z</time>
      </trkpt>
      <trkpt lat="43.65547" lon="1.39046">
        <ele>123</ele>
        <time>2024-03-27T17:40:44Z</time>
      </trkpt>
      <trkpt lat="43.65545" lon="1.39043">
        <ele>123</ele>
        <time>2024-03-27T17:40:45Z</time>
      </trkpt>
      <trkpt lat="43.65542" lon="1.39041">
        <ele>123</ele>
        <time>2024-03-27T17:40:46Z</time>
      </trkpt>
      <trkpt lat="43.6554" lon="1.3904">
        <ele>123</ele>
        <time>2024-03-27T17:40:47Z</time>
      </trkpt>
      <trkpt lat="43.65537" lon="1.39038">
        <ele>123</ele>
        <time>2024-03-27T17:40:48Z</time>
      </trkpt>
      <trkpt lat="43.65535" lon="1.39036">
        <ele>123</ele>
        <time>2024-03-27T17:40:49Z</time>
      </trkpt>
      <trkpt lat="43.65531" lon="1.39034">
        <ele>123</ele>
        <time>2024-03-27T17:40:50Z</time>
      </trkpt>
      <trkpt lat="43.6553" lon="1.39033">
        <ele>123</ele>
        <time>2024-03-27T17:40:51Z</time>
      </trkpt>
      <trkpt lat="43.65527" lon="1.39032">
        <ele>123</ele>
        <time>2024-03-27T17:40:52Z</time>
      </trkpt>
      <trkpt lat="43.65524" lon="1.39031">
        <ele>123</ele>
        <time>2024-03-27T17:40:53Z</time>
      </trkpt>
      <trkpt lat="43.65521" lon="1.39029">
        <ele>123</ele>
        <time>2024-03-27T17:40:54Z</time>
      </trkpt>
      <trkpt lat="43.65519" lon="1.39028">
        <ele>123</ele>
        <time>2024-03-27T17:40:55Z</time>
      </trkpt>
      <trkpt lat="43.65516" lon="1.39026">
        <ele>123</ele>
        <time>2024-03-27T17:40:56Z</time>
      </trkpt>
      <trkpt lat="43.65514" lon="1.39025">
        <ele>123</ele>
        <time>2024-03-27T17:40:57Z</time>
      </trkpt>
      <trkpt lat="43.65511" lon="1.39025">
        <ele>123</ele>
        <time>2024-03-27T17:40:58Z</time>
      </trkpt>
      <trkpt lat="43.65509" lon="1.39024">
        <ele>123</ele>
        <time>2024-03-27T17:40:59Z</time>
      </trkpt>
      <trkpt lat="43.65506" lon="1.39023">
        <ele>123</ele>
        <time>2024-03-27T17:41:00Z</time>
      </trkpt>
      <trkpt lat="43.65504" lon="1.39022">
        <ele>123</ele>
        <time>2024-03-27T17:41:01Z</time>
      </trkpt>
      <trkpt lat="43.65501" lon="1.39022">
        <ele>123</ele>
        <time>2024-03-27T17:41:02Z</time>
      </trkpt>
      <trkpt lat="43.65497" lon="1.3902">
        <ele>124</ele>
        <time>2024-03-27T17:41:03Z</time>
      </trkpt>
      <trkpt lat="43.65496" lon="1.3902">
        <ele>124</ele>
        <time>2024-03-27T17:41:04Z</time>
      </trkpt>
      <trkpt lat="43.65494" lon="1.39018">
        <ele>124</ele>
        <time>2024-03-27T17:41:05Z</time>
      </trkpt>
      <trkpt lat="43.65491" lon="1.39017">
        <ele>124</ele>
        <time>2024-03-27T17:41:06Z</time>
      </trkpt>
      <trkpt lat="43.65488" lon="1.39015">
        <ele>124</ele>
        <time>2024-03-27T17:41:07Z</time>
      </trkpt>
      <trkpt lat="43.65486" lon="1.39014">
        <ele>124</ele>
        <time>2024-03-27T17:41:08Z</time>
      </trkpt>
      <trkpt lat="43.65483" lon="1.39012">
        <ele>124</ele>
        <time>2024-03-27T17:41:09Z</time>
      </trkpt>
      <trkpt lat="43.65481" lon="1.3901">
        <ele>124</ele>
        <time>2024-03-27T17:41:10Z</time>
      </trkpt>
      <trkpt lat="43.65479" lon="1.39008">
        <ele>124</ele>
        <time>2024-03-27T17:41:11Z</time>
      </trkpt>
      <trkpt lat="43.65477" lon="1.39006">
        <ele>124</ele>
        <time>2024-03-27T17:41:12Z</time>
      </trkpt>
      <trkpt lat="43.65476" lon="1.39004">
        <ele>124</ele>
        <time>2024-03-27T17:41:13Z</time>
      </trkpt>
      <trkpt lat="43.65474" lon="1.39002">
        <ele>124</ele>
        <time>2024-03-27T17:41:14Z</time>
      </trkpt>
      <trkpt lat="43.65472" lon="1.38999">
        <ele>124</ele>
        <time>2024-03-27T17:41:15Z</time>
      </trkpt>
      <trkpt lat="43.65472" lon="1.38997">
        <ele>124</ele>
        <time>2024-03-27T17:41:16Z</time>
      </trkpt>
      <trkpt lat="43.65472" lon="1.38994">
        <ele>124</ele>
        <time>2024-03-27T17:41:17Z</time>
      </trkpt>
      <trkpt lat="43.65472" lon="1.38991">
        <ele>124</ele>
        <time>2024-03-27T17:41:18Z</time>
      </trkpt>
      <trkpt lat="43.65472" lon="1.38988">
        <ele>124</ele>
        <time>2024-03-27T17:41:19Z</time>
      </trkpt>
      <trkpt lat="43.65472" lon="1.38985">
        <ele>125</ele>
        <time>2024-03-27T17:41:20Z</time>
      </trkpt>
      <trkpt lat="43.65472" lon="1.38985">
        <ele>126</ele>
        <time>2024-03-27T17:41:21Z</time>
      </trkpt>
      <trkpt lat="43.65471" lon="1.38979">
        <ele>127</ele>
        <time>2024-03-27T17:41:22Z</time>
      </trkpt>
      <trkpt lat="43.6547" lon="1.38976">
        <ele>127</ele>
        <time>2024-03-27T17:41:23Z</time>
      </trkpt>
      <trkpt lat="43.6547" lon="1.38973">
        <ele>128</ele>
        <time>2024-03-27T17:41:24Z</time>
      </trkpt>
      <trkpt lat="43.65469" lon="1.38971">
        <ele>128</ele>
        <time>2024-03-27T17:41:25Z</time>
      </trkpt>
      <trkpt lat="43.65469" lon="1.38968">
        <ele>128</ele>
        <time>2024-03-27T17:41:26Z</time>
      </trkpt>
      <trkpt lat="43.65468" lon="1.38966">
        <ele>128</ele>
        <time>2024-03-27T17:41:27Z</time>
      </trkpt>
      <trkpt lat="43.65468" lon="1.38961">
        <ele>128</ele>
        <time>2024-03-27T17:41:28Z</time>
      </trkpt>
      <trkpt lat="43.65468" lon="1.38961">
        <ele>129</ele>
        <time>2024-03-27T17:41:29Z</time>
      </trkpt>
      <trkpt lat="43.65468" lon="1.38958">
        <ele>129</ele>
        <time>2024-03-27T17:41:30Z</time>
      </trkpt>
      <trkpt lat="43.65468" lon="1.38958">
        <ele>130</ele>
        <time>2024-03-27T17:41:31Z</time>
      </trkpt>
      <trkpt lat="43.65466" lon="1.38952">
        <ele>130</ele>
        <time>2024-03-27T17:41:32Z</time>
      </trkpt>
      <trkpt lat="43.65465" lon="1.38951">
        <ele>130</ele>
        <time>2024-03-27T17:41:33Z</time>
      </trkpt>
      <trkpt lat="43.65463" lon="1.38948">
        <ele>130</ele>
        <time>2024-03-27T17:41:34Z</time>
      </trkpt>
      <trkpt lat="43.65462" lon="1.38945">
        <ele>131</ele>
        <time>2024-03-27T17:41:35Z</time>
      </trkpt>
      <trkpt lat="43.65461" lon="1.38943">
        <ele>131</ele>
        <time>2024-03-27T17:41:36Z</time>
      </trkpt>
      <trkpt lat="43.6546" lon="1.3894">
        <ele>132</ele>
        <time>2024-03-27T17:41:37Z</time>
      </trkpt>
      <trkpt lat="43.65458" lon="1.38937">
        <ele>133</ele>
        <time>2024-03-27T17:41:38Z</time>
      </trkpt>
      <trkpt lat="43.65457" lon="1.38935">
        <ele>133</ele>
        <time>2024-03-27T17:41:39Z</time>
      </trkpt>
      <trkpt lat="43.65455" lon="1.38932">
        <ele>134</ele>
        <time>2024-03-27T17:41:40Z</time>
      </trkpt>
      <trkpt lat="43.65453" lon="1.38929">
        <ele>134</ele>
        <time>2024-03-27T17:41:41Z</time>
      </trkpt>
      <trkpt lat="43.65452" lon="1.38927">
        <ele>134</ele>
        <time>2024-03-27T17:41:42Z</time>
      </trkpt>
      <trkpt lat="43.65451" lon="1.38925">
        <ele>134</ele>
        <time>2024-03-27T17:41:43Z</time>
      </trkpt>
      <trkpt lat="43.6545" lon="1.38922">
        <ele>134</ele>
        <time>2024-03-27T17:41:44Z</time>
      </trkpt>
      <trkpt lat="43.6545" lon="1.38922">
        <ele>135</ele>
        <time>2024-03-27T17:41:45Z</time>
      </trkpt>
      <trkpt lat="43.65448" lon="1.38918">
        <ele>135</ele>
        <time>2024-03-27T17:41:46Z</time>
      </trkpt>
      <trkpt lat="43.65446" lon="1.38912">
        <ele>135</ele>
        <time>2024-03-27T17:41:47Z</time>
      </trkpt>
      <trkpt lat="43.65445" lon="1.3891">
        <ele>135</ele>
        <time>2024-03-27T17:41:48Z</time>
      </trkpt>
      <trkpt lat="43.65444" lon="1.38904">
        <ele>135</ele>
        <time>2024-03-27T17:41:49Z</time>
      </trkpt>
      <trkpt lat="43.65443" lon="1.38903">
        <ele>135</ele>
        <time>2024-03-27T17:41:50Z</time>
      </trkpt>
      <trkpt lat="43.65441" lon="1.38899">
        <ele>135</ele>
        <time>2024-03-27T17:41:51Z</time>
      </trkpt>
      <trkpt lat="43.6544" lon="1.38895">
        <ele>135</ele>
        <time>2024-03-27T17:41:52Z</time>
      </trkpt>
      <trkpt lat="43.65438" lon="1.38891">
        <ele>134</ele>
        <time>2024-03-27T17:41:53Z</time>
      </trkpt>
      <trkpt lat="43.65437" lon="1.38887">
        <ele>134</ele>
        <time>2024-03-27T17:41:54Z</time>
      </trkpt>
      <trkpt lat="43.65436" lon="1.38884">
        <ele>134</ele>
        <time>2024-03-27T17:41:55Z</time>
      </trkpt>
      <trkpt lat="43.65435" lon="1.3888">
        <ele>135</ele>
        <time>2024-03-27T17:41:56Z</time>
      </trkpt>
      <trkpt lat="43.65434" lon="1.38876">
        <ele>135</ele>
        <time>2024-03-27T17:41:57Z</time>
      </trkpt>
      <trkpt lat="43.65433" lon="1.38872">
        <ele>135</ele>
        <time>2024-03-27T17:41:58Z</time>
      </trkpt>
      <trkpt lat="43.65432" lon="1.38868">
        <ele>135</ele>
        <time>2024-03-27T17:41:59Z</time>
      </trkpt>
      <trkpt lat="43.6543" lon="1.38863">
        <ele>135</ele>
        <time>2024-03-27T17:42:00Z</time>
      </trkpt>
      <trkpt lat="43.65429" lon="1.38858">
        <ele>136</ele>
        <time>2024-03-27T17:42:01Z</time>
      </trkpt>
      <trkpt lat="43.65429" lon="1.38856">
        <ele>136</ele>
        <time>2024-03-27T17:42:02Z</time>
      </trkpt>
      <trkpt lat="43.65428" lon="1.38854">
        <ele>137</ele>
        <time>2024-03-27T17:42:03Z</time>
      </trkpt>
      <trkpt lat="43.65426" lon="1.38852">
        <ele>137</ele>
        <time>2024-03-27T17:42:04Z</time>
      </trkpt>
      <trkpt lat="43.65426" lon="1.38852">
        <ele>137</ele>
        <time>2024-03-27T17:42:05Z</time>
      </trkpt>
      <trkpt lat="43.65421" lon="1.38853">
        <ele>137</ele>
        <time>2024-03-27T17:42:06Z</time>
      </trkpt>
      <trkpt lat="43.65421" lon="1.38853">
        <ele>137</ele>
        <time>2024-03-27T17:42:07Z</time>
      </trkpt>
      <trkpt lat="43.65418" lon="1.38854">
        <ele>137</ele>
        <time>2024-03-27T17:42:08Z</time>
      </trkpt>
      <trkpt lat="43.65416" lon="1.38856">
        <ele>137</ele>
        <time>2024-03-27T17:42:09Z</time>
      </trkpt>
      <trkpt lat="43.65414" lon="1.38858">
        <ele>137</ele>
        <time>2024-03-27T17:42:10Z</time>
      </trkpt>
      <trkpt lat="43.65412" lon="1.38858">
        <ele>136</ele>
        <time>2024-03-27T17:42:11Z</time>
      </trkpt>
      <trkpt lat="43.6541" lon="1.38858">
        <ele>136</ele>
        <time>2024-03-27T17:42:12Z</time>
      </trkpt>
      <trkpt lat="43.6541" lon="1.38858">
        <ele>135</ele>
        <time>2024-03-27T17:42:13Z</time>
      </trkpt>
      <trkpt lat="43.65406" lon="1.38858">
        <ele>135</ele>
        <time>2024-03-27T17:42:14Z</time>
      </trkpt>
      <trkpt lat="43.65404" lon="1.38858">
        <ele>136</ele>
        <time>2024-03-27T17:42:15Z</time>
      </trkpt>
      <trkpt lat="43.65401" lon="1.38858">
        <ele>136</ele>
        <time>2024-03-27T17:42:16Z</time>
      </trkpt>
      <trkpt lat="43.65398" lon="1.38859">
        <ele>136</ele>
        <time>2024-03-27T17:42:17Z</time>
      </trkpt>
      <trkpt lat="43.65396" lon="1.38859">
        <ele>136</ele>
        <time>2024-03-27T17:42:18Z</time>
      </trkpt>
      <trkpt lat="43.65394" lon="1.38859">
        <ele>136</ele>
        <time>2024-03-27T17:42:19Z</time>
      </trkpt>
      <trkpt lat="43.65391" lon="1.3886">
        <ele>136</ele>
        <time>2024-03-27T17:42:20Z</time>
      </trkpt>
      <trkpt lat="43.65388" lon="1.3886">
        <ele>136</ele>
        <time>2024-03-27T17:42:21Z</time>
      </trkpt>
      <trkpt lat="43.65385" lon="1.3886">
        <ele>136</ele>
        <time>2024-03-27T17:42:22Z</time>
      </trkpt>
      <trkpt lat="43.65382" lon="1.3886">
        <ele>136</ele>
        <time>2024-03-27T17:42:23Z</time>
      </trkpt>
      <trkpt lat="43.65379" lon="1.38858">
        <ele>136</ele>
        <time>2024-03-27T17:42:24Z</time>
      </trkpt>
      <trkpt lat="43.65377" lon="1.38857">
        <ele>136</ele>
        <time>2024-03-27T17:42:25Z</time>
      </trkpt>
      <trkpt lat="43.65375" lon="1.38856">
        <ele>136</ele>
        <time>2024-03-27T17:42:26Z</time>
      </trkpt>
      <trkpt lat="43.65371" lon="1.38853">
        <ele>136</ele>
        <time>2024-03-27T17:42:27Z</time>
      </trkpt>
      <trkpt lat="43.6537" lon="1.38852">
        <ele>136</ele>
        <time>2024-03-27T17:42:28Z</time>
      </trkpt>
      <trkpt lat="43.65367" lon="1.38851">
        <ele>136</ele>
        <time>2024-03-27T17:42:29Z</time>
      </trkpt>
      <trkpt lat="43.65364" lon="1.38847">
        <ele>137</ele>
        <time>2024-03-27T17:42:30Z</time>
      </trkpt>
      <trkpt lat="43.65363" lon="1.38846">
        <ele>137</ele>
        <time>2024-03-27T17:42:31Z</time>
      </trkpt>
      <trkpt lat="43.65359" lon="1.38843">
        <ele>137</ele>
        <time>2024-03-27T17:42:32Z</time>
      </trkpt>
      <trkpt lat="43.65358" lon="1.38841">
        <ele>137</ele>
        <time>2024-03-27T17:42:33Z</time>
      </trkpt>
      <trkpt lat="43.65355" lon="1.38838">
        <ele>137</ele>
        <time>2024-03-27T17:42:34Z</time>
      </trkpt>
      <trkpt lat="43.65354" lon="1.38836">
        <ele>137</ele>
        <time>2024-03-27T17:42:35Z</time>
      </trkpt>
      <trkpt lat="43.65352" lon="1.38833">
        <ele>137</ele>
        <time>2024-03-27T17:42:36Z</time>
      </trkpt>
      <trkpt lat="43.6535" lon="1.3883">
        <ele>138</ele>
        <time>2024-03-27T17:42:37Z</time>
      </trkpt>
      <trkpt lat="43.65347" lon="1.38827">
        <ele>138</ele>
        <time>2024-03-27T17:42:38Z</time>
      </trkpt>
      <trkpt lat="43.65344" lon="1.38823">
        <ele>138</ele>
        <time>2024-03-27T17:42:39Z</time>
      </trkpt>
      <trkpt lat="43.65343" lon="1.38822">
        <ele>138</ele>
        <time>2024-03-27T17:42:40Z</time>
      </trkpt>
      <trkpt lat="43.65342" lon="1.38819">
        <ele>138</ele>
        <time>2024-03-27T17:42:41Z</time>
      </trkpt>
      <trkpt lat="43.6534" lon="1.38815">
        <ele>138</ele>
        <time>2024-03-27T17:42:42Z</time>
      </trkpt>
      <trkpt lat="43.65339" lon="1.38814">
        <ele>138</ele>
        <time>2024-03-27T17:42:43Z</time>
      </trkpt>
      <trkpt lat="43.65337" lon="1.3881">
        <ele>138</ele>
        <time>2024-03-27T17:42:44Z</time>
      </trkpt>
      <trkpt lat="43.65336" lon="1.38807">
        <ele>138</ele>
        <time>2024-03-27T17:42:45Z</time>
      </trkpt>
      <trkpt lat="43.65335" lon="1.38804">
        <ele>138</ele>
        <time>2024-03-27T17:42:46Z</time>
      </trkpt>
      <trkpt lat="43.65334" lon="1.38801">
        <ele>138</ele>
        <time>2024-03-27T17:42:47Z</time>
      </trkpt>
      <trkpt lat="43.65332" lon="1.38797">
        <ele>138</ele>
        <time>2024-03-27T17:42:48Z</time>
      </trkpt>
      <trkpt lat="43.65331" lon="1.38794">
        <ele>138</ele>
        <time>2024-03-27T17:42:49Z</time>
      </trkpt>
      <trkpt lat="43.6533" lon="1.3879">
        <ele>138</ele>
        <time>2024-03-27T17:42:50Z</time>
      </trkpt>
      <trkpt lat="43.65329" lon="1.38786">
        <ele>138</ele>
        <time>2024-03-27T17:42:51Z</time>
      </trkpt>
      <trkpt lat="43.65328" lon="1.38783">
        <ele>138</ele>
        <time>2024-03-27T17:42:52Z</time>
      </trkpt>
      <trkpt lat="43.65327" lon="1.38777">
        <ele>138</ele>
        <time>2024-03-27T17:42:53Z</time>
      </trkpt>
      <trkpt lat="43.65327" lon="1.38775">
        <ele>138</ele>
        <time>2024-03-27T17:42:54Z</time>
      </trkpt>
      <trkpt lat="43.65325" lon="1.38771">
        <ele>138</ele>
        <time>2024-03-27T17:42:55Z</time>
      </trkpt>
      <trkpt lat="43.65324" lon="1.38768">
        <ele>138</ele>
        <time>2024-03-27T17:42:56Z</time>
      </trkpt>
      <trkpt lat="43.65323" lon="1.38765">
        <ele>138</ele>
        <time>2024-03-27T17:42:57Z</time>
      </trkpt>
      <trkpt lat="43.65321" lon="1.38762">
        <ele>137</ele>
        <time>2024-03-27T17:42:58Z</time>
      </trkpt>
      <trkpt lat="43.65319" lon="1.38754">
        <ele>137</ele>
        <time>2024-03-27T17:42:59Z</time>
      </trkpt>
      <trkpt lat="43.65319" lon="1.38754">
        <ele>137</ele>
        <time>2024-03-27T17:43:00Z</time>
      </trkpt>
      <trkpt lat="43.65317" lon="1.3875">
        <ele>137</ele>
        <time>2024-03-27T17:43:01Z</time>
      </trkpt>
      <trkpt lat="43.65315" lon="1.38742">
        <ele>137</ele>
        <time>2024-03-27T17:43:02Z</time>
      </trkpt>
      <trkpt lat="43.65315" lon="1.38742">
        <ele>137</ele>
        <time>2024-03-27T17:43:03Z</time>
      </trkpt>
      <trkpt lat="43.65314" lon="1.38738">
        <ele>137</ele>
        <time>2024-03-27T17:43:04Z</time>
      </trkpt>
      <trkpt lat="43.65313" lon="1.38734">
        <ele>136</ele>
        <time>2024-03-27T17:43:05Z</time>
      </trkpt>
      <trkpt lat="43.65312" lon="1.3873">
        <ele>136</ele>
        <time>2024-03-27T17:43:06Z</time>
      </trkpt>
      <trkpt lat="43.65312" lon="1.38727">
        <ele>136</ele>
        <time>2024-03-27T17:43:07Z</time>
      </trkpt>
      <trkpt lat="43.65311" lon="1.38724">
        <ele>136</ele>
        <time>2024-03-27T17:43:08Z</time>
      </trkpt>
      <trkpt lat="43.6531" lon="1.3872">
        <ele>136</ele>
        <time>2024-03-27T17:43:09Z</time>
      </trkpt>
      <trkpt lat="43.65308" lon="1.38713">
        <ele>136</ele>
        <time>2024-03-27T17:43:10Z</time>
      </trkpt>
      <trkpt lat="43.65308" lon="1.38712">
        <ele>136</ele>
        <time>2024-03-27T17:43:11Z</time>
      </trkpt>
      <trkpt lat="43.65306" lon="1.38706">
        <ele>136</ele>
        <time>2024-03-27T17:43:12Z</time>
      </trkpt>
      <trkpt lat="43.65305" lon="1.38704">
        <ele>136</ele>
        <time>2024-03-27T17:43:13Z</time>
      </trkpt>
      <trkpt lat="43.65304" lon="1.387">
        <ele>136</ele>
        <time>2024-03-27T17:43:14Z</time>
      </trkpt>
      <trkpt lat="43.65302" lon="1.38696">
        <ele>136</ele>
        <time>2024-03-27T17:43:15Z</time>
      </trkpt>
      <trkpt lat="43.653" lon="1.38691">
        <ele>136</ele>
        <time>2024-03-27T17:43:16Z</time>
      </trkpt>
      <trkpt lat="43.65298" lon="1.38685">
        <ele>136</ele>
        <time>2024-03-27T17:43:17Z</time>
      </trkpt>
      <trkpt lat="43.65297" lon="1.38683">
        <ele>136</ele>
        <time>2024-03-27T17:43:18Z</time>
      </trkpt>
      <trkpt lat="43.65296" lon="1.38679">
        <ele>136</ele>
        <time>2024-03-27T17:43:19Z</time>
      </trkpt>
      <trkpt lat="43.65295" lon="1.38675">
        <ele>136</ele>
        <time>2024-03-27T17:43:20Z</time>
      </trkpt>
      <trkpt lat="43.65294" lon="1.3867">
        <ele>136</ele>
        <time>2024-03-27T17:43:21Z</time>
      </trkpt>
      <trkpt lat="43.65292" lon="1.38663">
        <ele>136</ele>
        <time>2024-03-27T17:43:22Z</time>
      </trkpt>
      <trkpt lat="43.65292" lon="1.38663">
        <ele>136</ele>
        <time>2024-03-27T17:43:23Z</time>
      </trkpt>
      <trkpt lat="43.6529" lon="1.38658">
        <ele>136</ele>
        <time>2024-03-27T17:43:24Z</time>
      </trkpt>
      <trkpt lat="43.65289" lon="1.38657">
        <ele>136</ele>
        <time>2024-03-27T17:43:25Z</time>
      </trkpt>
      <trkpt lat="43.65287" lon="1.38652">
        <ele>136</ele>
        <time>2024-03-27T17:43:26Z</time>
      </trkpt>
      <trkpt lat="43.65286" lon="1.38651">
        <ele>136</ele>
        <time>2024-03-27T17:43:27Z</time>
      </trkpt>
      <trkpt lat="43.65283" lon="1.38645">
        <ele>137</ele>
        <time>2024-03-27T17:43:28Z</time>
      </trkpt>
      <trkpt lat="43.65282" lon="1.38644">
        <ele>137</ele>
        <time>2024-03-27T17:43:29Z</time>
      </trkpt>
      <trkpt lat="43.6528" lon="1.38641">
        <ele>137</ele>
        <time>2024-03-27T17:43:30Z</time>
      </trkpt>
      <trkpt lat="43.65277" lon="1.38635">
        <ele>137</ele>
        <time>2024-03-27T17:43:31Z</time>
      </trkpt>
      <trkpt lat="43.65276" lon="1.38634">
        <ele>137</ele>
        <time>2024-03-27T17:43:32Z</time>
      </trkpt>
      <trkpt lat="43.65274" lon="1.38631">
        <ele>137</ele>
        <time>2024-03-27T17:43:33Z</time>
      </trkpt>
      <trkpt lat="43.6527" lon="1.38625">
        <ele>137</ele>
        <time>2024-03-27T17:43:34Z</time>
      </trkpt>
      <trkpt lat="43.65269" lon="1.38624">
        <ele>137</ele>
        <time>2024-03-27T17:43:35Z</time>
      </trkpt>
      <trkpt lat="43.65267" lon="1.38621">
        <ele>137</ele>
        <time>2024-03-27T17:43:36Z</time>
      </trkpt>
      <trkpt lat="43.65265" lon="1.38618">
        <ele>137</ele>
        <time>2024-03-27T17:43:37Z</time>
      </trkpt>
      <trkpt lat="43.65263" lon="1.38614">
        <ele>137</ele>
        <time>2024-03-27T17:43:38Z</time>
      </trkpt>
      <trkpt lat="43.65261" lon="1.38608">
        <ele>137</ele>
        <time>2024-03-27T17:43:39Z</time>
      </trkpt>
      <trkpt lat="43.6526" lon="1.38607">
        <ele>136</ele>
        <time>2024-03-27T17:43:40Z</time>
      </trkpt>
      <trkpt lat="43.65259" lon="1.38603">
        <ele>136</ele>
        <time>2024-03-27T17:43:41Z</time>
      </trkpt>
      <trkpt lat="43.65257" lon="1.38597">
        <ele>136</ele>
        <time>2024-03-27T17:43:42Z</time>
      </trkpt>
      <trkpt lat="43.65257" lon="1.38597">
        <ele>136</ele>
        <time>2024-03-27T17:43:43Z</time>
      </trkpt>
      <trkpt lat="43.65257" lon="1.38597">
        <ele>136</ele>
        <time>2024-03-27T17:43:44Z</time>
      </trkpt>
      <trkpt lat="43.65256" lon="1.38592">
        <ele>136</ele>
        <time>2024-03-27T17:43:45Z</time>
      </trkpt>
      <trkpt lat="43.65254" lon="1.38587">
        <ele>136</ele>
        <time>2024-03-27T17:43:46Z</time>
      </trkpt>
      <trkpt lat="43.65254" lon="1.38586">
        <ele>136</ele>
        <time>2024-03-27T17:43:47Z</time>
      </trkpt>
      <trkpt lat="43.65253" lon="1.38582">
        <ele>136</ele>
        <time>2024-03-27T17:43:48Z</time>
      </trkpt>
      <trkpt lat="43.65252" lon="1.38579">
        <ele>136</ele>
        <time>2024-03-27T17:43:49Z</time>
      </trkpt>
      <trkpt lat="43.65251" lon="1.38575">
        <ele>136</ele>
        <time>2024-03-27T17:43:50Z</time>
      </trkpt>
      <trkpt lat="43.6525" lon="1.3857">
        <ele>136</ele>
        <time>2024-03-27T17:43:51Z</time>
      </trkpt>
      <trkpt lat="43.65248" lon="1.38566">
        <ele>136</ele>
        <time>2024-03-27T17:43:52Z</time>
      </trkpt>
      <trkpt lat="43.65247" lon="1.38562">
        <ele>136</ele>
        <time>2024-03-27T17:43:53Z</time>
      </trkpt>
      <trkpt lat="43.65246" lon="1.38558">
        <ele>136</ele>
        <time>2024-03-27T17:43:54Z</time>
      </trkpt>
      <trkpt lat="43.65244" lon="1.38553">
        <ele>136</ele>
        <time>2024-03-27T17:43:55Z</time>
      </trkpt>
      <trkpt lat="43.65243" lon="1.38552">
        <ele>136</ele>
        <time>2024-03-27T17:43:56Z</time>
      </trkpt>
      <trkpt lat="43.65241" lon="1.38548">
        <ele>136</ele>
        <time>2024-03-27T17:43:57Z</time>
      </trkpt>
      <trkpt lat="43.6524" lon="1.38544">
        <ele>136</ele>
        <time>2024-03-27T17:43:58Z</time>
      </trkpt>
      <trkpt lat="43.65239" lon="1.3854">
        <ele>136</ele>
        <time>2024-03-27T17:43:59Z</time>
      </trkpt>
      <trkpt lat="43.65237" lon="1.38531">
        <ele>136</ele>
        <time>2024-03-27T17:44:00Z</time>
      </trkpt>
      <trkpt lat="43.65237" lon="1.38531">
        <ele>136</ele>
        <time>2024-03-27T17:44:01Z</time>
      </trkpt>
      <trkpt lat="43.65236" lon="1.38527">
        <ele>136</ele>
        <time>2024-03-27T17:44:02Z</time>
      </trkpt>
      <trkpt lat="43.65236" lon="1.38523">
        <ele>136</ele>
        <time>2024-03-27T17:44:03Z</time>
      </trkpt>
      <trkpt lat="43.65234" lon="1.38518">
        <ele>136</ele>
        <time>2024-03-27T17:44:04Z</time>
      </trkpt>
      <trkpt lat="43.65234" lon="1.38517">
        <ele>136</ele>
        <time>2024-03-27T17:44:05Z</time>
      </trkpt>
      <trkpt lat="43.65233" lon="1.38512">
        <ele>136</ele>
        <time>2024-03-27T17:44:06Z</time>
      </trkpt>
      <trkpt lat="43.65233" lon="1.3851">
        <ele>136</ele>
        <time>2024-03-27T17:44:07Z</time>
      </trkpt>
      <trkpt lat="43.65232" lon="1.38506">
        <ele>136</ele>
        <time>2024-03-27T17:44:08Z</time>
      </trkpt>
      <trkpt lat="43.6523" lon="1.38502">
        <ele>136</ele>
        <time>2024-03-27T17:44:09Z</time>
      </trkpt>
      <trkpt lat="43.65229" lon="1.38497">
        <ele>136</ele>
        <time>2024-03-27T17:44:10Z</time>
      </trkpt>
      <trkpt lat="43.65228" lon="1.38493">
        <ele>137</ele>
        <time>2024-03-27T17:44:11Z</time>
      </trkpt>
      <trkpt lat="43.65227" lon="1.38489">
        <ele>137</ele>
        <time>2024-03-27T17:44:12Z</time>
      </trkpt>
      <trkpt lat="43.65224" lon="1.38485">
        <ele>137</ele>
        <time>2024-03-27T17:44:13Z</time>
      </trkpt>
      <trkpt lat="43.65223" lon="1.38478">
        <ele>137</ele>
        <time>2024-03-27T17:44:14Z</time>
      </trkpt>
      <trkpt lat="43.65222" lon="1.38476">
        <ele>137</ele>
        <time>2024-03-27T17:44:15Z</time>
      </trkpt>
      <trkpt lat="43.65221" lon="1.38473">
        <ele>137</ele>
        <time>2024-03-27T17:44:16Z</time>
      </trkpt>
      <trkpt lat="43.65219" lon="1.38468">
        <ele>137</ele>
        <time>2024-03-27T17:44:17Z</time>
      </trkpt>
      <trkpt lat="43.65218" lon="1.38464">
        <ele>137</ele>
        <time>2024-03-27T17:44:18Z</time>
      </trkpt>
      <trkpt lat="43.65215" lon="1.38456">
        <ele>137</ele>
        <time>2024-03-27T17:44:19Z</time>
      </trkpt>
      <trkpt lat="43.65215" lon="1.38456">
        <ele>137</ele>
        <time>2024-03-27T17:44:20Z</time>
      </trkpt>
      <trkpt lat="43.65214" lon="1.38452">
        <ele>137</ele>
        <time>2024-03-27T17:44:21Z</time>
      </trkpt>
      <trkpt lat="43.65214" lon="1.38449">
        <ele>137</ele>
        <time>2024-03-27T17:44:22Z</time>
      </trkpt>
      <trkpt lat="43.65214" lon="1.38446">
        <ele>137</ele>
        <time>2024-03-27T17:44:23Z</time>
      </trkpt>
      <trkpt lat="43.65213" lon="1.38442">
        <ele>137</ele>
        <time>2024-03-27T17:44:24Z</time>
      </trkpt>
      <trkpt lat="43.65211" lon="1.38438">
        <ele>136</ele>
        <time>2024-03-27T17:44:25Z</time>
      </trkpt>
      <trkpt lat="43.6521" lon="1.38435">
        <ele>136</ele>
        <time>2024-03-27T17:44:26Z</time>
      </trkpt>
      <trkpt lat="43.65209" lon="1.38431">
        <ele>136</ele>
        <time>2024-03-27T17:44:27Z</time>
      </trkpt>
      <trkpt lat="43.65207" lon="1.38428">
        <ele>137</ele>
        <time>2024-03-27T17:44:28Z</time>
      </trkpt>
      <trkpt lat="43.65206" lon="1.38424">
        <ele>137</ele>
        <time>2024-03-27T17:44:29Z</time>
      </trkpt>
      <trkpt lat="43.65204" lon="1.38421">
        <ele>137</ele>
        <time>2024-03-27T17:44:30Z</time>
      </trkpt>
      <trkpt lat="43.65202" lon="1.38418">
        <ele>137</ele>
        <time>2024-03-27T17:44:31Z</time>
      </trkpt>
      <trkpt lat="43.652" lon="1.38414">
        <ele>137</ele>
        <time>2024-03-27T17:44:32Z</time>
      </trkpt>
      <trkpt lat="43.65198" lon="1.38411">
        <ele>138</ele>
        <time>2024-03-27T17:44:33Z</time>
      </trkpt>
      <trkpt lat="43.65196" lon="1.38408">
        <ele>138</ele>
        <time>2024-03-27T17:44:34Z</time>
      </trkpt>
      <trkpt lat="43.65193" lon="1.38403">
        <ele>139</ele>
        <time>2024-03-27T17:44:35Z</time>
      </trkpt>
      <trkpt lat="43.65192" lon="1.38401">
        <ele>139</ele>
        <time>2024-03-27T17:44:36Z</time>
      </trkpt>
      <trkpt lat="43.65191" lon="1.38398">
        <ele>139</ele>
        <time>2024-03-27T17:44:37Z</time>
      </trkpt>
      <trkpt lat="43.65187" lon="1.38391">
        <ele>139</ele>
        <time>2024-03-27T17:44:38Z</time>
      </trkpt>
      <trkpt lat="43.65187" lon="1.38391">
        <ele>139</ele>
        <time>2024-03-27T17:44:39Z</time>
      </trkpt>
      <trkpt lat="43.65186" lon="1.38388">
        <ele>139</ele>
        <time>2024-03-27T17:44:40Z</time>
      </trkpt>
      <trkpt lat="43.65185" lon="1.38384">
        <ele>139</ele>
        <time>2024-03-27T17:44:41Z</time>
      </trkpt>
      <trkpt lat="43.65185" lon="1.3838">
        <ele>139</ele>
        <time>2024-03-27T17:44:42Z</time>
      </trkpt>
      <trkpt lat="43.65184" lon="1.38375">
        <ele>140</ele>
        <time>2024-03-27T17:44:43Z</time>
      </trkpt>
      <trkpt lat="43.65184" lon="1.38371">
        <ele>140</ele>
        <time>2024-03-27T17:44:44Z</time>
      </trkpt>
      <trkpt lat="43.65183" lon="1.38365">
        <ele>140</ele>
        <time>2024-03-27T17:44:45Z</time>
      </trkpt>
      <trkpt lat="43.65183" lon="1.38363">
        <ele>140</ele>
        <time>2024-03-27T17:44:46Z</time>
      </trkpt>
      <trkpt lat="43.65182" lon="1.38356">
        <ele>140</ele>
        <time>2024-03-27T17:44:47Z</time>
      </trkpt>
      <trkpt lat="43.65182" lon="1.38354">
        <ele>140</ele>
        <time>2024-03-27T17:44:48Z</time>
      </trkpt>
      <trkpt lat="43.65181" lon="1.38348">
        <ele>140</ele>
        <time>2024-03-27T17:44:49Z</time>
      </trkpt>
      <trkpt lat="43.65181" lon="1.38346">
        <ele>140</ele>
        <time>2024-03-27T17:44:50Z</time>
      </trkpt>
      <trkpt lat="43.6518" lon="1.38342">
        <ele>140</ele>
        <time>2024-03-27T17:44:51Z</time>
      </trkpt>
      <trkpt lat="43.65179" lon="1.38335">
        <ele>140</ele>
        <time>2024-03-27T17:44:52Z</time>
      </trkpt>
      <trkpt lat="43.65179" lon="1.38333">
        <ele>140</ele>
        <time>2024-03-27T17:44:53Z</time>
      </trkpt>
      <trkpt lat="43.65178" lon="1.38327">
        <ele>140</ele>
        <time>2024-03-27T17:44:54Z</time>
      </trkpt>
      <trkpt lat="43.65178" lon="1.38325">
        <ele>140</ele>
        <time>2024-03-27T17:44:55Z</time>
      </trkpt>
      <trkpt lat="43.65177" lon="1.38321">
        <ele>140</ele>
        <time>2024-03-27T17:44:56Z</time>
      </trkpt>
      <trkpt lat="43.65177" lon="1.38316">
        <ele>140</ele>
        <time>2024-03-27T17:44:57Z</time>
      </trkpt>
      <trkpt lat="43.65176" lon="1.38312">
        <ele>140</ele>
        <time>2024-03-27T17:44:58Z</time>
      </trkpt>
      <trkpt lat="43.65176" lon="1.38308">
        <ele>140</ele>
        <time>2024-03-27T17:44:59Z</time>
      </trkpt>
      <trkpt lat="43.65175" lon="1.38304">
        <ele>140</ele>
        <time>2024-03-27T17:45:00Z</time>
      </trkpt>
      <trkpt lat="43.65174" lon="1.38299">
        <ele>140</ele>
        <time>2024-03-27T17:45:01Z</time>
      </trkpt>
      <trkpt lat="43.65174" lon="1.38295">
        <ele>140</ele>
        <time>2024-03-27T17:45:02Z</time>
      </trkpt>
      <trkpt lat="43.65173" lon="1.38292">
        <ele>140</ele>
        <time>2024-03-27T17:45:03Z</time>
      </trkpt>
      <trkpt lat="43.65171" lon="1.38285">
        <ele>139</ele>
        <time>2024-03-27T17:45:04Z</time>
      </trkpt>
      <trkpt lat="43.65171" lon="1.38283">
        <ele>139</ele>
        <time>2024-03-27T17:45:05Z</time>
      </trkpt>
      <trkpt lat="43.6517" lon="1.38279">
        <ele>139</ele>
        <time>2024-03-27T17:45:06Z</time>
      </trkpt>
      <trkpt lat="43.65169" lon="1.38276">
        <ele>139</ele>
        <time>2024-03-27T17:45:07Z</time>
      </trkpt>
      <trkpt lat="43.65168" lon="1.38272">
        <ele>139</ele>
        <time>2024-03-27T17:45:08Z</time>
      </trkpt>
      <trkpt lat="43.65167" lon="1.38266">
        <ele>139</ele>
        <time>2024-03-27T17:45:09Z</time>
      </trkpt>
      <trkpt lat="43.65166" lon="1.38264">
        <ele>139</ele>
        <time>2024-03-27T17:45:10Z</time>
      </trkpt>
      <trkpt lat="43.65165" lon="1.38259">
        <ele>139</ele>
        <time>2024-03-27T17:45:11Z</time>
      </trkpt>
      <trkpt lat="43.65165" lon="1.38257">
        <ele>139</ele>
        <time>2024-03-27T17:45:12Z</time>
      </trkpt>
      <trkpt lat="43.65164" lon="1.38253">
        <ele>139</ele>
        <time>2024-03-27T17:45:13Z</time>
      </trkpt>
      <trkpt lat="43.65163" lon="1.38247">
        <ele>139</ele>
        <time>2024-03-27T17:45:14Z</time>
      </trkpt>
      <trkpt lat="43.65163" lon="1.38244">
        <ele>139</ele>
        <time>2024-03-27T17:45:15Z</time>
      </trkpt>
      <trkpt lat="43.65162" lon="1.38238">
        <ele>139</ele>
        <time>2024-03-27T17:45:16Z</time>
      </trkpt>
      <trkpt lat="43.65162" lon="1.38236">
        <ele>139</ele>
        <time>2024-03-27T17:45:17Z</time>
      </trkpt>
      <trkpt lat="43.65161" lon="1.38232">
        <ele>139</ele>
        <time>2024-03-27T17:45:18Z</time>
      </trkpt>
      <trkpt lat="43.65161" lon="1.38228">
        <ele>139</ele>
        <time>2024-03-27T17:45:19Z</time>
      </trkpt>
      <trkpt lat="43.65161" lon="1.38223">
        <ele>139</ele>
        <time>2024-03-27T17:45:20Z</time>
      </trkpt>
      <trkpt lat="43.65161" lon="1.38219">
        <ele>140</ele>
        <time>2024-03-27T17:45:21Z</time>
      </trkpt>
      <trkpt lat="43.65161" lon="1.38215">
        <ele>140</ele>
        <time>2024-03-27T17:45:22Z</time>
      </trkpt>
      <trkpt lat="43.65161" lon="1.38209">
        <ele>140</ele>
        <time>2024-03-27T17:45:23Z</time>
      </trkpt>
      <trkpt lat="43.65162" lon="1.38207">
        <ele>140</ele>
        <time>2024-03-27T17:45:24Z</time>
      </trkpt>
      <trkpt lat="43.65162" lon="1.38201">
        <ele>140</ele>
        <time>2024-03-27T17:45:25Z</time>
      </trkpt>
      <trkpt lat="43.65163" lon="1.38199">
        <ele>140</ele>
        <time>2024-03-27T17:45:26Z</time>
      </trkpt>
      <trkpt lat="43.65164" lon="1.38196">
        <ele>140</ele>
        <time>2024-03-27T17:45:27Z</time>
      </trkpt>
      <trkpt lat="43.65168" lon="1.38191">
        <ele>140</ele>
        <time>2024-03-27T17:45:28Z</time>
      </trkpt>
      <trkpt lat="43.65169" lon="1.3819">
        <ele>140</ele>
        <time>2024-03-27T17:45:29Z</time>
      </trkpt>
      <trkpt lat="43.65172" lon="1.38187">
        <ele>140</ele>
        <time>2024-03-27T17:45:30Z</time>
      </trkpt>
      <trkpt lat="43.65174" lon="1.38184">
        <ele>140</ele>
        <time>2024-03-27T17:45:31Z</time>
      </trkpt>
      <trkpt lat="43.65177" lon="1.38181">
        <ele>140</ele>
        <time>2024-03-27T17:45:32Z</time>
      </trkpt>
      <trkpt lat="43.65179" lon="1.38179">
        <ele>140</ele>
        <time>2024-03-27T17:45:33Z</time>
      </trkpt>
      <trkpt lat="43.65183" lon="1.38175">
        <ele>140</ele>
        <time>2024-03-27T17:45:34Z</time>
      </trkpt>
      <trkpt lat="43.65184" lon="1.38173">
        <ele>140</ele>
        <time>2024-03-27T17:45:35Z</time>
      </trkpt>
      <trkpt lat="43.65186" lon="1.3817">
        <ele>140</ele>
        <time>2024-03-27T17:45:36Z</time>
      </trkpt>
      <trkpt lat="43.65189" lon="1.38168">
        <ele>140</ele>
        <time>2024-03-27T17:45:37Z</time>
      </trkpt>
      <trkpt lat="43.65191" lon="1.38166">
        <ele>140</ele>
        <time>2024-03-27T17:45:38Z</time>
      </trkpt>
      <trkpt lat="43.65193" lon="1.38163">
        <ele>140</ele>
        <time>2024-03-27T17:45:39Z</time>
      </trkpt>
      <trkpt lat="43.65196" lon="1.38161">
        <ele>140</ele>
        <time>2024-03-27T17:45:40Z</time>
      </trkpt>
      <trkpt lat="43.65198" lon="1.38159">
        <ele>140</ele>
        <time>2024-03-27T17:45:41Z</time>
      </trkpt>
      <trkpt lat="43.65202" lon="1.38156">
        <ele>140</ele>
        <time>2024-03-27T17:45:42Z</time>
      </trkpt>
      <trkpt lat="43.65203" lon="1.38154">
        <ele>140</ele>
        <time>2024-03-27T17:45:43Z</time>
      </trkpt>
      <trkpt lat="43.65205" lon="1.38152">
        <ele>140</ele>
        <time>2024-03-27T17:45:44Z</time>
      </trkpt>
      <trkpt lat="43.65208" lon="1.3815">
        <ele>140</ele>
        <time>2024-03-27T17:45:45Z</time>
      </trkpt>
      <trkpt lat="43.65211" lon="1.38149">
        <ele>140</ele>
        <time>2024-03-27T17:45:46Z</time>
      </trkpt>
      <trkpt lat="43.65215" lon="1.38146">
        <ele>140</ele>
        <time>2024-03-27T17:45:47Z</time>
      </trkpt>
      <trkpt lat="43.65216" lon="1.38145">
        <ele>140</ele>
        <time>2024-03-27T17:45:48Z</time>
      </trkpt>
      <trkpt lat="43.65219" lon="1.38143">
        <ele>140</ele>
        <time>2024-03-27T17:45:49Z</time>
      </trkpt>
      <trkpt lat="43.65223" lon="1.38139">
        <ele>140</ele>
        <time>2024-03-27T17:45:50Z</time>
      </trkpt>
      <trkpt lat="43.65224" lon="1.38138">
        <ele>140</ele>
        <time>2024-03-27T17:45:51Z</time>
      </trkpt>
      <trkpt lat="43.65229" lon="1.38135">
        <ele>140</ele>
        <time>2024-03-27T17:45:52Z</time>
      </trkpt>
      <trkpt lat="43.6523" lon="1.38134">
        <ele>140</ele>
        <time>2024-03-27T17:45:53Z</time>
      </trkpt>
      <trkpt lat="43.65233" lon="1.38132">
        <ele>140</ele>
        <time>2024-03-27T17:45:54Z</time>
      </trkpt>
      <trkpt lat="43.65235" lon="1.3813">
        <ele>140</ele>
        <time>2024-03-27T17:45:55Z</time>
      </trkpt>
      <trkpt lat="43.65238" lon="1.38128">
        <ele>140</ele>
        <time>2024-03-27T17:45:56Z</time>
      </trkpt>
      <trkpt lat="43.65241" lon="1.38124">
        <ele>140</ele>
        <time>2024-03-27T17:45:57Z</time>
      </trkpt>
      <trkpt lat="43.65242" lon="1.38123">
        <ele>140</ele>
        <time>2024-03-27T17:45:58Z</time>
      </trkpt>
      <trkpt lat="43.65242" lon="1.3812">
        <ele>140</ele>
        <time>2024-03-27T17:45:59Z</time>
      </trkpt>
      <trkpt lat="43.65242" lon="1.38116">
        <ele>141</ele>
        <time>2024-03-27T17:46:00Z</time>
      </trkpt>
      <trkpt lat="43.6524" lon="1.38111">
        <ele>142</ele>
        <time>2024-03-27T17:46:01Z</time>
      </trkpt>
      <trkpt lat="43.65239" lon="1.3811">
        <ele>142</ele>
        <time>2024-03-27T17:46:02Z</time>
      </trkpt>
      <trkpt lat="43.65238" lon="1.38107">
        <ele>142</ele>
        <time>2024-03-27T17:46:03Z</time>
      </trkpt>
      <trkpt lat="43.65236" lon="1.38102">
        <ele>142</ele>
        <time>2024-03-27T17:46:04Z</time>
      </trkpt>
      <trkpt lat="43.65235" lon="1.381">
        <ele>142</ele>
        <time>2024-03-27T17:46:05Z</time>
      </trkpt>
      <trkpt lat="43.65234" lon="1.38096">
        <ele>142</ele>
        <time>2024-03-27T17:46:06Z</time>
      </trkpt>
      <trkpt lat="43.65233" lon="1.38093">
        <ele>142</ele>
        <time>2024-03-27T17:46:07Z</time>
      </trkpt>
      <trkpt lat="43.65231" lon="1.3809">
        <ele>143</ele>
        <time>2024-03-27T17:46:08Z</time>
      </trkpt>
      <trkpt lat="43.6523" lon="1.38087">
        <ele>143</ele>
        <time>2024-03-27T17:46:09Z</time>
      </trkpt>
      <trkpt lat="43.65228" lon="1.38084">
        <ele>143</ele>
        <time>2024-03-27T17:46:10Z</time>
      </trkpt>
      <trkpt lat="43.65226" lon="1.38078">
        <ele>143</ele>
        <time>2024-03-27T17:46:11Z</time>
      </trkpt>
      <trkpt lat="43.65226" lon="1.38076">
        <ele>143</ele>
        <time>2024-03-27T17:46:12Z</time>
      </trkpt>
      <trkpt lat="43.65223" lon="1.38068">
        <ele>143</ele>
        <time>2024-03-27T17:46:13Z</time>
      </trkpt>
      <trkpt lat="43.65223" lon="1.38068">
        <ele>142</ele>
        <time>2024-03-27T17:46:14Z</time>
      </trkpt>
      <trkpt lat="43.65222" lon="1.38064">
        <ele>142</ele>
        <time>2024-03-27T17:46:15Z</time>
      </trkpt>
      <trkpt lat="43.6522" lon="1.38057">
        <ele>142</ele>
        <time>2024-03-27T17:46:16Z</time>
      </trkpt>
      <trkpt lat="43.6522" lon="1.38057">
        <ele>143</ele>
        <time>2024-03-27T17:46:17Z</time>
      </trkpt>
      <trkpt lat="43.65219" lon="1.38053">
        <ele>143</ele>
        <time>2024-03-27T17:46:18Z</time>
      </trkpt>
      <trkpt lat="43.65217" lon="1.38046">
        <ele>143</ele>
        <time>2024-03-27T17:46:19Z</time>
      </trkpt>
      <trkpt lat="43.65217" lon="1.38046">
        <ele>143</ele>
        <time>2024-03-27T17:46:20Z</time>
      </trkpt>
      <trkpt lat="43.65216" lon="1.38043">
        <ele>143</ele>
        <time>2024-03-27T17:46:21Z</time>
      </trkpt>
      <trkpt lat="43.65214" lon="1.3804">
        <ele>143</ele>
        <time>2024-03-27T17:46:22Z</time>
      </trkpt>
      <trkpt lat="43.65212" lon="1.38036">
        <ele>143</ele>
        <time>2024-03-27T17:46:23Z</time>
      </trkpt>
      <trkpt lat="43.6521" lon="1.38035">
        <ele>143</ele>
        <time>2024-03-27T17:46:24Z</time>
      </trkpt>
      <trkpt lat="43.65207" lon="1.38033">
        <ele>143</ele>
        <time>2024-03-27T17:46:25Z</time>
      </trkpt>
      <trkpt lat="43.65206" lon="1.38034">
        <ele>143</ele>
        <time>2024-03-27T17:46:26Z</time>
      </trkpt>
      <trkpt lat="43.65203" lon="1.38034">
        <ele>143</ele>
        <time>2024-03-27T17:46:27Z</time>
      </trkpt>
      <trkpt lat="43.65201" lon="1.38036">
        <ele>143</ele>
        <time>2024-03-27T17:46:28Z</time>
      </trkpt>
      <trkpt lat="43.65199" lon="1.38037">
        <ele>143</ele>
        <time>2024-03-27T17:46:29Z</time>
      </trkpt>
      <trkpt lat="43.65196" lon="1.38039">
        <ele>144</ele>
        <time>2024-03-27T17:46:30Z</time>
      </trkpt>
      <trkpt lat="43.65194" lon="1.3804">
        <ele>144</ele>
        <time>2024-03-27T17:46:31Z</time>
      </trkpt>
      <trkpt lat="43.65191" lon="1.38043">
        <ele>144</ele>
        <time>2024-03-27T17:46:32Z</time>
      </trkpt>
      <trkpt lat="43.65189" lon="1.38045">
        <ele>144</ele>
        <time>2024-03-27T17:46:33Z</time>
      </trkpt>
      <trkpt lat="43.65186" lon="1.38047">
        <ele>144</ele>
        <time>2024-03-27T17:46:34Z</time>
      </trkpt>
      <trkpt lat="43.65184" lon="1.38047">
        <ele>144</ele>
        <time>2024-03-27T17:46:35Z</time>
      </trkpt>
      <trkpt lat="43.65181" lon="1.38047">
        <ele>144</ele>
        <time>2024-03-27T17:46:36Z</time>
      </trkpt>
      <trkpt lat="43.65178" lon="1.38047">
        <ele>144</ele>
        <time>2024-03-27T17:46:37Z</time>
      </trkpt>
      <trkpt lat="43.65176" lon="1.38048">
        <ele>144</ele>
        <time>2024-03-27T17:46:38Z</time>
      </trkpt>
      <trkpt lat="43.65173" lon="1.38051">
        <ele>144</ele>
        <time>2024-03-27T17:46:39Z</time>
      </trkpt>
      <trkpt lat="43.65172" lon="1.38052">
        <ele>144</ele>
        <time>2024-03-27T17:46:40Z</time>
      </trkpt>
      <trkpt lat="43.65169" lon="1.38053">
        <ele>144</ele>
        <time>2024-03-27T17:46:41Z</time>
      </trkpt>
      <trkpt lat="43.65167" lon="1.38055">
        <ele>144</ele>
        <time>2024-03-27T17:46:42Z</time>
      </trkpt>
      <trkpt lat="43.65163" lon="1.38058">
        <ele>144</ele>
        <time>2024-03-27T17:46:43Z</time>
      </trkpt>
      <trkpt lat="43.65162" lon="1.38059">
        <ele>144</ele>
        <time>2024-03-27T17:46:44Z</time>
      </trkpt>
      <trkpt lat="43.65158" lon="1.38061">
        <ele>144</ele>
        <time>2024-03-27T17:46:45Z</time>
      </trkpt>
      <trkpt lat="43.65157" lon="1.38062">
        <ele>144</ele>
        <time>2024-03-27T17:46:46Z</time>
      </trkpt>
      <trkpt lat="43.65154" lon="1.38065">
        <ele>144</ele>
        <time>2024-03-27T17:46:47Z</time>
      </trkpt>
      <trkpt lat="43.65152" lon="1.38066">
        <ele>145</ele>
        <time>2024-03-27T17:46:48Z</time>
      </trkpt>
      <trkpt lat="43.65149" lon="1.38068">
        <ele>145</ele>
        <time>2024-03-27T17:46:49Z</time>
      </trkpt>
      <trkpt lat="43.65144" lon="1.38072">
        <ele>144</ele>
        <time>2024-03-27T17:46:50Z</time>
      </trkpt>
      <trkpt lat="43.65142" lon="1.38074">
        <ele>144</ele>
        <time>2024-03-27T17:46:51Z</time>
      </trkpt>
      <trkpt lat="43.65142" lon="1.38074">
        <ele>144</ele>
        <time>2024-03-27T17:46:52Z</time>
      </trkpt>
      <trkpt lat="43.65139" lon="1.38076">
        <ele>144</ele>
        <time>2024-03-27T17:46:53Z</time>
      </trkpt>
      <trkpt lat="43.65136" lon="1.38077">
        <ele>144</ele>
        <time>2024-03-27T17:46:54Z</time>
      </trkpt>
      <trkpt lat="43.65133" lon="1.3808">
        <ele>144</ele>
        <time>2024-03-27T17:46:55Z</time>
      </trkpt>
      <trkpt lat="43.65132" lon="1.38081">
        <ele>144</ele>
        <time>2024-03-27T17:46:56Z</time>
      </trkpt>
      <trkpt lat="43.65129" lon="1.38083">
        <ele>144</ele>
        <time>2024-03-27T17:46:57Z</time>
      </trkpt>
      <trkpt lat="43.65125" lon="1.38085">
        <ele>144</ele>
        <time>2024-03-27T17:46:58Z</time>
      </trkpt>
      <trkpt lat="43.65124" lon="1.38086">
        <ele>144</ele>
        <time>2024-03-27T17:46:59Z</time>
      </trkpt>
      <trkpt lat="43.65121" lon="1.38088">
        <ele>144</ele>
        <time>2024-03-27T17:47:00Z</time>
      </trkpt>
      <trkpt lat="43.65118" lon="1.3809">
        <ele>144</ele>
        <time>2024-03-27T17:47:01Z</time>
      </trkpt>
      <trkpt lat="43.65116" lon="1.38092">
        <ele>144</ele>
        <time>2024-03-27T17:47:02Z</time>
      </trkpt>
      <trkpt lat="43.65113" lon="1.38093">
        <ele>144</ele>
        <time>2024-03-27T17:47:03Z</time>
      </trkpt>
      <trkpt lat="43.6511" lon="1.38096">
        <ele>144</ele>
        <time>2024-03-27T17:47:04Z</time>
      </trkpt>
      <trkpt lat="43.65108" lon="1.38097">
        <ele>144</ele>
        <time>2024-03-27T17:47:05Z</time>
      </trkpt>
      <trkpt lat="43.65105" lon="1.381">
        <ele>144</ele>
        <time>2024-03-27T17:47:06Z</time>
      </trkpt>
      <trkpt lat="43.65103" lon="1.38101">
        <ele>144</ele>
        <time>2024-03-27T17:47:07Z</time>
      </trkpt>
      <trkpt lat="43.65099" lon="1.38103">
        <ele>144</ele>
        <time>2024-03-27T17:47:08Z</time>
      </trkpt>
      <trkpt lat="43.65098" lon="1.38104">
        <ele>144</ele>
        <time>2024-03-27T17:47:09Z</time>
      </trkpt>
      <trkpt lat="43.65093" lon="1.38108">
        <ele>144</ele>
        <time>2024-03-27T17:47:10Z</time>
      </trkpt>
      <trkpt lat="43.65093" lon="1.38108">
        <ele>144</ele>
        <time>2024-03-27T17:47:11Z</time>
      </trkpt>
      <trkpt lat="43.65091" lon="1.3811">
        <ele>144</ele>
        <time>2024-03-27T17:47:12Z</time>
      </trkpt>
      <trkpt lat="43.65088" lon="1.38111">
        <ele>144</ele>
        <time>2024-03-27T17:47:13Z</time>
      </trkpt>
      <trkpt lat="43.65086" lon="1.38113">
        <ele>144</ele>
        <time>2024-03-27T17:47:14Z</time>
      </trkpt>
      <trkpt lat="43.65083" lon="1.38115">
        <ele>144</ele>
        <time>2024-03-27T17:47:15Z</time>
      </trkpt>
      <trkpt lat="43.6508" lon="1.38117">
        <ele>144</ele>
        <time>2024-03-27T17:47:16Z</time>
      </trkpt>
      <trkpt lat="43.65078" lon="1.38119">
        <ele>143</ele>
        <time>2024-03-27T17:47:17Z</time>
      </trkpt>
      <trkpt lat="43.65076" lon="1.38121">
        <ele>143</ele>
        <time>2024-03-27T17:47:18Z</time>
      </trkpt>
      <trkpt lat="43.65073" lon="1.38123">
        <ele>143</ele>
        <time>2024-03-27T17:47:19Z</time>
      </trkpt>
      <trkpt lat="43.65069" lon="1.38126">
        <ele>143</ele>
        <time>2024-03-27T17:47:20Z</time>
      </trkpt>
      <trkpt lat="43.65068" lon="1.38126">
        <ele>143</ele>
        <time>2024-03-27T17:47:21Z</time>
      </trkpt>
      <trkpt lat="43.65064" lon="1.38125">
        <ele>143</ele>
        <time>2024-03-27T17:47:22Z</time>
      </trkpt>
      <trkpt lat="43.65063" lon="1.38123">
        <ele>143</ele>
        <time>2024-03-27T17:47:23Z</time>
      </trkpt>
      <trkpt lat="43.65062" lon="1.38121">
        <ele>142</ele>
        <time>2024-03-27T17:47:24Z</time>
      </trkpt>
      <trkpt lat="43.6506" lon="1.38118">
        <ele>142</ele>
        <time>2024-03-27T17:47:25Z</time>
      </trkpt>
      <trkpt lat="43.65059" lon="1.38115">
        <ele>142</ele>
        <time>2024-03-27T17:47:26Z</time>
      </trkpt>
      <trkpt lat="43.65057" lon="1.38111">
        <ele>141</ele>
        <time>2024-03-27T17:47:27Z</time>
      </trkpt>
      <trkpt lat="43.65056" lon="1.38109">
        <ele>140</ele>
        <time>2024-03-27T17:47:28Z</time>
      </trkpt>
      <trkpt lat="43.65055" lon="1.38106">
        <ele>140</ele>
        <time>2024-03-27T17:47:29Z</time>
      </trkpt>
      <trkpt lat="43.65053" lon="1.38103">
        <ele>140</ele>
        <time>2024-03-27T17:47:30Z</time>
      </trkpt>
      <trkpt lat="43.65051" lon="1.38099">
        <ele>140</ele>
        <time>2024-03-27T17:47:31Z</time>
      </trkpt>
      <trkpt lat="43.6505" lon="1.38096">
        <ele>140</ele>
        <time>2024-03-27T17:47:32Z</time>
      </trkpt>
      <trkpt lat="43.65048" lon="1.38093">
        <ele>140</ele>
        <time>2024-03-27T17:47:33Z</time>
      </trkpt>
      <trkpt lat="43.65046" lon="1.3809">
        <ele>140</ele>
        <time>2024-03-27T17:47:34Z</time>
      </trkpt>
      <trkpt lat="43.65044" lon="1.38084">
        <ele>140</ele>
        <time>2024-03-27T17:47:35Z</time>
      </trkpt>
      <trkpt lat="43.65043" lon="1.38083">
        <ele>140</ele>
        <time>2024-03-27T17:47:36Z</time>
      </trkpt>
      <trkpt lat="43.65042" lon="1.38079">
        <ele>140</ele>
        <time>2024-03-27T17:47:37Z</time>
      </trkpt>
      <trkpt lat="43.6504" lon="1.38076">
        <ele>140</ele>
        <time>2024-03-27T17:47:38Z</time>
      </trkpt>
      <trkpt lat="43.65037" lon="1.38071">
        <ele>140</ele>
        <time>2024-03-27T17:47:39Z</time>
      </trkpt>
      <trkpt lat="43.65036" lon="1.38069">
        <ele>141</ele>
        <time>2024-03-27T17:47:40Z</time>
      </trkpt>
      <trkpt lat="43.65034" lon="1.38064">
        <ele>141</ele>
        <time>2024-03-27T17:47:41Z</time>
      </trkpt>
      <trkpt lat="43.65033" lon="1.38062">
        <ele>140</ele>
        <time>2024-03-27T17:47:42Z</time>
      </trkpt>
      <trkpt lat="43.65032" lon="1.3806">
        <ele>140</ele>
        <time>2024-03-27T17:47:43Z</time>
      </trkpt>
      <trkpt lat="43.65031" lon="1.38057">
        <ele>140</ele>
        <time>2024-03-27T17:47:44Z</time>
      </trkpt>
      <trkpt lat="43.65029" lon="1.38054">
        <ele>139</ele>
        <time>2024-03-27T17:47:45Z</time>
      </trkpt>
      <trkpt lat="43.65026" lon="1.38049">
        <ele>139</ele>
        <time>2024-03-27T17:47:46Z</time>
      </trkpt>
      <trkpt lat="43.65025" lon="1.38047">
        <ele>140</ele>
        <time>2024-03-27T17:47:47Z</time>
      </trkpt>
      <trkpt lat="43.65023" lon="1.38043">
        <ele>140</ele>
        <time>2024-03-27T17:47:48Z</time>
      </trkpt>
      <trkpt lat="43.65021" lon="1.3804">
        <ele>140</ele>
        <time>2024-03-27T17:47:49Z</time>
      </trkpt>
      <trkpt lat="43.65019" lon="1.38037">
        <ele>140</ele>
        <time>2024-03-27T17:47:50Z</time>
      </trkpt>
      <trkpt lat="43.65017" lon="1.38034">
        <ele>140</ele>
        <time>2024-03-27T17:47:51Z</time>
      </trkpt>
      <trkpt lat="43.65016" lon="1.3803">
        <ele>140</ele>
        <time>2024-03-27T17:47:52Z</time>
      </trkpt>
      <trkpt lat="43.65014" lon="1.38026">
        <ele>140</ele>
        <time>2024-03-27T17:47:53Z</time>
      </trkpt>
      <trkpt lat="43.65011" lon="1.3802">
        <ele>140</ele>
        <time>2024-03-27T17:47:54Z</time>
      </trkpt>
      <trkpt lat="43.65011" lon="1.3802">
        <ele>140</ele>
        <time>2024-03-27T17:47:55Z</time>
      </trkpt>
      <trkpt lat="43.65009" lon="1.38017">
        <ele>140</ele>
        <time>2024-03-27T17:47:56Z</time>
      </trkpt>
      <trkpt lat="43.65007" lon="1.38014">
        <ele>140</ele>
        <time>2024-03-27T17:47:57Z</time>
      </trkpt>
      <trkpt lat="43.65005" lon="1.38011">
        <ele>140</ele>
        <time>2024-03-27T17:47:58Z</time>
      </trkpt>
      <trkpt lat="43.65003" lon="1.38007">
        <ele>140</ele>
        <time>2024-03-27T17:47:59Z</time>
      </trkpt>
      <trkpt lat="43.65001" lon="1.38004">
        <ele>140</ele>
        <time>2024-03-27T17:48:00Z</time>
      </trkpt>
      <trkpt lat="43.64998" lon="1.37999">
        <ele>140</ele>
        <time>2024-03-27T17:48:01Z</time>
      </trkpt>
      <trkpt lat="43.64997" lon="1.37998">
        <ele>140</ele>
        <time>2024-03-27T17:48:02Z</time>
      </trkpt>
      <trkpt lat="43.64994" lon="1.37993">
        <ele>140</ele>
        <time>2024-03-27T17:48:03Z</time>
      </trkpt>
      <trkpt lat="43.64993" lon="1.37992">
        <ele>140</ele>
        <time>2024-03-27T17:48:04Z</time>
      </trkpt>
      <trkpt lat="43.64991" lon="1.37988">
        <ele>140</ele>
        <time>2024-03-27T17:48:05Z</time>
      </trkpt>
      <trkpt lat="43.6499" lon="1.37985">
        <ele>140</ele>
        <time>2024-03-27T17:48:06Z</time>
      </trkpt>
      <trkpt lat="43.64987" lon="1.37982">
        <ele>140</ele>
        <time>2024-03-27T17:48:07Z</time>
      </trkpt>
      <trkpt lat="43.64985" lon="1.37979">
        <ele>140</ele>
        <time>2024-03-27T17:48:08Z</time>
      </trkpt>
      <trkpt lat="43.64984" lon="1.37976">
        <ele>140</ele>
        <time>2024-03-27T17:48:09Z</time>
      </trkpt>
      <trkpt lat="43.64983" lon="1.37972">
        <ele>140</ele>
        <time>2024-03-27T17:48:10Z</time>
      </trkpt>
      <trkpt lat="43.64981" lon="1.3797">
        <ele>140</ele>
        <time>2024-03-27T17:48:11Z</time>
      </trkpt>
      <trkpt lat="43.6498" lon="1.37968">
        <ele>140</ele>
        <time>2024-03-27T17:48:12Z</time>
      </trkpt>
      <trkpt lat="43.64978" lon="1.37965">
        <ele>140</ele>
        <time>2024-03-27T17:48:13Z</time>
      </trkpt>
      <trkpt lat="43.64976" lon="1.37963">
        <ele>140</ele>
        <time>2024-03-27T17:48:14Z</time>
      </trkpt>
      <trkpt lat="43.64974" lon="1.37959">
        <ele>140</ele>
        <time>2024-03-27T17:48:15Z</time>
      </trkpt>
      <trkpt lat="43.64972" lon="1.37956">
        <ele>140</ele>
        <time>2024-03-27T17:48:16Z</time>
      </trkpt>
      <trkpt lat="43.64969" lon="1.37951">
        <ele>140</ele>
        <time>2024-03-27T17:48:17Z</time>
      </trkpt>
      <trkpt lat="43.64968" lon="1.3795">
        <ele>140</ele>
        <time>2024-03-27T17:48:18Z</time>
      </trkpt>
      <trkpt lat="43.64967" lon="1.37947">
        <ele>140</ele>
        <time>2024-03-27T17:48:19Z</time>
      </trkpt>
      <trkpt lat="43.64965" lon="1.37944">
        <ele>140</ele>
        <time>2024-03-27T17:48:20Z</time>
      </trkpt>
      <trkpt lat="43.64963" lon="1.37941">
        <ele>140</ele>
        <time>2024-03-27T17:48:21Z</time>
      </trkpt>
      <trkpt lat="43.64961" lon="1.37938">
        <ele>140</ele>
        <time>2024-03-27T17:48:22Z</time>
      </trkpt>
      <trkpt lat="43.64958" lon="1.37935">
        <ele>140</ele>
        <time>2024-03-27T17:48:23Z</time>
      </trkpt>
      <trkpt lat="43.64957" lon="1.37932">
        <ele>140</ele>
        <time>2024-03-27T17:48:24Z</time>
      </trkpt>
      <trkpt lat="43.64955" lon="1.37929">
        <ele>141</ele>
        <time>2024-03-27T17:48:25Z</time>
      </trkpt>
      <trkpt lat="43.64953" lon="1.37926">
        <ele>141</ele>
        <time>2024-03-27T17:48:26Z</time>
      </trkpt>
      <trkpt lat="43.64952" lon="1.37922">
        <ele>142</ele>
        <time>2024-03-27T17:48:27Z</time>
      </trkpt>
      <trkpt lat="43.64951" lon="1.37919">
        <ele>142</ele>
        <time>2024-03-27T17:48:28Z</time>
      </trkpt>
      <trkpt lat="43.6495" lon="1.37915">
        <ele>142</ele>
        <time>2024-03-27T17:48:29Z</time>
      </trkpt>
      <trkpt lat="43.64949" lon="1.37909">
        <ele>142</ele>
        <time>2024-03-27T17:48:30Z</time>
      </trkpt>
      <trkpt lat="43.64949" lon="1.37907">
        <ele>143</ele>
        <time>2024-03-27T17:48:31Z</time>
      </trkpt>
      <trkpt lat="43.64947" lon="1.37901">
        <ele>143</ele>
        <time>2024-03-27T17:48:32Z</time>
      </trkpt>
      <trkpt lat="43.64947" lon="1.37899">
        <ele>143</ele>
        <time>2024-03-27T17:48:33Z</time>
      </trkpt>
      <trkpt lat="43.64946" lon="1.37895">
        <ele>143</ele>
        <time>2024-03-27T17:48:34Z</time>
      </trkpt>
      <trkpt lat="43.64945" lon="1.37891">
        <ele>143</ele>
        <time>2024-03-27T17:48:35Z</time>
      </trkpt>
      <trkpt lat="43.64944" lon="1.37887">
        <ele>143</ele>
        <time>2024-03-27T17:48:36Z</time>
      </trkpt>
      <trkpt lat="43.64942" lon="1.37882">
        <ele>143</ele>
        <time>2024-03-27T17:48:37Z</time>
      </trkpt>
      <trkpt lat="43.64941" lon="1.3788">
        <ele>143</ele>
        <time>2024-03-27T17:48:38Z</time>
      </trkpt>
      <trkpt lat="43.64938" lon="1.37878">
        <ele>143</ele>
        <time>2024-03-27T17:48:39Z</time>
      </trkpt>
      <trkpt lat="43.64936" lon="1.37877">
        <ele>143</ele>
        <time>2024-03-27T17:48:40Z</time>
      </trkpt>
      <trkpt lat="43.64934" lon="1.37874">
        <ele>142</ele>
        <time>2024-03-27T17:48:41Z</time>
      </trkpt>
      <trkpt lat="43.64932" lon="1.37871">
        <ele>142</ele>
        <time>2024-03-27T17:48:42Z</time>
      </trkpt>
      <trkpt lat="43.64931" lon="1.37867">
        <ele>142</ele>
        <time>2024-03-27T17:48:43Z</time>
      </trkpt>
      <trkpt lat="43.6493" lon="1.37863">
        <ele>142</ele>
        <time>2024-03-27T17:48:44Z</time>
      </trkpt>
      <trkpt lat="43.64929" lon="1.37856">
        <ele>142</ele>
        <time>2024-03-27T17:48:45Z</time>
      </trkpt>
      <trkpt lat="43.64929" lon="1.37856">
        <ele>142</ele>
        <time>2024-03-27T17:48:46Z</time>
      </trkpt>
      <trkpt lat="43.64928" lon="1.37852">
        <ele>142</ele>
        <time>2024-03-27T17:48:47Z</time>
      </trkpt>
      <trkpt lat="43.64927" lon="1.37848">
        <ele>142</ele>
        <time>2024-03-27T17:48:48Z</time>
      </trkpt>
      <trkpt lat="43.64925" lon="1.37842">
        <ele>142</ele>
        <time>2024-03-27T17:48:49Z</time>
      </trkpt>
      <trkpt lat="43.64925" lon="1.3784">
        <ele>142</ele>
        <time>2024-03-27T17:48:50Z</time>
      </trkpt>
      <trkpt lat="43.64923" lon="1.37835">
        <ele>142</ele>
        <time>2024-03-27T17:48:51Z</time>
      </trkpt>
      <trkpt lat="43.64923" lon="1.37833">
        <ele>142</ele>
        <time>2024-03-27T17:48:52Z</time>
      </trkpt>
      <trkpt lat="43.64922" lon="1.3783">
        <ele>142</ele>
        <time>2024-03-27T17:48:53Z</time>
      </trkpt>
      <trkpt lat="43.64921" lon="1.37826">
        <ele>142</ele>
        <time>2024-03-27T17:48:54Z</time>
      </trkpt>
      <trkpt lat="43.64919" lon="1.37822">
        <ele>142</ele>
        <time>2024-03-27T17:48:55Z</time>
      </trkpt>
      <trkpt lat="43.64917" lon="1.37818">
        <ele>142</ele>
        <time>2024-03-27T17:48:56Z</time>
      </trkpt>
      <trkpt lat="43.64917" lon="1.37816">
        <ele>142</ele>
        <time>2024-03-27T17:48:57Z</time>
      </trkpt>
      <trkpt lat="43.64916" lon="1.37813">
        <ele>143</ele>
        <time>2024-03-27T17:48:58Z</time>
      </trkpt>
      <trkpt lat="43.64914" lon="1.37807">
        <ele>143</ele>
        <time>2024-03-27T17:48:59Z</time>
      </trkpt>
      <trkpt lat="43.64913" lon="1.37805">
        <ele>143</ele>
        <time>2024-03-27T17:49:00Z</time>
      </trkpt>
      <trkpt lat="43.64912" lon="1.37802">
        <ele>142</ele>
        <time>2024-03-27T17:49:01Z</time>
      </trkpt>
      <trkpt lat="43.64911" lon="1.37798">
        <ele>143</ele>
        <time>2024-03-27T17:49:02Z</time>
      </trkpt>
      <trkpt lat="43.64909" lon="1.37794">
        <ele>143</ele>
        <time>2024-03-27T17:49:03Z</time>
      </trkpt>
      <trkpt lat="43.64907" lon="1.37787">
        <ele>143</ele>
        <time>2024-03-27T17:49:04Z</time>
      </trkpt>
      <trkpt lat="43.64907" lon="1.37787">
        <ele>143</ele>
        <time>2024-03-27T17:49:05Z</time>
      </trkpt>
      <trkpt lat="43.64906" lon="1.37781">
        <ele>143</ele>
        <time>2024-03-27T17:49:06Z</time>
      </trkpt>
      <trkpt lat="43.64905" lon="1.3778">
        <ele>143</ele>
        <time>2024-03-27T17:49:07Z</time>
      </trkpt>
      <trkpt lat="43.64903" lon="1.37774">
        <ele>143</ele>
        <time>2024-03-27T17:49:08Z</time>
      </trkpt>
      <trkpt lat="43.64903" lon="1.37772">
        <ele>143</ele>
        <time>2024-03-27T17:49:09Z</time>
      </trkpt>
      <trkpt lat="43.64902" lon="1.37768">
        <ele>143</ele>
        <time>2024-03-27T17:49:10Z</time>
      </trkpt>
      <trkpt lat="43.64901" lon="1.37764">
        <ele>143</ele>
        <time>2024-03-27T17:49:11Z</time>
      </trkpt>
      <trkpt lat="43.649" lon="1.37761">
        <ele>143</ele>
        <time>2024-03-27T17:49:12Z</time>
      </trkpt>
      <trkpt lat="43.64899" lon="1.37757">
        <ele>143</ele>
        <time>2024-03-27T17:49:13Z</time>
      </trkpt>
      <trkpt lat="43.64898" lon="1.37753">
        <ele>143</ele>
        <time>2024-03-27T17:49:14Z</time>
      </trkpt>
      <trkpt lat="43.64898" lon="1.37749">
        <ele>143</ele>
        <time>2024-03-27T17:49:15Z</time>
      </trkpt>
      <trkpt lat="43.64897" lon="1.37746">
        <ele>143</ele>
        <time>2024-03-27T17:49:16Z</time>
      </trkpt>
      <trkpt lat="43.64896" lon="1.37743">
        <ele>143</ele>
        <time>2024-03-27T17:49:17Z</time>
      </trkpt>
      <trkpt lat="43.64895" lon="1.37739">
        <ele>144</ele>
        <time>2024-03-27T17:49:18Z</time>
      </trkpt>
      <trkpt lat="43.64894" lon="1.37735">
        <ele>144</ele>
        <time>2024-03-27T17:49:19Z</time>
      </trkpt>
      <trkpt lat="43.64893" lon="1.3773">
        <ele>144</ele>
        <time>2024-03-27T17:49:20Z</time>
      </trkpt>
      <trkpt lat="43.64892" lon="1.37727">
        <ele>144</ele>
        <time>2024-03-27T17:49:21Z</time>
      </trkpt>
      <trkpt lat="43.6489" lon="1.37724">
        <ele>144</ele>
        <time>2024-03-27T17:49:22Z</time>
      </trkpt>
      <trkpt lat="43.6489" lon="1.3772">
        <ele>144</ele>
        <time>2024-03-27T17:49:23Z</time>
      </trkpt>
      <trkpt lat="43.64889" lon="1.37717">
        <ele>144</ele>
        <time>2024-03-27T17:49:24Z</time>
      </trkpt>
      <trkpt lat="43.64888" lon="1.37714">
        <ele>144</ele>
        <time>2024-03-27T17:49:25Z</time>
      </trkpt>
      <trkpt lat="43.64887" lon="1.3771">
        <ele>144</ele>
        <time>2024-03-27T17:49:26Z</time>
      </trkpt>
      <trkpt lat="43.64885" lon="1.37704">
        <ele>144</ele>
        <time>2024-03-27T17:49:27Z</time>
      </trkpt>
      <trkpt lat="43.64885" lon="1.37703">
        <ele>144</ele>
        <time>2024-03-27T17:49:28Z</time>
      </trkpt>
      <trkpt lat="43.64884" lon="1.37697">
        <ele>144</ele>
        <time>2024-03-27T17:49:29Z</time>
      </trkpt>
      <trkpt lat="43.64884" lon="1.37695">
        <ele>144</ele>
        <time>2024-03-27T17:49:30Z</time>
      </trkpt>
      <trkpt lat="43.64883" lon="1.37691">
        <ele>144</ele>
        <time>2024-03-27T17:49:31Z</time>
      </trkpt>
      <trkpt lat="43.64882" lon="1.37685">
        <ele>144</ele>
        <time>2024-03-27T17:49:32Z</time>
      </trkpt>
      <trkpt lat="43.64881" lon="1.37683">
        <ele>144</ele>
        <time>2024-03-27T17:49:33Z</time>
      </trkpt>
      <trkpt lat="43.64881" lon="1.37679">
        <ele>144</ele>
        <time>2024-03-27T17:49:34Z</time>
      </trkpt>
      <trkpt lat="43.6488" lon="1.37673">
        <ele>143</ele>
        <time>2024-03-27T17:49:35Z</time>
      </trkpt>
      <trkpt lat="43.64879" lon="1.37671">
        <ele>143</ele>
        <time>2024-03-27T17:49:36Z</time>
      </trkpt>
      <trkpt lat="43.64878" lon="1.37667">
        <ele>143</ele>
        <time>2024-03-27T17:49:37Z</time>
      </trkpt>
      <trkpt lat="43.64877" lon="1.37664">
        <ele>144</ele>
        <time>2024-03-27T17:49:38Z</time>
      </trkpt>
      <trkpt lat="43.64875" lon="1.37661">
        <ele>144</ele>
        <time>2024-03-27T17:49:39Z</time>
      </trkpt>
      <trkpt lat="43.64871" lon="1.37659">
        <ele>144</ele>
        <time>2024-03-27T17:49:40Z</time>
      </trkpt>
      <trkpt lat="43.6487" lon="1.37658">
        <ele>144</ele>
        <time>2024-03-27T17:49:41Z</time>
      </trkpt>
      <trkpt lat="43.64867" lon="1.37657">
        <ele>144</ele>
        <time>2024-03-27T17:49:42Z</time>
      </trkpt>
      <trkpt lat="43.64864" lon="1.37656">
        <ele>144</ele>
        <time>2024-03-27T17:49:43Z</time>
      </trkpt>
      <trkpt lat="43.64861" lon="1.37654">
        <ele>144</ele>
        <time>2024-03-27T17:49:44Z</time>
      </trkpt>
      <trkpt lat="43.64859" lon="1.37652">
        <ele>145</ele>
        <time>2024-03-27T17:49:45Z</time>
      </trkpt>
      <trkpt lat="43.64857" lon="1.3765">
        <ele>145</ele>
        <time>2024-03-27T17:49:46Z</time>
      </trkpt>
      <trkpt lat="43.64855" lon="1.37648">
        <ele>145</ele>
        <time>2024-03-27T17:49:47Z</time>
      </trkpt>
      <trkpt lat="43.64852" lon="1.37645">
        <ele>145</ele>
        <time>2024-03-27T17:49:48Z</time>
      </trkpt>
      <trkpt lat="43.6485" lon="1.37643">
        <ele>145</ele>
        <time>2024-03-27T17:49:49Z</time>
      </trkpt>
      <trkpt lat="43.64848" lon="1.3764">
        <ele>145</ele>
        <time>2024-03-27T17:49:50Z</time>
      </trkpt>
      <trkpt lat="43.64845" lon="1.37638">
        <ele>145</ele>
        <time>2024-03-27T17:49:51Z</time>
      </trkpt>
      <trkpt lat="43.64842" lon="1.37634">
        <ele>145</ele>
        <time>2024-03-27T17:49:52Z</time>
      </trkpt>
      <trkpt lat="43.64841" lon="1.37632">
        <ele>145</ele>
        <time>2024-03-27T17:49:53Z</time>
      </trkpt>
      <trkpt lat="43.64839" lon="1.37631">
        <ele>145</ele>
        <time>2024-03-27T17:49:54Z</time>
      </trkpt>
      <trkpt lat="43.64836" lon="1.37629">
        <ele>145</ele>
        <time>2024-03-27T17:49:55Z</time>
      </trkpt>
      <trkpt lat="43.64835" lon="1.37628">
        <ele>145</ele>
        <time>2024-03-27T17:49:56Z</time>
      </trkpt>
      <trkpt lat="43.64832" lon="1.37627">
        <ele>145</ele>
        <time>2024-03-27T17:49:57Z</time>
      </trkpt>
      <trkpt lat="43.64831" lon="1.37626">
        <ele>144</ele>
        <time>2024-03-27T17:49:58Z</time>
      </trkpt>
      <trkpt lat="43.64828" lon="1.37624">
        <ele>144</ele>
        <time>2024-03-27T17:49:59Z</time>
      </trkpt>
      <trkpt lat="43.64822" lon="1.3762">
        <ele>144</ele>
        <time>2024-03-27T17:50:00Z</time>
      </trkpt>
      <trkpt lat="43.6482" lon="1.37618">
        <ele>144</ele>
        <time>2024-03-27T17:50:01Z</time>
      </trkpt>
      <trkpt lat="43.6482" lon="1.37618">
        <ele>145</ele>
        <time>2024-03-27T17:50:02Z</time>
      </trkpt>
      <trkpt lat="43.64815" lon="1.37615">
        <ele>145</ele>
        <time>2024-03-27T17:50:03Z</time>
      </trkpt>
      <trkpt lat="43.64814" lon="1.37614">
        <ele>145</ele>
        <time>2024-03-27T17:50:04Z</time>
      </trkpt>
      <trkpt lat="43.6481" lon="1.37612">
        <ele>145</ele>
        <time>2024-03-27T17:50:05Z</time>
      </trkpt>
      <trkpt lat="43.64809" lon="1.37611">
        <ele>145</ele>
        <time>2024-03-27T17:50:06Z</time>
      </trkpt>
      <trkpt lat="43.64806" lon="1.37611">
        <ele>146</ele>
        <time>2024-03-27T17:50:07Z</time>
      </trkpt>
      <trkpt lat="43.64804" lon="1.3761">
        <ele>146</ele>
        <time>2024-03-27T17:50:08Z</time>
      </trkpt>
    </trkseg>
  </trk>
</gpx>